     2.10           OBSERVATION DATA    G (GPS)             RINEX VERSION / TYPE
teqc 2000Jul20 Karen Wendt 20040802 19:45:38UTC             PGM / RUN BY / DATE
Linux 2.0.36|Pentium II|gcc -static|Linux|486/DX+           COMMENT
teqc 2000Jul20 Karen Wendt 20040802 19:45:38UTC             COMMENT
BIT 2 OF LLI FLAGS DATA COLLECTED UNDER A/S CONDITION       COMMENT
sis3 Sisson_2_No_3_1927_USC&GS                              MARKER NAME
GDH USGS                                                    OBSERVER / AGENCY
ZE120023208 ASHTECH UZ-12 ZE00                              REC # / TYPE / VERS
CR620022602 ASH701945E_M NONE                               ANT # / TYPE
 -2721389.0000 -4004105.0000  4138609.0000                  APPROX POSITION XYZ
        1.1631        0.0000        0.0000                  ANTENNA: DELTA H/E/N
     1     1                                                WAVELENGTH FACT L1/2
     5    C1    L1    L2    P1    P2                        # / TYPES OF OBSERV
    30.0000                                                 INTERVAL
                                                            COMMENT
National Earthquake Hazard Reduction Program                COMMENT
Crustal Strain Project                                      COMMENT
345 Middlefield Road, MS/977                                COMMENT
U.S. Geological Survey, Menlo Park, California 94025        COMMENT
Contact: kwendt@usgs.gov (Ph: 650-329-4866)                 COMMENT
Antenna height is vertical to base of antenna               COMMENT
                                                            COMMENT
SNR is mapped to RINEX snr flag value [1-9]                 COMMENT
L1: 1 -> 1; 90 -> 5; 210 -> 9                               COMMENT
L2: 1 -> 1; 150 -> 5; 250 -> 9                              COMMENT
  2004     7    24    15    50    0.0000000     GPS         TIME OF FIRST OBS
                                                            END OF HEADER
 04  7 24 15 50  0.0000000  0  7G21G 3G19G18G15G14G 9
  22120174.356    12115709.19753   9436258.86352  22120175.579    22120169.443
  21439737.571    11942862.56653   9305218.11152  21439739.233    21439733.960
  22969565.294    11730823.22953   9144908.55752  22969566.953    22969560.000
  21474476.152     -530847.00453   -424235.10452  21474477.915    21474471.247
  19989560.229    11908086.43154   9279084.37652  19989561.395    19989556.155
  21692418.034    11708535.20253   9131126.88052  21692419.817    21692413.856
  23734134.313    11812554.43953   9209223.97252  23734136.374    23734132.907
 04  7 24 15 50 30.0000000  0  8G22G21G 3G19G18G15G14G 9
  20448161.538     -650150.22654   -513811.19252  20448162.382    20448154.130
  22134374.808    12190332.89543   9494407.15142  22134376.027    22134369.828
  21441688.082    11953112.84443   9313205.33842  21441689.785    21441684.507
  22955906.959    11659047.95343   9088979.76442  22955908.611    22955901.646
  21485800.569     -471336.78343   -377863.52442  21485802.348    21485795.732
  19988746.661    11903811.51544   9275753.25642  19988747.869    19988742.636
  21676217.772    11623403.38343   9064790.41342  21676219.714    21676213.831
  23726665.189    11773304.32543   9178639.50742  23726667.407    23726663.686
 04  7 24 15 51  0.0000000  0  8G22G21G 3G19G18G15G14G 9
  20450183.859     -639522.86744   -505530.14442  20450184.728    20450176.470
  22148628.713    12265237.53543   9552774.34442  22148629.984    22148623.796
  21443746.095    11963927.95043   9321632.67042  21443747.799    21443742.612
  22942327.004    11587684.74843   9033372.05542  22942328.588    22942321.688
  21497161.375     -411634.91743   -331342.60742  21497163.239    21497156.580
  19988008.549    11899932.50744   9272730.63442  19988009.756    19988004.508
  21660090.399    11538653.71443   8998751.72442  21660092.408    21660086.499
  23719291.661    11734555.44943   9148445.61242  23719293.836    23719289.995
 04  7 24 15 51 30.0000000  0  8G22G21G 3G19G18G15G14G 9
  20452264.918     -628586.98744   -497008.68842  20452265.776    20452257.530
  22162937.156    12340429.17643   9611365.17742  22162938.488    22162932.360
  21445912.828    11975314.20243   9330505.05942  21445914.557    21445909.330
  22928827.184    11516742.75743   8978092.57942  22928828.794    22928821.868
  21508559.717     -351736.09043   -284668.21442  21508561.593    21508554.985
  19987347.270    11896457.38044   9270022.72242  19987348.449    19987343.212
  21644037.521    11454295.34543   8933017.93242  21644039.566    21644033.602
  23712014.967    11696316.85343   9118649.33442  23712017.235    23712013.348
 04  7 24 15 52  0.0000000  0  8G22G21G 3G19G18G15G14G 9
  20454404.870     -617341.60444   -488246.05942  20454405.706    20454397.449
  22177300.659    12415909.50843   9670180.96142  22177301.907    22177295.785
  21448188.531    11987273.15843   9339823.70742  21448190.303    21448185.067
  22915408.481    11446226.55343   8923144.87342  22915410.074    22915403.046
  21519995.799     -291639.13443   -237839.43942  21519997.689    21519991.111
  19986763.480    11893389.48944   9267632.14042  19986764.653    19986759.452
  21628059.895    11370332.65543   8867592.47642  21628061.982    21628056.036
  23704836.362    11658592.88943   9089254.08442  23704838.560    23704834.632
 04  7 24 15 52 30.0000000  0  8G22G21G 3G19G18G15G14G 9
  20456602.927     -605790.79544   -479245.43642  20456603.768    20456595.488
  22191718.322    12491674.66443   9729218.67842  22191719.592    22191713.414
  21450572.595    11999801.34543   9349585.91442  21450574.361    21450569.077
  22902070.492    11376135.09443   8868528.13742  22902072.113    22902065.111
  21531468.771     -231348.38643   -190859.65442  21531470.642    21531464.069
  19986256.720    11890726.36944   9265556.96442  19986257.889    19986252.689
  21612157.400    11286764.82543   8802474.69842  21612159.560    21612153.639
  23697755.553    11621382.78443   9060259.23442  23697757.745    23697753.798
 04  7 24 15 53  0.0000000  0  8G22G21G 3G19G18G15G14G 9
  20458859.279     -593933.62944   -470006.09442  20458860.110    20458851.854
  22206190.516    12567726.02943   9788479.43242  22206191.754    22206185.596
  21453065.189    12012899.83643   9359792.51042  21453066.940    21453061.657
  22888814.285    11306472.95143   8814245.93242  22888815.905    22888808.867
  21542978.752     -170863.09643   -143728.27942  21542980.632    21542974.085
  19985827.559    11888471.08544   9263799.58142  19985828.742    19985823.541
  21596330.826    11203595.81543   8737667.69242  21596333.043    21596327.135
  23690773.241    11584690.59643   9031667.94942  23690775.399    23690771.446
 04  7 24 15 53 30.0000000  0  8G22G21G 3G19G18G15G14G 9
  20461173.556     -581772.17744   -460529.64442  20461174.391    20461166.118
  22220716.858    12644062.07843   9847962.01042  22220718.085    22220711.960
  21455666.000    12026567.27243   9370442.43742  21455667.769    21455662.465
  22875640.009    11237241.37743   8760299.24442  22875641.593    22875634.594
  21554525.331     -110185.62043    -96447.15142  21554527.164    21554520.654
  19985476.039    11886623.60844   9262359.96742  19985477.209    19985472.007
  21580580.430    11120827.00743   8673172.52642  21580582.648    21580576.772
  23683889.786    11548517.66043   9003481.27542  23683891.926    23683888.074
 04  7 24 15 54  0.0000000  0  8G22G21G 3G19G18G15G14G 9
  20463545.758     -569306.20644   -450815.90742  20463546.604    20463538.352
  22235297.286    12720682.94643   9907666.53442  22235298.597    22235292.479
  21458375.146    12040803.88543   9381535.88542  21458376.945    21458371.630
  22862548.296    11168443.50443   8706690.48042  22862549.885    22862542.693
  21566108.487      -49315.88043    -49016.19542  21566110.324    21566103.783
  19985202.447    11885185.91044   9261239.66642  19985203.630    19985198.446
  21564906.763    11038461.55543   8608991.66942  21564908.959    21564903.138
  23677105.743    11512867.15343   8975701.70342  23677107.943    23677103.954
 04  7 24 15 54 30.0000000  0  8G22G21G 3G19G18G15G14G 9
  20465976.011     -556535.35744   -440864.60642  20465976.837    20465968.575
  22249932.195    12797589.51943   9967593.68442  22249933.519    22249927.444
  21461192.714    12055610.22643   9393073.27742  21461194.529    21461189.209
  22849539.685    11100083.02043   8653422.57342  22849541.348    22849534.260
  21577728.228       11746.11443     -1435.43642  21577730.068    21577723.548
  19985007.288    11884160.32144   9260440.48942  19985008.501    19985003.311
  21549310.614    10956503.08043   8545127.93042  21549312.807    21549306.954
  23670421.734    11477742.71643   8948332.03442  23670423.907    23670419.947
 04  7 24 15 55  0.0000000  0  8G22G21G 3G19G18G15G14G 9
  20468463.914     -543461.36044   -430677.08442  20468464.739    20468456.494
  22264621.161    12874780.88243  10027742.73142  22264622.571    22264616.522
  21464118.557    12070985.39043   9405053.91342  21464120.377    21464115.061
  22836614.782    11032161.83243   8600496.94442  22836616.400    22836609.289
  21589384.059       72998.20743     46293.44042  21589385.945    21589379.481
  19984890.604    11883547.06544   9259962.60542  19984891.822    19984886.635
  21533792.193    10874953.38443   8481582.71842  21533794.453    21533788.546
  23663838.171    11443145.25743   8921372.98842  23663840.243    23663836.243
 04  7 24 15 55 30.0000000  0  8G22G21G 3G19G18G15G14G 9
  20471008.735     -530088.14444   -420256.39642  20471009.576    20471001.350
  22279363.719    12952253.45443  10088110.91542  22279365.203    22279359.155
  21467151.725    12086924.94343   9417474.31642  21467153.587    21467148.304
  22823773.276    10964679.04443   8547912.93942  22823774.937    22823767.775
  21601075.473      134437.26143     94168.01342  21601077.393    21601070.947
  19984852.068    11883344.42644   9259804.69342  19984853.295    19984848.112
  21518351.269    10793810.71943   8418354.68042  21518353.524    21518347.611
  23657355.054    11409075.83943   8894825.43442  23657357.086    23657353.013
 04  7 24 15 56  0.0000000  0  8G22G21G 3G19G18G15G14G 9
  20473610.879     -516413.74244   -409601.02342  20473611.720    20473603.506
  22294160.155    13030009.01243  10148699.59842  22294161.648    22294155.608
  21470292.940    12103431.83143   9430336.80542  21470294.742    21470289.509
  22811016.119    10897639.98743   8495674.70742  22811017.817    22811010.680
  21612802.761      196064.15343    142188.94142  21612804.612    21612798.211
  19984892.342    11883556.04844   9259969.57842  19984893.597    19984888.411
  21502988.934    10713081.21643   8355448.58542  21502991.221    21502985.281
  23650972.914    11375537.71843   8868691.83842  23650974.929    23650970.982
 04  7 24 15 56 30.0000000  0  8G22G21G 3G19G18G15G14G 9
  20476269.739     -502441.27244   -398713.39242  20476270.588    20476262.372
  22309010.034    13108045.02843  10209506.82542  22309011.470    22309005.462
  21473541.369    12120502.69743   9443638.75642  21473543.206    21473538.015
  22798343.399    10831044.47243   8443782.08642  22798345.141    22798337.986
  21624565.053      257875.37143    190353.50642  21624566.903    21624560.458
  19985011.198    11884180.62344   9260456.24142  19985012.470    19985007.308
  21487705.164    10632764.35243   8292864.02342  21487707.424    21487701.493
  23644692.118    11342531.13743   8842972.46942  23644694.098    23644690.033
 04  7 24 15 57  0.0000000  0  8G22G21G 3G19G18G15G14G 9
  20478985.966     -488167.32244   -387590.84342  20478986.822    20478978.624
  22323913.860    13186364.96243  10270535.29542  22323915.282    22323909.300
  21476897.899    12138141.20343   9457383.03342  21476899.722    21476894.529
  22785756.345    10764899.04043   8392240.17942  22785758.089    22785750.919
  21636363.114      319874.38443    238664.40842  21636364.954    21636358.482
  19985209.734    11885223.65644   9261268.97742  19985210.963    19985205.820
  21472501.106    10552866.67643   8230606.10942  21472503.381    21472497.489
  23638513.321    11310062.80743   8817672.48842  23638515.450    23638511.539
 04  7 24 15 57 30.0000000  0  8G22G21G 3G19G18G15G14G 9
  20481758.850     -473595.89844   -376236.49442  20481759.663    20481751.498
  22338871.138    13264965.47543  10331782.38642  22338872.528    22338866.508
  21480361.799    12156343.84043   9471566.88442  21480363.620    21480358.388
  22773254.979    10699203.48143   8341048.81542  22773256.683    22773249.510
  21648196.130      382057.24343    287118.55442  21648197.969    21648191.545
  19985487.496    11886683.25244   9262406.30042  19985488.744    19985483.582
  21457376.677    10473387.38043   8168674.19542  21457378.951    21457373.058
  23632437.030    11278131.89243   8792791.27842  23632439.234    23632435.129
 04  7 24 15 58  0.0000000  0  8G22G21G 3G19G18G15G14G 9
  20484587.813     -458729.54644   -364652.33442  20484588.643    20484580.463
  22353881.327    13343844.35343  10393246.37542  22353882.679    22353876.669
  21483932.579    12175108.13343   9486188.39342  21483934.405    21483929.147
  22760839.189    10633958.05543   8290208.22642  22760840.863    22760833.780
  21660063.672      444421.13243    335713.76642  21660065.461    21660059.004
  19985844.367    11888558.45444   9263867.47442  19985845.610    19985840.453
  21442331.971    10394326.85643   8107068.60342  21442334.213    21442328.331
  23626463.026    11246738.60743   8768329.00342  23626465.220    23626461.114
 04  7 24 15 58 30.0000000  0  8G22G21G 3G19G18G15G14G 9
  20487473.377     -443566.05344   -352836.63342  20487474.188    20487466.007
  22368944.873    13423003.88643  10454929.08042  22368946.237    22368940.303
  21487610.592    12194436.10643   9501249.12542  21487612.444    21487607.167
  22748510.134    10569168.22443   8239722.62842  22748511.767    22748504.652
  21671966.037      506968.26843    384451.77142  21671967.814    21671961.370
  19986281.095    11890853.47544   9265655.78242  19986282.353    19986277.199
  21427367.939    10315690.46843   8045793.50342  21427370.206    21427364.305
  23620592.415    11215888.48643   8744289.96642  23620594.616    23620590.634
 04  7 24 15 59  0.0000000  0  8G22G21G 3G19G18G15G14G 9
  20490414.481     -428110.33944   -340793.22942  20490415.325    20490407.164
  22384061.162    13502439.63743  10516826.99442  22384062.399    22384056.467
  21491394.991    12214323.14943   9516745.50042  21491396.840    21491391.534
  22736267.503    10504832.41543   8189590.81942  22736269.109    22736262.024
  21683902.239      569693.33343    433328.41642  21683904.005    21683897.597
  19986797.188    11893565.28844   9267768.86042  19986798.419    19986793.245
  21412484.376    10237476.33643   7984847.43542  21412486.600    21412480.643
  23614824.884    11185579.58043   8720672.66442  23614827.095    23614823.027
 04  7 24 15 59 30.0000000  0  8G22G21G 3G19G18G15G14G 9
  20493411.982     -412358.42444   -328519.01842  20493412.832    20493404.660
  22399230.656    13582155.55843  10578943.24642  22399231.846    22399225.936
  21495286.540    12234773.25343   9532680.62042  21495288.378    21495283.100
  22724112.531    10440957.65143   8139818.26542  22724114.197    22724107.122
  21695873.041      632600.23243    482346.74942  21695874.873    21695868.436
  19987393.607    11896699.60144   9270211.16442  19987394.888    19987389.730
  21397682.423    10159691.43843   7924235.84242  21397684.649    21397678.683
  23609161.462    11155818.71143   8697482.40142  23609163.689    23609159.638
 04  7 24 16  0  0.0000000  0  8G22G21G 3G19G18G15G14G 9
  20496464.825     -396315.88344   -316018.34642  20496465.649    20496457.473
  22414452.485    13662146.49343  10641273.77742  22414453.710    22414447.771
  21499284.210    12255780.97143   9549050.24642  21499286.038    21499280.751
  22712044.693    10377541.28843   8090402.92942  22712046.416    22712039.446
  21707877.298      695683.02643    531502.13742  21707879.170    21707872.695
  19988069.809    11900252.80444   9272979.87242  19988071.066    19988065.913
  21382961.560    10082333.06243   7863956.59442  21382963.855    21382957.868
  23603601.926    11126603.01743   8674716.98942  23603604.242    23603600.098
 04  7 24 16  0 30.0000000  0  8G22G21G 3G19G18G15G14G 9
  20499573.793     -379978.18544   -303287.68342  20499574.625    20499566.463
  22429727.553    13742417.53743  10703822.57542  22429728.855    22429722.898
  21503388.822    12277350.63443   9565857.75042  21503390.649    21503385.349
  22700065.656    10314591.12343   8041350.84442  22700067.404    22700060.407
  21719915.852      758946.20343    580798.09042  21719917.738    21719911.307
  19988826.900    11904231.22644   9276079.91942  19988828.158    19988823.010
  21368323.381    10005408.89643   7804015.69542  21368325.667    21368319.666
  23598147.433    11097940.24243   8652382.35642  23598149.792    23598145.640
 04  7 24 16  1  0.0000000  0  8G22G21G 3G19G18G15G14G 9
  20502737.032     -363355.44044   -290334.90642  20502737.846    20502729.681
  22445054.061    13822958.87043  10766582.00142  22445055.494    22445049.425
  21507598.491    12299472.50943   9583095.55042  21507600.312    21507595.055
  22688174.106    10252100.42843   7992656.78942  22688175.786    22688168.860
  21731986.868      822379.45543    630226.56542  21731988.733    21731982.303
  19989663.353    11908626.86444   9279505.07042  19989664.622    19989659.499
  21353766.579     9928912.27243   7744407.94542  21353768.851    21353762.835
  23592797.041    11069823.36143   8630473.12342  23592799.382    23592795.018
 04  7 24 16  1 30.0000000  0  8G22G21G 3G19G18G15G14G 9
  20505955.559     -346441.93444   -277155.56242  20505956.398    20505948.232
  22460433.161    13903776.16343  10829556.46242  22460434.562    22460428.509
  21511914.339    12322152.17343   9600767.99642  21511916.161    21511910.877
  22676371.632    10190077.85543   7944327.51142  22676373.315    22676366.431
  21744091.260      885988.32243    679791.87642  21744093.080    21744086.674
  19990580.610    11913446.93444   9283260.95042  19990581.858    19990576.731
  21339292.646     9852851.43343   7685139.77242  21339294.928    21339288.966
  23587551.978    11042260.54443   8608995.65942  23587554.322    23587549.973
 04  7 24 16  2  0.0000000  0  8G22G21G 3G19G18G15G14G 9
  20509229.782     -329235.99444   -263748.34442  20509230.587    20509222.442
  22475865.085    13984871.37943  10892747.47842  22475866.574    22475860.467
  21516336.650    12345391.31943   9618876.39942  21516338.462    21516333.176
  22664659.147    10128528.14843   7896366.69642  22664660.856    22664653.840
  21756229.391      949774.44643    729495.31642  21756231.238    21756224.802
  19991579.343    11918695.32444   9287350.58742  19991580.609    19991575.486
  21324902.560     9777231.10443   7626214.85642  21324904.864    21324898.894
  23582413.259    11015256.50543   8587953.57442  23582415.563    23582411.312
 04  7 24 16  2 30.0000000  0  8G22G21G 3G19G18G15G14G 9
  20512558.724     -311742.18144   -250116.81642  20512559.563    20512551.428
  22491349.079    14066240.44443  10956151.88642  22491350.559    22491344.601
  21520864.526    12369185.40443   9637417.21642  21520866.338    21520861.091
  22653036.451    10067450.01643   7848773.34342  22653038.110    22653031.110
  21768400.370     1013733.23343    779333.28942  21768402.248    21768395.813
  19992659.126    11924369.44644   9291771.96142  19992660.358    19992655.277
  21310596.032     9702049.64243   7567631.91642  21310598.333    21310592.320
  23577380.528    10988809.39443   8567345.45442  23577382.723    23577378.696
 04  7 24 16  3  0.0000000  0  8G22G21G 3G19G18G15G14G 9
  20515941.721     -293964.52744   -236264.10842  20515942.549    20515934.413
  22506884.514    14147879.22543  11019766.45142  22506885.988    22506880.076
  21525497.182    12393530.04843   9656387.04442  21525499.011    21525493.736
  22641503.180    10006842.43143   7801546.65142  22641504.888    22641497.943
  21780603.401     1077860.26643    829302.36442  21780605.248    21780598.825
  19993819.403    11930466.61044   9296522.97742  19993820.634    19993815.547
  21296372.783     9627306.07443   7509390.18542  21296375.080    21296369.095
  23572453.564    10962917.90743   8547170.30342  23572455.794    23572451.659
 04  7 24 16  3 30.0000000  0  8G22G21G 3G19G18G15G14G 9
  20519379.152     -275900.79544   -222188.48342  20519380.001    20519371.839
  22522471.733    14229790.40643  11083593.28942  22522473.137    22522467.362
  21530235.061    12418427.65443   9675787.75042  21530236.903    21530231.617
  22630060.443     9946710.56343   7754690.64442  22630062.145    22630055.208
  21792838.836     1142157.79043    879404.28742  21792840.683    21792834.249
  19995060.945    11936990.90144   9301606.82042  19995062.184    19995057.099
  21282233.797     9553005.47043   7451493.63142  21282236.104    21282230.133
  23567633.252    10937587.30143   8527432.21142  23567635.562    23567631.288
 04  7 24 16  4  0.0000000  0  8G22G21G 3G19G18G15G14G 9
  20522871.114     -257550.43544   -207889.51042  20522871.953    20522863.806
  22538110.938    14311974.53043  11147632.80142  22538112.295    22538106.589
  21535078.182    12443878.40443   9695619.47742  21535080.037    21535074.748
  22618708.880     9887057.97143   7708208.11142  22618710.647    22618703.800
  21805106.829     1206626.08243    929639.26742  21805108.620    21805102.212
  19996384.248    11943944.71444   9307025.36042  19996385.480    19996380.397
  21268179.783     9479151.15943   7393944.83142  21268182.098    21268176.096
  23562920.340    10912820.72543   8508133.60842  23562922.599    23562918.344
 04  7 24 16  4 30.0000000  0  8G22G21G 3G19G18G15G14G 9
  20526416.833     -238917.63544   -193370.45642  20526417.683    20526409.517
  22553801.384    14394428.03343  11211882.21642  22553802.750    22553797.035
  21540025.815    12469878.27343   9715879.08542  21540027.650    21540022.386
  22607448.446     9827883.81343   7662098.37842  22607450.171    22607443.324
  21817406.616     1271261.52243    980004.50542  21817408.396    21817401.976
  19997788.829    11951325.89944   9312776.91042  19997790.085    19997785.013
  21254210.569     9405742.26343   7336743.11342  21254212.837    21254206.845
  23558314.465    10888616.99543   8489273.56442  23558316.659    23558312.513
 04  7 24 16  5  0.0000000  0  8G22G21G 3G19G18G15G14G 9
  20530016.209     -220002.87844   -178631.69742  20530017.069    20530008.910
  22569542.886    14477150.27943  11276341.06142  22569544.328    22569538.622
  21545077.689    12496426.10743   9736565.69042  21545079.544    21545074.286
  22596279.534     9769190.45043   7616363.27042  22596281.232    22596274.265
  21829737.934     1336063.06343   1030499.16942  21829739.779    21829733.338
  19999274.944    11959135.38744   9318862.20842  19999276.208    19999271.133
  21240326.486     9332780.90343   7279890.12242  21240328.781    21240322.740
  23553816.161    10864977.92943   8470853.54542  23553818.291    23553814.175
 04  7 24 16  5 30.0000000  0  8G22G21G 3G19G18G15G14G 9
  20533669.177     -200806.33544   -163673.36642  20533670.045    20533661.900
  22585335.745    14560141.45743  11341009.43242  22585337.103    22585331.411
  21550233.795    12523521.54943   9757678.99842  21550235.650    21550230.404
  22585202.571     9710980.54843   7571004.90442  22585204.261    22585197.281
  21842100.800     1401030.09043   1081122.78542  21842102.605    21842096.168
  20000842.883    11967374.86144   9325282.56342  20000844.142    20000839.097
  21226528.080     9260269.85043   7223388.01842  21226530.375    21226524.335
  23549425.742    10841906.13943   8452875.53542  23549427.859    23549423.725
 04  7 24 16  6  0.0000000  0  8G22G21G 3G19G18G15G14G 9
  20537376.237     -181325.76844   -148493.71742  20537377.098    20537368.959
  22601180.128    14643403.89343  11405889.19142  22601181.480    22601175.764
  21555494.564    12551167.01443   9779220.89442  21555496.429    21555491.187
  22574218.662     9653259.56843   7526027.52042  22574220.366    22574213.358
  21854495.620     1466165.24143   1131877.40542  21854497.419    21854490.994
  20002493.460    11976048.62544   9332041.31842  20002494.718    20002489.684
  21212816.322     9188214.18143   7167240.76042  21212818.587    21212812.585
  23545144.135    10819406.55243   8435343.39542  23545146.202    23545142.285
 04  7 24 16  6 30.0000000  0  8G22G21G 3G19G18G15G14G 9
  20541136.039     -161567.98544   -133098.05742  20541136.888    20541128.763
  22617074.903    14726931.11043  11470975.27842  22617076.285    22617070.524
  21560858.670    12579355.35843   9801185.81242  21560860.521    21560855.292
  22563327.038     9596023.58843   7481428.04542  22563328.722    22563321.706
  21866921.088     1531461.25243   1182757.36942  21866922.874    21866916.460
  20004225.680    11985151.36944   9339134.34842  20004226.942    20004221.917
  21199190.384     9116609.79343   7111445.15442  21199192.666    21199186.751
  23540970.850    10797475.06843   8418253.95542  23540972.818    23540968.875
 04  7 24 16  7  0.0000000  0  8G22G21G 3G19G18G15G14G 9
  20544949.071     -141530.46644   -117484.42042  20544949.919    20544941.787
  22633020.522    14810725.43843  11536269.49842  22633021.893    22633016.058
  21566326.529    12608089.00843   9823575.64742  21566328.379    21566323.149
  22552528.775     9539278.31343   7437210.94642  22552530.464    22552523.447
  21879377.689     1596920.82243   1233764.78342  21879379.476    21879372.976
  20006040.314    11994687.37944   9346564.99442  20006041.592    20006036.590
  21185651.476     9045462.07243   7056005.39142  21185653.735    21185647.810
  23536906.395    10776116.70043   8401611.08842  23536908.467    23536904.530
 04  7 24 16  7 30.0000000  0  8G22G21G 3G19G18G15G14G 9
  20548815.228     -121214.04344   -101653.45342  20548816.035    20548807.910
  22649016.813    14894786.67943  11601771.70242  22649018.246    22649012.380
  21571897.924    12637366.60643   9846389.34242  21571899.738    21571894.527
  22541824.216     9483025.64043   7393377.69642  22541825.897    22541818.938
  21891865.153     1662542.91143   1284898.82642  21891866.923    21891860.456
  20007937.621    12004657.66744   9354334.03442  20007938.898    20007933.884
  21172199.796     8974773.08343   7000923.07942  21172202.057    21172196.128
  23532951.465    10755333.28343   8385416.17742  23532953.451    23532949.451
 04  7 24 16  8  0.0000000  0  8G22G21G 3G19G18G15G14G 9
  20552733.513     -100623.11744    -85608.59542  20552734.375    20552726.251
  22665063.283    14979110.44943  11667478.46742  22665064.514    22665058.642
  21577571.901    12667183.46843   9869623.23642  21577573.714    21577568.510
  22531213.090     9427264.17043   7349927.19642  22531214.784    22531207.868
  21904382.720     1728322.97643   1336155.97642  21904384.476    21904378.065
  20009917.058    12015059.50744   9362439.34542  20009918.314    20009913.339
  21158835.004     8904541.07743   6946196.86142  21158837.344    21158831.423
  23529105.448    10735122.87143   8369667.81242  23529107.503    23529103.481
 04  7 24 16  8 30.0000000  0  8G22G21G 3G19G18G15G14G 9
  20556704.855      -79753.78644    -69346.79042  20556705.706    20556697.561
  22681160.402    15063701.06743  11733393.17142  22681161.589    22681155.784
  21583349.211    12697543.27343   9893280.21342  21583351.038    21583345.815
  22520696.812     9372000.81643   7306864.84442  22520698.543    22520691.665
  21916931.060     1794265.17243   1387539.46542  21916932.827    21916926.507
  20011979.637    12025898.55444   9370885.34442  20011980.913    20011975.928
  21145558.591     8834772.86443   6891832.04242  21145560.888    21145554.946
  23525369.886    10715492.12943   8354371.14942  23525371.996    23525367.991
 04  7 24 16  9  0.0000000  0  8G22G21G 3G19G18G15G14G 9
  20560728.424      -58609.72944    -52870.91842  20560729.287    20560721.184
  22697307.456    15148554.21943  11799512.44342  22697308.622    22697302.839
  21589229.031    12728441.94943   9917357.08642  21589230.859    21589225.654
  22510275.261     9317234.51943   7264189.79842  22510276.907    22510269.979
  21929509.623     1860365.50443   1439046.17442  21929511.362    21929505.020
  20014125.065    12037172.75944   9379670.42442  20014126.345    20014121.371
  21132370.224     8765467.57143   6837827.93242  21132372.546    21132366.567
  23521744.323    10696439.63543   8339525.04142  23521746.515    23521742.379
 04  7 24 16  9 30.0000000  0  8G22G21G 3G19G18G15G14G 9
  20564803.516      -37194.85844    -36184.02442  20564804.392    20564796.329
  22713503.896    15233666.52743  11865833.63642  22713505.019    22713499.282
  21595210.531    12759874.97143   9941850.33142  21595212.346    21595207.140
  22499947.960     9262964.20743   7221901.24742  22499949.616    22499942.617
  21942117.498     1926620.04243   1490673.03942  21942119.209    21942112.885
  20016352.798    12048879.56344   9388792.59542  20016354.089    20016349.116
  21119269.653     8696623.71143   6784183.38442  21119271.962    21119266.007
  23518228.532    10677963.80443   8325128.24942  23518230.694    23518226.438
 04  7 24 16 10  0.0000000  0  8G22G21G 3G19G18G15G14G 9
  20568931.356      -15503.14944    -19281.40542  20568932.199    20568924.125
  22729750.616    15319044.08543  11932361.53742  22729751.884    22729746.202
  21601294.799    12791848.10843   9966764.44642  21601296.607    21601291.440
  22489716.733     9209199.12743   7180006.37842  22489718.465    22489711.462
  21954755.808     1993034.60743   1542424.61442  21954757.549    21954751.209
  20018664.412    12061026.88744   9398258.03242  20018665.666    20018660.689
  21106258.563     8628250.20743   6730905.35242  21106260.909    21106254.961
  23514824.086    10660073.41343   8311187.68542  23514826.293    23514822.062
 04  7 24 16 10 30.0000000  0  8G22G21G 3G19G18G15G14G 9
  20573110.564        6458.66044     -2168.32242  20573111.410    20573103.326
  22746046.920    15404680.59643  11999091.22142  22746048.145    22746042.407
  21607480.539    12824354.10343   9992093.77242  21607482.330    21607477.149
  22479580.967     9155935.26943   7138502.07442  22479582.650    22479575.701
  21967423.291     2059602.74343   1594295.83942  21967425.066    21967418.773
  20021058.834    12073609.71344   9408062.81442  20021060.089    20021055.142
  21093336.189     8560342.94643   6677990.62042  21093338.546    21093332.605
  23511530.181    10642763.88343   8297699.73042  23511532.477    23511528.218
 04  7 24 16 11  0.0000000  0  8G22G21G 3G19G18G15G14G 9
  20577341.822       28693.87444     15157.80542  20577342.664    20577334.567
  22762392.751    15490579.02443  12066024.98742  22762394.144    22762388.415
  21613768.121    12857395.73043  10017840.47642  21613769.958    21613764.765
  22469541.732     9103178.70143   7097393.06342  22469543.412    22469536.516
  21980120.648     2126327.38243   1646289.02342  21980122.391    21980116.080
  20023537.115    12086632.89644   9418210.73642  20023538.341    20023533.380
  21080503.770     8492907.98343   6625443.91142  21080506.087    21080500.139
  23508347.901    10626040.94743   8284668.83642  23508350.193    23508345.985
 04  7 24 16 11 30.0000000  0  8G22G21G 3G19G18G15G14G 9
  20581623.840       51196.05744     32691.96242  20581624.701    20581616.587
  22778787.503    15576733.20143  12133158.03242  22778788.871    22778783.123
  21620156.486    12890966.49143  10043999.49242  21620158.303    21620153.115
  22459598.372     9050925.96943   7056676.63842  22459600.068    22459593.104
  21992846.590     2193202.39243   1698399.38342  21992848.333    21992842.029
  20026098.215    12100091.71344   9428698.11642  20026099.477    20026094.536
  21067760.465     8425941.62043   6573262.35242  21067762.812    21067756.874
  23505276.602    10609900.63543   8272091.98042  23505278.788    23505274.682
 04  7 24 16 12  0.0000000  0  8G22G21G 3G19G18G15G14G 9
  20585956.903       73966.46944     50435.12342  20585957.768    20585949.676
  22795231.068    15663144.53443  12200491.48442  22795232.478    22795226.723
  21626645.600    12925066.97543  10070571.27742  21626647.409    21626642.261
  22449751.585     8999180.89143   7016355.80442  22449753.281    22449746.369
  22005601.331     2260228.95243   1750627.82842  22005603.087    22005596.828
  20028742.795    12113989.00344   9439527.15142  20028744.055    20028739.135
  21055107.124     8359447.76943   6521448.97742  21055109.477    21055103.524
  23502316.750    10594346.57243   8259971.91542  23502319.002    23502314.849
 04  7 24 16 12 30.0000000  0  8G22G21G 3G19G18G15G14G 9
  20590341.803       97009.12844     68390.42942  20590342.672    20590334.588
  22811724.310    15749817.01943  12268028.39842  22811725.780    22811720.023
  21633236.172    12959700.63943  10097558.52842  21633237.981    21633232.856
  22440002.763     8947950.22143   6976435.80242  22440004.452    22439997.519
  22018385.606     2327410.55343   1802977.08242  22018387.375    22018381.158
  20031471.888    12128330.47844   9450702.31442  20031473.159    20031468.249
  21042544.888     8293432.91543   6470008.85042  21042547.245    21042541.289
  23499469.490    10579384.84443   8248313.40142  23499471.722    23499467.675
 04  7 24 16 13  0.0000000  0  8G22G21G 3G19G18G15G14G 9
  20594777.243      120317.46544     86552.75542  20594778.137    20594770.027
  22828265.991    15836744.12543  12335763.75242  22828267.500    22828261.778
  21639926.841    12994860.26943  10124955.62842  21639928.682    21639923.535
  22430351.138     8897230.26843   6936913.75042  22430352.788    22430345.790
  22031198.073     2394740.61543   1855442.02242  22031199.897    22031193.629
  20034284.588    12143111.07344   9462219.64342  20034285.845    20034280.931
  21030073.043     8227893.02743   6418938.82442  21030075.413    21030069.457
  23496734.378    10565011.31243   8237113.22442  23496736.653    23496732.512
 04  7 24 16 13 30.0000000  0  8G22G21G 3G19G18G15G14G 9
  20599263.671      143893.60244    104923.75542  20599264.538    20599256.415
  22844856.663    15923928.03443  12403699.19442  22844858.095    22844852.336
  21646717.953    13030547.64843  10152763.95542  21646719.802    21646714.678
  22420797.532     8847026.03043   6897793.56542  22420799.261    22420792.227
  22044039.339     2462221.62643   1908024.58542  22044041.190    22044034.902
  20037181.556    12158334.58744   9474082.10442  20037182.814    20037177.875
  21017692.537     8162833.04743   6368242.75342  21017694.889    21017688.950
  23494111.889    10551230.36743   8226374.81042  23494114.232    23494109.996
 04  7 24 16 14  0.0000000  0  8G22G21G 3G19G18G15G14G 9
  20603800.328      167733.91044    123500.60142  20603801.229    20603793.101
  22861495.466    16011365.29543  12471832.05742  22861496.869    22861491.161
  21653608.640    13066758.48943  10180980.17942  21653610.500    21653605.386
  22411341.914     8797336.32443   6859074.31942  22411343.603    22411336.598
  22056908.573     2529850.00143   1960721.97242  22056910.423    22056904.194
  20040162.411    12173998.98144   9486288.10642  20040163.676    20040158.710
  21005403.166     8098251.77243   6317919.69842  21005405.447    21005399.504
  23491602.033    10538040.59743   8216097.02242  23491604.319    23491600.093
 04  7 24 16 14 30.0000000  0  8G22G21G 3G19G18G15G14G 9
  20608386.857      191836.41644    142281.76242  20608387.780    20608379.675
  22878182.129    16099054.03143  12540160.87242  22878183.533    22878177.857
  21660598.525    13103490.26443  10209602.31642  21660600.362    21660595.265
  22401984.330     8748162.09343   6820756.73642  22401986.049    22401979.044
  22069805.442     2597623.52643   2013532.46942  22069807.301    22069801.129
  20043227.042    12190103.71844   9498837.23342  20043228.322    20043223.363
  20993204.947     8034149.81843   6267970.13942  20993207.234    20993201.287
  23489204.802    10525442.29143   8206280.15142  23489207.001    23489202.775
 04  7 24 16 15  0.0000000  0  8G22G21G 3G19G18G15G14G 9
  20613024.159      216205.58844    161270.71242  20613025.059    20613016.971
  22894917.519    16186998.46143  12608688.91942  22894918.833    22894913.249
  21667688.191    13140746.71443  10238633.30142  21667690.069    21667684.925
  22392726.246     8699510.43843   6782846.35542  22392727.950    22392720.958
  22082730.877     2665546.71943   2066459.58742  22082732.651    22082726.514
  20046376.627    12206654.77944   9511734.14742  20046377.889    20046372.943
  20981099.277     7970534.13343   6218399.49442  20981101.578    20981095.617
  23486921.192    10513441.95043   8196929.19242  23486923.384    23486919.177
 04  7 24 16 15 30.0000000  0  8G22G21G 3G19G18G15G14G 9
  20617711.369      240836.77444    180463.82642  20617712.227    20617704.165
  22911700.567    16275194.05143  12677412.67242  22911701.897    22911696.268
  21674876.765    13178522.76143  10268069.16142  21674878.591    21674873.493
  22383567.320     8651379.48943   6745341.71042  22383568.987    22383561.974
  22095683.875     2733614.95743   2119499.72842  22095685.640    22095679.520
  20049610.586    12223649.18844   9524976.52642  20049611.871    20049606.891
  20969085.795     7907402.79743   6169206.26242  20969088.078    20969082.110
  23484751.016    10502037.13243   8188042.28042  23484753.140    23484748.942
 04  7 24 16 16  0.0000000  0  8G22G21G 3G19G18G15G14G 9
  20622447.637      265726.05244    199858.05142  20622448.488    20622440.480
  22928530.894    16363636.99243  12746329.18242  22928532.016    22928526.493
  21682163.287    13216813.52943  10297906.10642  21682165.114    21682159.968
  22374507.089     8603767.98543   6708241.84442  22374508.809    22374501.847
  22108663.726     2801824.37843   2172649.88542  22108665.499    22108659.427
  20052928.397    12241084.30444   9538562.31542  20052929.695    20052924.689
  20957164.181     7844754.33843   6120389.30142  20957166.491    20957160.469
  23482693.721    10491225.88943   8179617.93542  23482695.817    23482691.648
 04  7 24 16 16 30.0000000  0  8G22G21G 3G19G18G15G14G 9
  20627233.996      290878.55644    219457.39342  20627234.865    20627226.855
  22945408.995    16452332.40443  12815442.41642  22945410.228    22945404.741
  21689548.591    13255623.53443  10328147.64442  21689550.428    21689545.297
  22365547.236     8556683.51343   6671552.64542  22365548.945    22365541.961
  22121671.399     2870180.05743   2225914.01542  22121673.161    22121667.089
  20056331.329    12258966.87844   9552496.77542  20056332.624    20056327.650
  20945335.888     7782596.19843   6071954.40642  20945338.189    20945332.171
  23480750.871    10481015.46643   8171661.72642  23480752.901    23480748.764
 04  7 24 16 17  0.0000000  0  8G22G21G 3G19G18G15G14G 9
  20632069.894      316291.26944    239259.49342  20632070.745    20632062.742
  22962334.871    16541277.36043  12884750.09342  22962336.075    22962330.576
  21697031.964    13294948.82243  10358790.71242  21697033.800    21697028.658
  22356687.536     8510125.68043   6635273.81542  22356689.257    22356682.306
  22134706.380     2938678.76543   2279289.59842  22134708.164    22134702.067
  20059819.196    12277295.46944   9566778.78042  20059820.481    20059815.480
  20933600.771     7720927.82443   6023901.14742  20933603.071    20933597.050
  23478922.087    10471404.95143   8164172.99442  23478924.150    23478920.064
 04  7 24 16 17 30.0000000  0  8G22G21G 3G19G18G15G14G 9
  20636954.500      341960.06044    259261.13642  20636955.388    20636947.391
  22979307.192    16630467.52243  12954248.84342  22979308.490    22979303.011
  21704612.600    13334785.10843  10389831.95542  21704614.449    21704609.281
  22347927.771     8464092.98843   6599404.18742  22347929.482    22347922.572
  22147767.742     3007316.59143   2332773.57542  22147769.537    22147763.448
  20063391.314    12296067.29144   9581406.15742  20063392.620    20063387.635
  20921958.566     7659747.70643   5976228.34542  20921960.892    20921954.834
  23477207.052    10462392.23843   8157150.05742  23477209.105    23477205.037
 04  7 24 16 18  0.0000000  0  8G22G21G 3G19G18G15G14G 9
  20641888.882      367890.18544    279466.41142  20641889.739    20641881.736
  22996327.124    16719908.06043  13023942.69342  22996328.491    22996323.115
  21712291.218    13375136.47543  10421274.56342  21712293.095    21712287.921
  22339269.478     8418593.19143   6563949.79842  22339271.155    22339264.225
  22160856.581     3076098.64443   2386369.93642  22160858.353    22160852.276
  20067049.158    12315289.05244   9596384.13542  20067050.431    20067045.425
  20910410.691     7599063.14443   5928941.69842  20910412.984    20910406.934
  23475606.996    10453984.46343   8150598.53342  23475609.121    23475605.156
 04  7 24 16 18 30.0000000  0  8G22G21G 3G19G18G15G14G 9
  20646872.025      394076.59844    299871.39442  20646872.864    20646864.857
  23013393.817    16809593.99943  13093827.76042  23013395.207    23013389.876
  21720066.774    13415997.16143  10453114.03942  21720068.655    21720063.469
  22330712.161     8373623.77743   6528908.70242  22330713.807    22330706.808
  22173971.854     3145019.86843   2440074.74242  22173973.659    22173967.586
  20070791.885    12334957.08944   9611709.86742  20070793.156    20070788.166
  20898956.618     7538871.73943   5882039.32642  20898958.911    20898952.871
  23474121.455    10446178.25943   8144515.77642  23474123.687    23474119.724
 04  7 24 16 19  0.0000000  0  8G22G21G 3G19G18G15G14G 9
  20651903.929      420519.45344    320476.20242  20651904.782    20651896.788
  23030507.244    16899525.47843  13163904.15942  23030508.661    23030503.397
  21727939.094    13457366.49143  10485349.85842  21727940.955    21727935.837
  22322256.085     8329187.48943   6494283.03642  22322257.800    22322250.837
  22187113.734     3214080.54843   2493888.21242  22187115.514    22187109.453
  20074619.874    12355073.28844   9627384.81342  20074621.142    20074616.179
  20887596.890     7479176.03343   5835523.21342  20887599.190    20887593.137
  23472750.961    10438976.04743   8138903.63242  23472753.175    23472749.030
 04  7 24 16 19 30.0000000  0  8G22G21G 3G19G18G15G14G 9
  20656983.694      447213.64044    341276.85342  20656984.551    20656976.569
  23047666.402    16989697.17443  13234167.74242  23047667.867    23047662.569
  21735907.166    13499238.57343  10517977.43442  21735909.001    21735903.869
  22313901.142     8285281.76943   6460070.78542  22313902.813    22313895.856
  22200281.213     3283275.61743   2547806.41242  22200283.002    22200276.850
  20078532.447    12375633.80844   9643405.97742  20078533.723    20078528.742
  20876330.968     7419973.30843   5789391.23942  20876333.313    20876327.212
  23471494.821    10432374.70043   8133759.72142  23471497.004    23471492.949
 04  7 24 16 20  0.0000000  0  8G22G21G 3G19G18G15G14G 9
  20662111.972      474162.85444    362276.22542  20662112.827    20662104.840
  23064872.022    17080113.10943  13304621.64142  23064873.536    23064868.186
  21743971.303    13541616.16443  10550998.91842  21743973.197    21743968.076
  22305648.262     8241912.56343   6426276.60742  22305649.961    22305643.025
  22213474.918     3352608.77343   2601832.20042  22213476.716    22213470.580
  20082530.483    12396643.70544   9659777.31442  20082531.769    20082526.815
  20865159.999     7361269.55343   5743648.07742  20865162.338    20865156.244
  23470354.023    10426379.54643   8129088.15142  23470356.181    23470352.101
 04  7 24 16 20 30.0000000  0  8G22G21G 3G19G18G15G14G 9
  20667288.857      501367.37044    383474.53542  20667289.709    20667281.712
  23082124.039    17170773.00843  13375265.62942  23082125.481    23082120.269
  21752131.550    13584498.73043  10584413.88542  21752133.447    21752128.418
  22297498.093     8199082.88643   6392902.83842  22297499.799    22297492.781
  22226694.983     3422080.27943   2655965.79442  22226696.748    22226690.624
  20086614.427    12418104.84344   9676500.26142  20086615.697    20086610.757
  20854084.436     7303067.19943   5698295.61142  20854086.793    20854080.705
  23469329.091    10420992.82143   8124890.70342  23469331.177    23469327.085
 04  7 24 16 21  0.0000000  0  8G22G21G 3G19G18G15G14G 9
  20672513.730      528824.30744    404869.54042  20672514.628    20672506.640
  23099422.066    17261674.11443  13446097.56842  23099423.294    23099418.135
  21760387.292    13627882.69943  10618219.55342  21760389.148    21760384.128
  22289450.279     8156792.22343   6359949.08442  22289452.046    22289445.148
  22239940.789     3491687.38843   2710205.04942  22239942.598    22239936.508
  20090783.894    12440015.50444   9693573.49242  20090785.141    20090780.241
  20843104.223     7245365.68743   5653333.41842  20843106.560    20843100.467
  23468419.547    10416213.47543   8121166.52242  23468421.666    23468417.554
 04  7 24 16 21 30.0000000  0  8G22G21G 3G19G18G15G14G 9
  20677786.116      556530.75044    426458.96342  20677786.997    20677779.001
  23116765.267    17352813.31843  13517115.06642  23116766.470    23116761.391
  21768737.721    13671764.29743  10652412.99242  21768739.577    21768734.518
  22281505.175     8115039.95143   6327414.84942  22281506.889    22281499.942
  22253211.907     3561427.15943   2764547.70042  22253213.754    22253207.559
  20095038.639    12462374.19644   9710995.82942  20095039.858    20095035.002
  20832219.164     7188164.39543   5608761.00842  20832221.504    20832215.414
  23467625.410    10412040.31443   8117914.71342  23467627.532    23467623.430
 04  7 24 16 22  0.0000000  0  8G22G21G 3G19G18G15G14G 9
  20683105.975      584486.95344    448243.00442  20683106.871    20683098.877
  23134154.034    17444191.05443  13588318.42942  23134155.098    23134150.027
  21777182.696    13716142.80643  10686993.63342  21777184.533    21777179.494
  22273662.949     8073828.89243   6295302.35142  22273664.675    22273657.774
  22266508.307     3631300.13543   2818994.13342  22266510.161    22266504.008
  20099378.928    12485182.63244   9728768.62342  20099380.186    20099375.306
  20821429.789     7131465.93143   5564580.40042  20821432.145    20821426.028
  23466947.075    10408475.57343   8115136.98642  23466949.097    23466945.080
 04  7 24 16 22 30.0000000  0  8G22G21G 3G19G18G15G14G 9
  20688473.661      612694.10444    470222.59442  20688474.550    20688466.539
  23151588.168    17535807.90543  13659708.13542  23151589.278    23151584.125
  21785722.209    13761018.16943  10721961.42842  21785724.010    21785719.025
  22265924.390     8033162.38743   6263614.16942  22265926.129    22265919.217
  22279830.227     3701307.19543   2873545.04542  22279832.032    22279825.883
  20103805.251    12508443.00244   9746893.56842  20103806.493    20103801.622
  20810736.731     7075273.65543   5520794.23642  20810739.093    20810732.989
  23466384.947    10405521.65143   8112835.24742  23466386.994    23466383.042
 04  7 24 16 23  0.0000000  0  8G22G21G 3G19G18G15G14G 9
  20693887.977      641146.66344    492393.40942  20693888.889    20693880.907
  23169066.760    17627658.74543  13731280.17442  23169067.991    23169062.853
  21794355.064    13806384.15043  10757311.52442  21794356.901    21794351.870
  22258288.861     7993037.54343   6232348.06342  22258290.680    22258283.729
  22293176.618     3771442.85443   2928196.17342  22293178.456    22293172.329
  20108316.846    12532151.44144   9765367.66142  20108318.090    20108313.202
  20800139.388     7019584.39243   5477400.02742  20800141.770    20800135.650
  23465938.544    10403175.25943   8111006.90442  23465940.591    23465936.559
 04  7 24 16 23 30.0000000  0  8G22G21G 3G19G18G15G14G 9
  20699349.610      669847.58044    514757.74842  20699350.503    20699342.540
  23186590.456    17719746.01643  13803036.41542  23186591.806    23186586.608
  21803081.671    13852242.49143  10793045.27342  21803083.482    21803078.427
  22250757.401     7953459.35143   6201507.92642  22250759.218    22250752.274
  22306548.052     3841709.95343   2982949.71642  22306549.844    22306543.749
  20112914.477    12556312.07644   9784194.11442  20112915.739    20112910.822
  20789638.698     6964403.04543   5434401.59242  20789641.081    20789634.972
  23465608.393    10401440.52143   8109655.14442  23465610.486    23465606.510
 04  7 24 16 24  0.0000000  0  8G22G21G 3G19G18G15G14G 9
  20704858.886      698799.05744    537317.33142  20704859.791    20704851.844
  23204159.610    17812071.86743  13874978.56842  23204160.869    23204155.811
  21811902.164    13898594.26543  10829163.52242  21811903.982    21811898.886
  22243330.723     7914432.39543   6171097.32642  22243332.540    22243325.691
  22319944.961     3912111.08643   3037807.70242  22319946.754    22319940.635
  20117598.790    12580928.29644   9803375.57542  20117600.047    20117595.170
  20779235.492     6909733.97543   5391802.34142  20779237.862    20779231.752
  23465395.391    10400321.46243   8108783.17742  23465397.501    23465393.532
 04  7 24 16 24 30.0000000  0  8G22G21G 3G19G18G15G14G 9
  20710414.592      727994.47444    560066.99442  20710415.504    20710407.582
  23221772.786    17904629.64043  13947101.44042  23221774.206    23221769.074
  21820815.068    13945431.90943  10865660.37142  21820816.921    21820811.833
  22236008.329     7875952.46543   6141112.96742  22236010.097    22236003.205
  22333366.111     3982639.79343   3092765.09642  22333367.912    22333361.846
  20122368.836    12605994.95244   9822908.01642  20122370.084    20122365.214
  20768928.951     6855572.71243   5349598.77842  20768931.312    20768925.186
  23465298.686    10399813.15643   8108387.13042  23465300.835    23465296.788
 04  7 24 16 25  0.0000000  0  8G22G21G 3G19G18G15G14G 9
  20716017.170      757436.05844    583008.47542  20716018.072    20716010.114
  23239430.575    17997421.47843  14019406.68942  23239431.985    23239426.899
  21829820.669    13992756.75843  10902536.85642  21829822.542    21829817.446
  22228790.816     7838024.14943   6111558.44442  22228792.584    22228785.680
  22346811.937     4053298.31943   3147823.64942  22346813.757    22346807.761
  20127225.280    12631515.53544   9842794.17042  20127226.527    20127221.632
  20758719.887     6801923.66643   5307794.34942  20758722.238    20758716.095
  23465318.804    10399919.32943   8108469.90142  23465320.949    23465316.945
 04  7 24 16 25 30.0000000  0  8G22G21G 3G19G18G15G14G 9
  20721665.843      787119.83044    606138.67542  20721666.736    20721658.721
  23257131.978    18090443.04643  14091890.93942  23257133.457    23257128.427
  21838918.043    14040563.79843  10939789.08442  21838919.935    21838914.858
  22221677.916     7800645.48943   6082432.21542  22221679.662    22221672.730
  22360281.744     4124082.34343   3202979.98342  22360283.523    22360277.546
  20132167.471    12657487.08744   9863031.72442  20132168.742    20132163.865
  20748607.973     6748785.08543   5266387.68042  20748610.312    20748604.150
  23465455.451    10400637.34843   8109029.41442  23465457.642    23465453.583
 04  7 24 16 26  0.0000000  0  8G22G21G 3G19G18G15G14G 9
  20727360.979      817048.04344    629459.35342  20727361.897    20727353.890
  23274877.667    18183696.42943  14164555.82742  23274879.019    23274874.101
  21848107.387    14088854.18743  10977417.93742  21848109.271    21848104.229
  22214670.317     7763820.85143   6053737.70642  22214672.102    22214665.196
  22373775.823     4194994.34043   3258236.04942  22373777.624    22373771.683
  20137196.221    12683913.14644   9883623.44642  20137197.492    20137192.587
  20738593.900     6696161.17043   5225382.04642  20738596.270    20738590.119
  23465709.112    10401970.86643   8110068.54142  23465711.370    23465707.303
 04  7 24 16 26 30.0000000  0  8G22G21G 3G19G18G15G14G 9
  20733101.955      847216.95144    652967.59042  20733102.858    20733094.834
  23292666.572    18277177.82543  14237398.40842  23292667.933    23292663.083
  21857387.777    14137622.90643  11015419.52142  21857389.672    21857384.628
  22207768.021     7727548.88043   6025473.84142  22207769.786    22207762.920
  22387293.536     4266030.33543   3313588.71942  22387295.328    22387289.455
  20142310.955    12710791.18044   9904567.35442  20142312.232    20142307.323
  20728677.509     6644050.15743   5184776.08542  20728679.831    20728673.727
  23466079.500    10403917.69243   8111585.57542  23466081.746    23466077.868
 04  7 24 16 27  0.0000000  0  8G22G21G 3G19G18G15G14G 9
  20738888.601      877626.13144    676663.04442  20738889.520    20738881.493
  23310498.883    18370886.40043  14310418.00342  23310500.073    23310495.309
  21866758.939    14186868.71343  11053792.85742  21866760.849    21866755.851
  22200971.184     7691831.26443   5997641.94042  22200972.941    22200966.056
  22400834.918     4337190.53643   3369038.19942  22400836.715    22400830.788
  20147511.857    12738122.11144   9925864.17042  20147513.134    20147508.241
  20718859.069     6592453.82143   5144571.16542  20718861.389    20718855.259
  23466566.921    10406479.07943   8113581.47542  23466569.187    23466565.199
 04  7 24 16 27 30.0000000  0  8G22G21G 3G19G18G15G14G 9
  20744721.609      908278.66844    700548.13342  20744722.505    20744714.486
  23328374.867    18464824.91543  14383616.78042  23328375.890    23328371.292
  21876221.233    14236593.44643  11092539.38442  21876223.145    21876218.180
  22194280.816     7656672.98843   5970245.88542  22194282.572    22194275.587
  22414400.498     4408477.95043   3424586.79042  22414402.277    22414396.387
  20152799.761    12765910.12144   9947517.15342  20152801.046    20152796.141
  20709139.468     6541377.10143   5104771.14142  20709141.790    20709135.631
  23467172.056    10409659.22343   8116059.56742  23467174.321    23467170.319
 04  7 24 16 28  0.0000000  0  8G22G21G 3G19G18G15G14G 9
  20750599.661      939168.06044    724617.78142  20750600.562    20750592.587
  23346293.330    18558986.87743  14456989.66442  23346294.450    23346289.780
  21885773.242    14286789.13443  11131652.89042  21885775.118    21885770.105
  22187696.005     7622069.89943   5943282.44942  22187697.808    22187690.858
  22427989.057     4479885.98343   3480229.35942  22427990.880    22427984.968
  20158173.590    12794149.74744   9969522.04242  20158174.875    20158169.993
  20699517.885     6490815.47943   5065372.49042  20699520.212    20699514.054
  23467894.082    10413453.01343   8119015.80842  23467896.286    23467892.148
 04  7 24 16 28 30.0000000  0  8G22G21G 3G19G18G15G14G 9
  20756523.198      970296.44344    748873.64942  20756524.081    20756516.143
  23364254.623    18653374.08243  14530538.07542  23364255.807    23364251.129
  21895415.077    14337457.05743  11171134.35742  21895416.939    21895411.938
  22181217.685     7588026.26643   5916754.94342  22181219.455    22181212.548
  22441601.052     4551416.90643   3535967.70742  22441602.854    22441596.909
  20163634.063    12822844.47144   9991881.55142  20163635.345    20163630.441
  20689995.131     6440773.21743   5026378.53442  20689997.479    20689991.340
  23468733.535    10417864.15143   8122453.08442  23468735.747    23468731.549
 04  7 24 16 29  0.0000000  0  8G22G21G 3G19G18G15G14G 9
  20762492.399     1001664.70544    773316.44442  20762493.267    20762485.320
  23382258.871    18747987.16143  14604262.50542  23382260.205    23382255.337
  21905146.631    14388596.58043  11210983.31842  21905148.485    21905143.465
  22174846.464     7554544.89543   5890665.56942  22174848.188    22174841.198
  22455236.517     4623071.59143   3591802.46942  22455238.328    22455232.439
  20169181.426    12851996.02344  10014597.04442  20169182.718    20169177.817
  20680571.729     6391252.81143   4987791.21942  20680574.068    20680567.901
  23469690.663    10422894.55043   8126372.90142  23469692.898    23469688.857
 04  7 24 16 29 30.0000000  0  8G22G21G 3G19G18G15G14G 9
  20768506.492     1033268.97444    797943.13242  20768507.372    20768499.433
  23400305.397    18842822.41743  14678160.07442  23400306.850    23400301.869
  21914967.077    14440203.01943  11251196.10742  21914968.913    21914963.881
  22168581.804     7521624.16243   5865013.05442  22168583.579    22168576.533
  22468894.854     4694846.60943   3647731.01442  22468896.703    22468890.813
  20174815.239    12881601.84944  10037666.50742  20174816.517    20174811.650
  20671247.324     6342252.65944   4949609.29042  20671249.673    20671243.473
  23470765.318    10428541.90243   8130773.42042  23470767.589    23470763.565
 04  7 24 16 30  0.0000000  0  8G22G21G 3G19G18G15G14G 9
  20774565.361     1065108.46844    822753.11242  20774566.238    20774558.275
  23418393.914    18937878.15043  14752229.41842  23418395.500    23418390.415
  21924875.814    14492273.73043  11291770.66142  21924877.673    21924872.653
  22162424.108     7489264.95043   5839798.08642  22162425.834    22162418.832
  22482575.973     4766740.82243   3703752.43342  22482577.802    22482571.871
  20180535.515    12911662.11944  10061090.08442  20180536.786    20180531.924
  20662022.081     6293773.51543   4911833.34142  20662024.406    20662018.187
  23471957.441    10434806.31543   8135654.78742  23471959.669    23471955.662
 04  7 24 16 30 30.0000000  0  8G22G21G 3G19G18G15G14G 9
  20780668.545     1097180.81844    847744.54742  20780669.415    20780661.461
  23436523.904    19033151.83743  14826468.58942  23436525.535    23436520.458
  21934872.302    14544805.34443  11332704.35842  21934874.135    21934869.111
  22156373.251     7457467.10443   5815020.54542  22156374.985    22156367.898
  22496279.326     4838752.06943   3759865.03942  22496281.144    22496275.173
  20186342.036    12942175.65044  10084866.84642  20186343.325    20186338.458
  20652895.875     6245815.11543   4874463.16842  20652898.203    20652891.972
  23473266.783    10441686.90143   8141016.30042  23473269.025    23473265.009
 04  7 24 16 31  0.0000000  0  8G22G21G 3G19G18G15G14G 9
  20786817.181     1129492.12144    872922.16442  20786818.064    20786810.116
  23454696.747    19128649.77543  14900882.50042  23454698.356    23454693.240
  21944957.454    14597803.10143  11374001.29142  21944959.302    21944954.264
  22150430.613     7426238.85543   5790686.85342  22150432.374    22150425.284
  22510006.107     4910886.82343   3816073.89242  22510007.960    22510001.990
  20192236.287    12973150.00844  10109002.70342  20192237.543    20192232.690
  20643870.322     6198385.53443   4837505.06442  20643872.662    20643866.411
  23474694.798    10449191.04443   8146863.69742  23474697.006    23474692.918
 04  7 24 16 31 30.0000000  0  8G22G21G 3G19G18G15G14G 9
  20793009.592     1162033.24644    898278.86642  20793010.464    20793002.519
  23472910.262    19224362.30643  14975463.61042  23472911.923    23472906.901
  21955129.232    14651256.30843  11415653.11242  21955131.094    21955126.099
  22144595.105     7395572.73643   5766791.17642  22144596.815    22144589.755
  22523754.686     4983135.73343   3872371.68342  22523756.522    22523750.569
  20198216.553    13004576.63644  10133490.97442  20198217.842    20198213.014
  20634943.962     6151477.19743   4800953.12142  20634946.276    20634940.037
  23476239.924    10457310.51743   8153190.57342  23476242.141    23476237.984
 04  7 24 16 32  0.0000000  0  8G22G21G 3G19G18G15G14G 9
  20799246.679     1194809.17144    923818.53142  20799247.557    20799239.608
  23491165.505    19320293.82643  15050215.34742  23491167.051    23491162.198
  21965388.388    14705168.44443  11457662.54342  21965390.227    21965385.263
  22138867.797     7365475.65943   5743338.91042  22138869.546    22138862.553
  22537525.974     5055503.90543   3928762.42242  22537527.775    22537521.750
  20204284.083    13036461.53444  10158336.33442  20204285.357    20204280.523
  20626118.074     6105096.93043   4764812.66242  20626120.390    20626114.164
  23477903.254    10466051.30743   8160001.61942  23477905.447    23477901.224
 04  7 24 16 32 30.0000000  0  8G22G21G 3G19G18G15G14G 9
  20805527.753     1227816.34644    949538.38942  20805528.624    20805520.685
  23509462.017    19416441.01143  15125135.12942  23509463.259    23509458.539
  21975733.931    14759534.66943  11500025.80642  21975735.771    21975730.809
  22133248.553     7335946.09443   5720328.86242  22133250.295    22133243.255
  22551319.245     5127988.06943   3985243.52442  22551321.045    22551315.044
  20210438.327    13068802.17944  10183536.82242  20210439.604    20210434.744
  20617392.373     6059243.04843   4729082.37242  20617394.697    20617388.478
  23479684.238    10475411.15443   8167295.00942  23479686.408    23479682.340
 04  7 24 16 33  0.0000000  0  8G22G21G 3G19G18G15G14G 9
  20811852.078     1261050.84744    975435.38442  20811852.948    20811845.008
  23527798.531    19512798.91943  15200219.08542  23527799.545    23527794.946
  21986164.872    14814349.61343  11542738.72042  21986166.729    21986161.791
  22127736.898     7306981.72543   5697759.22042  22127738.597    22127731.515
  22565133.755     5200583.97543   4041811.71542  22565135.612    22565129.669
  20216678.675    13101595.47444  10209090.02642  20216679.992    20216675.130
  20608766.361     6013913.08743   4693760.32942  20608768.661    20608762.476
  23481582.686    10485387.18243   8175068.54342  23481584.701    23481580.625
 04  7 24 16 33 30.0000000  0  8G22G21G 3G19G18G15G14G 9
  20818221.206     1294520.95244   1001515.96142  20818222.106    20818214.196
  23546176.406    19609375.84443  15275473.71442  23546177.451    23546172.965
  21996682.558    14869620.31343  11585806.76742  21996684.428    21996679.502
  22122334.645     7278592.91343   5675638.06242  22122336.379    22122329.343
  22578971.205     5273300.12543   4098473.60942  22578973.019    22578967.168
  20223006.967    13134850.72044  10235003.19242  20223008.250    20223003.404
  20600241.941     5969117.15043   4658854.41042  20600244.259    20600238.081
  23483600.049    10495988.46143   8183329.29142  23483602.087    23483598.008
 04  7 24 16 34  0.0000000  0  8G22G21G 3G19G18G15G14G 9
  20824633.728     1328218.61344   1027773.85942  20824634.568    20824626.659
  23564594.700    19706163.67743  15350892.69342  23564595.613    23564591.201
  22007285.176    14925337.29243  11629222.56342  22007287.054    22007282.146
  22117040.779     7250773.61943   5653960.69542  22117042.519    22117035.538
  22592830.133     5346129.05143   4155223.35942  22592831.908    22592826.082
  20229421.891    13168561.36944  10261271.21642  20229423.162    20229418.341
  20591818.043     5924849.41043   4624360.07542  20591820.372    20591814.208
  23485735.055    10507208.22343   8192071.99642  23485737.112    23485733.055
 04  7 24 16 34 30.0000000  0  8G22G21G 3G19G18G15G14G 9
  20831089.429     1362143.47144   1054208.79642  20831090.272    20831082.343
  23583052.743    19803161.25943  15426475.14742  23583053.739    23583049.329
  22017972.352    14981498.65643  11672984.62942  22017974.236    22017969.369
  22111855.505     7223524.89243   5632727.91542  22111857.272    22111850.282
  22606710.561     5419070.25243   4212060.62642  22606712.215    22606706.428
  20235923.578    13202727.76444  10287894.37042  20235924.820    20235919.984
  20583494.873     5881110.70143   4590277.97142  20583497.183    20583491.037
  23487987.811    10519046.70443   8201296.82042  23487989.896    23487985.832
 04  7 24 16 35  0.0000000  0  8G22G21G 3G19G18G15G14G 9
  20837588.659     1396297.18744   1080822.06242  20837589.518    20837581.600
  23601550.984    19900369.99243  15502222.10642  23601552.061    23601547.591
  22028744.181    15038104.65243  11717093.15942  22028746.076    22028741.194
  22106779.538     7196850.17443   5611942.41942  22106781.239    22106774.278
  22620612.547     5492125.39543   4268986.64242  22620614.144    22620608.422
  20242512.400    13237352.16644  10314874.40942  20242513.654    20242508.802
  20575273.003     5837904.29143   4556610.64242  20575275.293    20575269.135
  23490358.877    10531506.64143   8211005.88642  23490360.913    23490356.872
 04  7 24 16 35 30.0000000  0  8G22G21G 3G19G18G15G14G 9
  20844130.641     1430675.70244   1107610.49142  20844131.548    20844123.652
  23620088.561    19997785.42643  15578130.15642  23620089.703    23620085.201
  22039599.540    15095149.75143  11761543.84942  22039601.443    22039596.538
  22101812.226     7170747.06343   5591602.33142  22101813.992    22101807.052
  22634535.365     5565290.33043   4325998.23642  22634536.996    22634531.256
  20249187.822    13272431.61444  10342209.03442  20249189.062    20249184.211
  20567151.943     5795227.80343   4523356.24342  20567154.242    20567148.073
  23492847.486    10544584.85843   8221196.73542  23492849.610    23492845.509
 04  7 24 16 36  0.0000000  0  8G22G21G 3G19G18G15G14G 9
  20850715.565     1465279.49244   1134574.46042  20850716.437    20850708.572
  23638665.493    20095407.67643  15654199.34942  23638666.804    23638662.115
  22050538.218    15152632.86443  11806335.85542  22050540.148    22050535.244
  22096954.262     7145218.00943   5571709.56142  22096955.991    22096949.036
  22648479.356     5638566.05243   4383096.14842  22648480.951    22648475.300
  20255950.089    13307967.46144  10369899.29142  20255951.333    20255946.458
  20559132.127     5753083.44843   4490516.48842  20559134.449    20559128.259
  23495453.987    10558282.67043   8231870.39542  23495456.186    23495452.022
 04  7 24 16 36 30.0000000  0  8G22G21G 3G19G18G15G14G 9
  20857344.438     1500114.06744   1161718.26242  20857345.275    20857337.408
  23657282.558    20193241.76043  15730433.61942  23657284.041    23657279.250
  22061561.103    15210558.31543  11851472.53742  22061563.021    22061558.091
  22092206.790     7120269.99043   5552269.54842  22092208.538    22092201.612
  22662445.476     5711957.97343   4440284.59242  22662447.031    22662441.455
  20262800.416    13343966.12344  10397950.18242  20262801.669    20262796.815
  20551214.932     5711478.26143   4458096.86842  20551217.255    20551211.073
  23498179.605    10572606.35943   8243031.76142  23498181.828    23498177.804
 04  7 24 16 37  0.0000000  0  8G22G21G 3G19G18G15G14G 9
  20864014.637     1535166.22344   1189031.61142  20864015.499    20864007.615
  23675937.706    20291274.36243  15806822.57442  23675938.912    23675934.254
  22072665.345    15268911.22343  11896942.29842  22072667.261    22072662.305
  22087567.738     7095891.54643   5533273.35842  22087569.488    22087562.549
  22676431.184     5785452.81743   4497553.24942  22676432.780    22676427.037
  20269736.449    13380415.12444  10426351.98942  20269737.711    20269732.842
  20543398.136     5670400.63043   4426088.33042  20543400.451    20543394.232
  23501022.148    10587543.40943   8254671.04242  23501024.315    23501020.193
 04  7 24 16 37 30.0000000  0  8G22G21G 3G19G18G15G14G 9
  20870727.794     1570444.25944   1216520.97042  20870728.697    20870720.810
  23694632.136    20389513.36343  15883372.33042  23694633.218    23694628.529
  22083852.238    15327698.44143  11942750.48042  22083854.132    22083849.161
  22083038.973     7072092.65443   5514728.77642  22083040.727    22083033.739
  22690438.011     5859059.13543   4554908.78142  22690439.704    22690433.849
  20276759.920    13417323.77044  10455111.95842  20276761.168    20276756.342
  20535683.591     5629860.47043   4394498.59942  20535685.923    20535679.678
  23503983.084    10603103.04243   8266795.47042  23503985.294    23503981.130
 04  7 24 16 38  0.0000000  0  8G22G21G 3G19G18G15G14G 9
  20877483.306     1605944.77444   1244183.69242  20877484.219    20877476.336
  23713365.179    20487954.48943  15960079.59542  23713366.024    23713361.256
  22095120.758    15386915.07143  11988893.27742  22095122.705    22095117.690
  22078620.135     7048871.37843   5496634.27342  22078621.871    22078614.792
  22704465.388     5932773.82343   4612348.74942  22704467.158    22704461.392
  20283870.389    13454689.36044  10484227.97742  20283871.597    20283866.782
  20528070.899     5589855.50243   4363325.90142  20528073.225    20528066.950
  23507061.928    10619282.49343   8279402.84942  23507064.059    23507059.864
 04  7 24 16 38 30.0000000  0  8G22G21G 3G19G18G15G14G 9
  20884281.397     1641668.80444   1272020.58242  20884282.286    20884274.431
  23732136.385    20586598.90943  16036945.27342  23732137.411    23732132.906
  22106470.938    15446560.57443  12035370.25042  22106472.867    22106467.902
  22074311.657     7026230.40943   5478991.96842  22074313.443    22074306.325
  22718513.682     6006598.01443   4669874.05042  22718515.543    22718509.783
  20291068.130    13492513.74844  10513701.51542  20291069.352    20291064.553
  20520560.645     5550388.73043   4332572.57142  20520562.959    20520556.659
  23510259.005    10636083.59343   8292494.63942  23510261.172    23510257.013
 04  7 24 16 39  0.0000000  0  8G22G21G 3G19G18G15G14G 9
  20891120.972     1677610.61444   1300027.16742  20891121.824    20891113.943
  23750945.514    20685440.33443  16113964.44942  23750946.572    23750941.862
  22117901.385    15506627.73943  12082175.79142  22117903.279    22117898.346
  22070112.882     7004165.72743   5461798.71042  22070114.656    22070107.597
  22732581.774     6080526.11443   4727480.31942  22732583.576    22732577.830
  20298352.238    13530792.20544  10543528.86842  20298353.484    20298348.701
  20513151.980     5511455.95143   4302235.34642  20513154.284    20513147.977
  23513573.548    10653501.47543   8306067.03742  23513575.705    23513571.442
 04  7 24 16 39 30.0000000  0  8G22G21G 3G19G18G15G14G 9
  20898002.462     1713772.71044   1328205.40842  20898003.306    20897995.374
  23769792.154    20784480.29343  16191138.32542  23769793.395    23769788.770
  22129412.171    15567117.10943  12129310.32942  22129414.046    22129409.134
  22066024.450     6982680.81743   5445057.21942  22066026.229    22066019.160
  22746670.051     6154560.42943   4785169.35642  22746671.908    22746666.071
  20305723.354    13569527.57644  10573712.25842  20305724.608    20305719.818
  20505845.495     5473060.29843   4272316.65642  20505847.820    20505841.511
  23517005.920    10671538.86843   8320122.15742  23517008.018    23517003.869
 04  7 24 16 40  0.0000000  0  8G22G21G 3G19G18G15G14G 9
  20904925.951     1750156.13244   1356556.10942  20904926.836    20904918.952
  23788676.891    20883719.67943  16268467.59742  23788678.267    23788673.680
  22141003.190    15628028.23843  12176773.50742  22141005.052    22141000.154
  22062046.916     6961778.55743   5428769.74542  22062048.677    22062041.609
  22760778.801     6228702.19843   4842942.12442  22760780.675    22760774.877
  20313181.820    13608721.90744  10604253.28042  20313183.034    20313178.261
  20498641.800     5435204.70543   4242818.79542  20498644.129    20498637.837
  23520556.603    10690197.55243   8334661.41442  23520558.699    23520554.414
 04  7 24 16 40 30.0000000  0  8G22G21G 3G19G18G15G14G 9
  20911891.100     1786758.26944   1385077.23342  20911891.977    20911884.126
  23807598.903    20983155.50443  16345949.94542  23807600.449    23807595.824
  22152673.634    15689356.82643  12224561.97242  22152675.486    22152670.648
  22058179.984     6941457.60743   5412935.23942  22058181.747    22058174.689
  22774907.497     6302948.94943   4900796.68442  22774909.403    22774903.668
  20320727.253    13648373.24144  10635150.39842  20320728.448    20320723.654
  20491540.671     5397887.98443   4213740.83242  20491542.989    20491536.682
  23524225.021    10709475.38043   8349683.10142  23524227.095    23524222.858
 04  7 24 16 41  0.0000000  0  8G22G21G 3G19G18G15G14G 9
  20918898.123     1823580.08144   1413769.53342  20918898.977    20918891.065
  23826558.395    21082788.25643  16423585.75642  23826560.041    23826555.495
  22164423.408    15751102.25543  12272675.25542  22164425.267    22164420.462
  22054424.123     6921720.64943   5397555.79142  22054425.895    22054418.857
  22789056.336     6377301.83743   4958733.94042  22789058.234    22789052.499
  20328359.955    13688483.32344  10666404.98542  20328361.174    20328356.380
  20484542.539     5361112.58943   4185084.68442  20484544.855    20484538.569
  23528011.594    10729374.00543   8365188.53642  23528013.678    23528009.371
 04  7 24 16 41 30.0000000  0  8G22G21G 3G19G18G15G14G 9
  20925945.815     1860615.98644   1442628.66242  20925946.696    20925938.791
  23845554.149    21182611.61843  16501370.08042  23845555.860    23845551.397
  22176251.194    15813257.04543  12321107.50742  22176252.970    22176248.130
  22050778.574     6902563.24343   5382627.93942  22050780.378    22050773.304
  22803224.545     6451755.38143   5016749.64542  22803226.390    22803220.545
  20336079.073    13729047.27944  10698013.23842  20336080.263    20336075.461
  20477646.555     5324873.98943   4156846.81542  20477648.878    20477642.606
  23531915.328    10749888.29643   8381173.71142  23531917.442    23531913.218
 04  7 24 16 42  0.0000000  0  8G22G21G 3G19G18G15G14G 9
  20933034.810     1897868.78344   1471656.80242  20933035.691    20933027.805
  23864586.706    21282628.00543  16579304.82142  23864588.360    23864584.021
  22188157.013    15875822.67843  12369859.91642  22188158.822    22188154.019
  22047244.194     6883989.76943   5368155.10242  22047245.994    22047238.877
  22817412.290     6526312.51243   5074846.05842  22817414.166    22817408.394
  20343885.126    13770068.53944  10729977.83442  20343886.357    20343881.578
  20470853.586     5289176.50043   4129030.59542  20470855.882    20470849.613
  23535936.789    10771021.53443   8397641.16142  23535938.902    23535934.687
 04  7 24 16 42 30.0000000  0  8G22G21G 3G19G18G15G14G 9
  20940164.568     1935335.81744   1500851.87642  20940165.445    20940157.550
  23883655.567    21382834.47343  16657387.64442  23883657.091    23883652.824
  22200140.192    15938794.89943  12418929.13142  22200142.060    22200137.290
  22043820.632     6865998.74543   5354136.12642  22043822.441    22043815.286
  22831619.283     6600970.88643   5133021.36942  22831621.174    22831615.473
  20351777.845    13811544.99144  10762297.13242  20351779.061    20351774.300
  20464163.228     5254018.43743   4101634.70742  20464165.542    20464159.247
  23540075.558    10792771.27243   8414589.01842  23540077.777    23540073.576
 04  7 24 16 43  0.0000000  0  8G22G21G 3G19G18G15G14G 9
  20947335.513     1973019.69944   1530215.92142  20947336.433    20947328.556
  23902761.021    21483232.85343  16735620.04342  23902762.344    23902758.089
  22212200.992    16002174.40543  12468315.71342  22212202.834    22212198.049
  22040508.670     6848594.07843   5340574.04242  22040510.464    22040503.269
  22845845.992     6675733.03543   5191277.53742  22845847.853    22845842.319
  20359757.809    13853479.98844  10794973.73342  20359759.021    20359754.315
  20457576.376     5219404.06343   4074662.47642  20457578.661    20457572.372
  23544332.255    10815140.53843   8432019.61042  23544334.441    23544330.279
 04  7 24 16 43 30.0000000  0  8G22G21G 3G19G18G15G14G 9
  20954546.841     2010915.13744   1559744.81242  20954547.735    20954539.866
  23921901.986    21583817.33443  16813997.41842  23921902.964    23921898.696
  22224337.890    16065954.00843  12518014.06242  22224339.775    22224334.931
  22037307.487     6831771.88343   5327465.83642  22037309.278    22037302.134
  22860091.509     6750593.78843   5249610.52642  22860093.359    22860087.921
  20367824.175    13895868.79644  10828003.95242  20367825.371    20367820.628
  20451092.123     5185329.06643   4048110.53742  20451094.421    20451088.114
  23548706.017    10838124.42843   8449929.11642  23548708.176    23548703.961
 04  7 24 16 44  0.0000000  0  8G22G21G 3G19G18G15G14G 9
  20961798.727     2049023.95144   1589439.97142  20961799.606    20961791.751
  23941078.242    21684589.07943  16892520.75842  23941079.251    23941074.957
  22236550.956    16130133.63443  12568024.11742  22236552.801    22236547.969
  22034217.767     6815535.02043   5314813.73242  22034219.541    22034212.359
  22874356.257     6825555.04143   5308021.83742  22874358.012    22874352.607
  20375977.370    13938714.06444  10861389.85442  20375978.569    20375973.834
  20444711.084     5151796.47843   4021981.25342  20444713.391    20444707.078
  23553197.038    10861725.07743   8468319.21942  23553199.192    23553195.021
 04  7 24 16 44 30.0000000  0  8G22G21G 3G19G18G15G14G 9
  20969091.277     2087346.75344   1619301.87542  20969092.169    20969084.340
  23960290.394    21785548.62643  16971190.37042  23960291.168    23960286.942
  22248839.933    16194712.62243  12618345.35842  22248841.788    22248837.008
  22031239.760     6799885.61543   5302619.38642  22031241.564    22031234.379
  22888640.116     6900617.48443   5366511.99642  22888641.900    22888636.599
  20384217.666    13982017.01744  10895132.39642  20384218.861    20384214.133
  20438433.576     5118808.05343   3996275.99242  20438435.880    20438429.589
  23557805.689    10885943.61143   8487190.79042  23557807.831    23557803.679
 04  7 24 16 45  0.0000000  0  8G22G21G 3G19G18G15G14G 9
  20976424.114     2125880.67644   1649328.29042  20976424.968    20976417.086
  23979537.369    21886692.11443  17050003.34842  23979538.135    23979534.000
  22261204.085    16259686.18943  12668974.06242  22261205.901    22261201.139
  22028373.267     6784821.77343   5290881.32342  22028375.034    22028367.801
  22902942.842     6975778.83143   5425079.21842  22902944.609    22902939.338
  20392544.544    14025774.96544  10929229.47942  20392545.755    20392540.996
  20432259.298     5086362.16943   3970993.48942  20432261.613    20432255.326
  23562531.385    10910777.31843   8506541.73242  23562533.541    23562529.374
 04  7 24 16 45 30.0000000  0  8G22G21G 3G19G18G15G14G 9
  20983797.168     2164626.38944   1679519.74142  20983798.056    20983790.206
  23998819.610    21988019.75843  17128959.83042  23998820.250    23998816.008
  22273643.055    16325053.27043  12719909.40242  22273644.860    22273640.150
  22025618.436     6770345.46743   5279601.08042  22025620.276    22025613.059
  22917264.557     7051039.77943   5483724.06842  22917266.262    22917261.060
  20400958.295    14069989.44044  10963682.30142  20400959.524    20400954.751
  20426188.635     5054460.73843   3946135.23642  20426190.952    20426184.672
  23567374.406    10936227.40043   8526372.94742  23567376.490    23567372.328
 04  7 24 16 46  0.0000000  0  8G22G21G 3G19G18G15G14G 9
  20991210.155     2203581.95944   1709874.70842  20991211.069    20991203.235
  24018136.332    22089528.73843  17208057.63042  24018136.971    24018132.660
  22286156.103    16390809.85243  12771148.24542  22286157.954    22286153.246
  22022975.287     6756455.62443   5268777.81642  22022977.084    22022969.881
  22931604.830     7126397.96843   5542444.67242  22931606.501    22931601.266
  20409458.579    14114658.66444  10998489.46642  20409459.829    20409455.049
  20420221.383     5023102.54543   3921700.28442  20420223.699    20420217.394
  23572334.277    10962291.62243   8546682.71642  23572336.345    23572332.241
 04  7 24 16 46 30.0000000  0  8G22G21G 3G19G18G15G14G 9
  20998662.661     2242744.78244   1740391.17242  20998663.529    20998655.677
  24037486.669    22191216.18243  17287294.47142  24037487.572    24037483.275
  22298742.619    16456951.98543  12822687.52542  22298744.403    22298739.678
  22020443.468     6743151.21543   5258410.74142  22020445.307    22020438.181
  22945963.383     7201851.75143   5601239.77542  22945964.954    22945959.673
  20418045.098    14159780.93744  11033649.65842  20418046.344    20418041.576
  20414357.279     4992286.46643   3897687.76042  20414359.602    20414353.280
  23577410.582    10988967.95043   8567469.44842  23577412.659    23577408.699
 04  7 24 16 47  0.0000000  0  8G22G21G 3G19G18G15G14G 9
  21006155.141     2282117.62744   1771071.29642  21006155.995    21006148.115
  24056871.606    22293084.50443  17366672.26342  24056872.627    24056868.269
  22311402.472    16523480.24743  12874527.68142  22311404.275    22311399.667
  22018023.847     6730435.84443   5248502.65442  22018025.667    22018018.524
  22960340.429     7277403.63943   5660111.32742  22960342.105    22960336.841
  20426718.378    14205359.43444  11069165.35042  20426719.661    20426714.920
  20408597.064     4962016.32343   3874100.64242  20408599.387    20408593.067
  23582603.965    11016258.96643   8588735.16942  23582606.074    23582602.007
 04  7 24 16 47 30.0000000  0  8G22G21G 3G19G18G15G14G 9
  21013687.137     2321698.44744   1801913.47942  21013687.976    21013680.128
  24076290.184    22395130.38643  17446188.39642  24076291.551    24076287.087
  22324135.238    16590390.79443  12926665.71342  22324136.931    22324132.372
  22015716.035     6718308.33643   5239052.63942  22015717.854    22015710.789
  22974735.760     7353051.52543   5719057.68542  22974737.559    22974732.262
  20435478.185    14251392.40044  11105035.16842  20435479.450    20435474.732
  20402940.496     4932290.96343   3850938.03342  20402942.846    20402936.507
  23587913.865    11044162.70143   8610478.30042  23587915.933    23587911.944
 04  7 24 16 48  0.0000000  0  8G22G21G 3G19G18G15G14G 9
  21021259.126     2361489.62544   1832919.57542  21021259.989    21021252.141
  24095743.138    22497356.06043  17525844.63342  24095744.561    24095740.278
  22336940.655    16657684.06543  12979101.97642  22336942.401    22336937.894
  22013520.815     6706772.36443   5230063.56442  22013522.573    22013515.588
  22989150.007     7428798.13343   5778080.95642  22989151.701    22989146.444
  20444325.018    14297882.74944  11141261.39542  20444326.276    20444321.576
  20397388.294     4903113.86743   3828202.64542  20397390.643    20397384.281
  23593340.858    11072681.88043   8632701.02642  23593342.990    23593338.949
 04  7 24 16 48 30.0000000  0  8G22G21G 3G19G18G15G14G 9
  21028869.370     2401481.94744   1864082.40842  21028870.265    21028862.428
  24115228.442    22599751.59443  17605633.21042  24115229.914    24115225.494
  22349816.924    16725349.11043  13031827.94242  22349818.675    22349814.192
  22011436.605     6695819.77843   5221529.06942  22011438.337    22011431.371
  23003581.322     7504634.45443   5837174.13942  23003583.068    23003577.652
  20453257.287    14344821.81544  11177837.26842  20453258.496    20453253.828
  20391938.814     4874476.59343   3805887.89342  20391941.159    20391934.776
  23598883.264    11101807.33443   8655396.16142  23598885.345    23598881.294
 04  7 24 16 49  0.0000000  0  8G22G21G 3G19G18G15G14G 9
  21036519.388     2441682.91144   1895407.81642  21036520.250    21036512.430
  24134747.396    22702323.72443  17685559.40242  24134748.903    24134744.643
  22362765.007    16793391.37243  13084847.82842  22362766.740    22362762.249
  22009464.995     6685458.74043   5213455.52642  22009466.695    22009459.718
  23018030.959     7580567.68743   5896342.82842  23018032.795    23018027.334
  20462276.383    14392217.46444  11214768.92442  20462277.599    20462272.967
  20386593.696     4846387.68443   3784000.43842  20386596.056    20386589.651
  23604542.479    11131546.35843   8678569.40442  23604544.558    23604540.562
 04  7 24 16 49 30.0000000  0  8G22G21G 3G19G18G15G14G 9
  21044208.231     2482087.90244   1926892.21042  21044209.062    21044201.296
  24154298.914    22805067.09543  17765619.01942  24154300.447    24154296.315
  22375783.576    16861804.35443  13138156.59642  22375785.378    22375780.831
  22007605.246     6675685.56243   5205840.05342  22007606.906    22007599.986
  23032498.254     7656593.67543   5955583.80742  23032500.025    23032494.623
  20471381.589    14440065.41044  11252053.01942  20471382.791    20471378.155
  20381352.152     4818843.30343   3762537.29542  20381354.533    20381348.116
  23610317.533    11161894.26443   8702217.09942  23610319.667    23610315.525
 04  7 24 16 50  0.0000000  0  8G22G21G 3G19G18G15G14G 9
  21051936.334     2522699.31544   1958537.45242  21051937.199    21051929.422
  24173883.421    22907983.59343  17845813.54042  24173884.832    24173880.845
  22388872.862    16930588.68443  13191754.72842  22388874.653    22388870.138
  22005857.954     6666503.47643   5198685.16842  22005859.654    22005852.666
  23046983.696     7732714.93643   6014899.00242  23046985.459    23046980.026
  20480573.350    14488368.43244  11289691.72242  20480574.583    20480569.932
  20376214.927     4791846.86043   3741501.11142  20376217.250    20376210.847
  23616208.877    11192853.37943   8726341.05542  23616210.981    23616206.934
 04  7 24 16 50 30.0000000  0  8G22G21G 3G19G18G15G14G 9
  21059702.359     2563510.09944   1990338.04442  21059703.264    21059695.463
  24193499.808    23011065.54743  17926136.98642  24193500.647    24193496.848
  22402031.163    16999735.56743  13245635.36142  22402032.917    22402028.380
  22004222.041     6657906.65843   5191986.33542  22004223.737    22004216.775
  23061486.101     7808924.75543   6074283.22542  23061487.784    23061482.209
  20489850.459    14537119.92844  11327679.88542  20489851.712    20489847.046
  20371180.738     4765392.27743   3720887.15442  20371183.082    20371176.700
  23622215.201    11224416.62843   8750935.77142  23622217.339    23622213.271
 04  7 24 16 51  0.0000000  0  8G22G21G 3G19G18G15G14G 9
  21067507.875     2604528.46744   2022300.38642  21067508.800    21067501.048
  24213148.341    23114320.40343  18006595.14042  24213149.416    24213145.907
  22415259.560    17069251.01243  13299803.19042  22415261.331    22415256.791
  22002699.170     6649903.86243   5185750.37642  22002700.864    22002693.929
  23076006.728     7885231.11643   6133742.66442  23076008.470    23076002.905
  20499214.520    14586328.33644  11366024.07342  20499215.757    20499211.127
  20366251.401     4739488.45443   3700702.36142  20366253.717    20366247.331
  23628338.048    11256592.20243   8776007.60142  23628340.110    23628336.202
 04  7 24 16 51 30.0000000  0  9G22G21G 3G19G18G15G14G11G 9
  21075351.547     2645746.99844   2054418.70242  21075352.462    21075344.714
  24232828.550    23217739.95243  18087181.63742  24232829.438    24232825.998
  22428556.292    17139125.51243  13354250.80042  22428558.087    22428553.503
  22001288.080     6642488.76543   5179972.36342  22001289.792    22001282.888
  23090544.425     7961627.00243   6193271.87942  23090546.127    23090540.534
  20508664.172    14635986.75644  11404718.92742  20508665.459    20508660.822
  20361425.617     4714128.94243   3680941.70442  20361427.938    20361421.573
  24620761.101    -2929589.91353  -2269737.34052  24620763.617    24620758.237
  23634575.902    11289372.43943   8801550.60842  23634577.976    23634574.038
 04  7 24 16 52  0.0000000  0  9G22G21G 3G19G18G15G14G11G 9
  21083233.089     2687164.69444   2086692.21042  21083234.031    21083226.248
  24252540.109    23321322.66643  18167895.29842  24252540.503    24252537.131
  22441920.787    17209356.29343  13408976.02642  22441922.568    22441918.057
  21999988.805     6635660.88943   5174651.92842  21999990.508    21999983.587
  23105098.919     8038111.55443   6252870.17942  23105100.705    23105095.161
  20518199.330    14686094.07544  11443763.56442  20518200.592    20518195.942
  20356703.403     4689313.46743   3661604.97542  20356705.712    20356699.344
  24601649.733    -3030020.32643  -2347994.76542  24601652.436    24601646.868
  23640928.754    11322756.23943   8827563.92942  23640930.794    23640926.784
 04  7 24 16 52 30.0000000  0  9G22G21G 3G19G18G15G14G11G 9
  21091153.009     2728784.05644   2119122.85842  21091153.959    21091146.167
  24272282.754    23425070.25943  18248737.42242  24272283.115    24272279.689
  22455353.176    17279943.73143  13463979.17642  22455354.971    22455350.423
  21998801.993     6629423.67543   5169791.74042  21998803.683    21998796.690
  23119670.995     8114687.65943   6312539.81542  23119672.719    23119667.244
  20527820.481    14736653.43544  11483160.45442  20527821.722    20527817.078
  20352085.341     4665045.35143   3642694.75442  20352087.647    20352081.283
  24582551.100    -3130384.71343  -2426200.74942  24582553.595    24582548.097
  23647396.766    11356745.99143   8854049.40042  23647398.793    23647394.824
 04  7 24 16 53  0.0000000  0  9G22G21G 3G19G18G15G14G11G 9
  21099111.984     2770608.33744   2151713.18742  21099112.893    21099105.083
  24292056.888    23528985.11143  18329709.87342  24292057.409    24292054.279
  22468853.605    17350888.96343  13519261.12542  22468855.454    22468850.903
  21997728.218     6623780.85243   5165394.72142  21997729.931    21997722.910
  23134260.897     8191358.28443   6372283.12042  23134262.736    23134257.282
  20537528.279    14787668.24644  11522912.23342  20537529.529    20537524.897
  20347572.220     4641328.68643   3624214.24242  20347574.532    20347568.134
  24563465.946    -3230677.24743  -2504350.77042  24563468.410    24563463.100
  23653980.679    11391344.36943   8881009.15042  23653982.685    23653978.665
 04  7 24 16 53 30.0000000  0  9G22G21G 3G19G18G15G14G11G 9
  21107108.485     2812630.32644   2184457.56942  21107109.432    21107101.646
  24311861.725    23633059.28743  18410806.45642  24311862.344    24311859.264
  22482420.470    17422182.80643  13574814.71342  22482422.280    22482417.773
  21996766.334     6618726.02943   5161455.88242  21996768.045    21996761.037
  23148867.591     8268116.27743   6432094.49042  23148869.289    23148863.940
  20547321.408    14839131.37244  11563013.34342  20547322.627    20547317.998
  20343162.713     4618156.61043   3606158.08042  20343165.034    20343158.635
  24544393.551    -3330902.81943  -2582448.59442  24544396.040    24544390.750
  23660678.981    11426544.08743   8908437.46942  23660681.022    23660677.006
 04  7 24 16 54  0.0000000  0  9G22G21G 3G19G18G15G14G11G 9
  21115142.567     2854849.54944   2217355.63642  21115143.454    21115135.688
  24331696.657    23737291.93243  18492026.54042  24331697.363    24331694.212
  22496053.134    17493823.11043  13630638.26942  22496055.022    22496050.549
  21995916.396     6614259.46243   5157975.42242  21995918.103    21995911.136
  23163490.586     8344961.44943   6491973.77442  23163492.474    23163487.164
  20557199.836    14891042.80544  11603463.78642  20557201.054    20557196.415
  20338856.911     4595529.52343   3588526.59142  20338859.241    20338852.837
  24525334.384    -3431059.13643  -2660492.44542  24525336.920    24525331.630
  23667491.495    11462344.51443   8936333.90242  23667493.577    23667489.584
 04  7 24 16 54 30.0000000  0  9G22G21G 3G19G18G15G14G11G 9
  21123214.565     2897267.82044   2250408.81942  21123215.433    21123207.614
  24351561.668    23841683.71243  18573370.60042  24351562.636    24351559.181
  22509751.733    17565809.33443  13686731.37742  22509753.620    22509749.122
  21995178.870     6610383.66943   5154955.31142  21995180.583    21995173.638
  23178130.823     8421895.78943   6551922.56042  23178132.655    23178127.243
  20567163.915    14943404.43044  11644265.02742  20567165.137    20567160.530
  20334655.300     4573449.94043   3571321.72342  20334657.638    20334651.251
  24506289.293    -3531141.99643  -2738479.05042  24506291.769    24506286.456
  23674418.617    11498746.86943   8964699.34842  23674420.722    23674416.736
 04  7 24 16 55  0.0000000  0  9G22G21G 3G19G18G15G14G11G 9
  21131323.664     2939881.25144   2283614.06342  21131324.526    21131316.717
  24371456.624    23946230.32943  18654835.30442  24371457.589    24371453.969
  22523515.047    17638135.75243  13743089.56442  22523516.924    22523512.414
  21994553.205     6607095.53943   5152393.11842  21994554.883    21994547.939
  23192787.314     8498915.75443   6611938.06842  23192789.126    23192783.670
  20577213.071    14996212.83744  11685414.41042  20577214.278    20577209.671
  20330557.339     4551915.03043   3554541.27842  20330559.678    20330553.284
  24487258.055    -3631152.35843  -2816409.21142  24487260.474    24487255.049
  23681459.681    11535747.31743   8993530.85842  23681461.725    23681457.803
 04  7 24 16 55 30.0000000  0  9G22G21G 3G19G18G15G14G11G 9
  21139470.801     2982694.73244   2316975.19642  21139471.661    21139463.888
  24391381.435    24050935.60543  18736423.68342  24391382.419    24391379.269
  22537343.549    17710804.83743  13799714.78142  22537345.430    22537340.953
  21994040.289     6604400.02243   5150292.70242  21994041.991    21994034.972
  23207461.007     8576026.13543   6672024.02042  23207462.834    23207457.354
  20587348.053    15049472.84544  11726915.70342  20587349.327    20587344.720
  20326563.981     4530929.84743   3538189.19142  20326566.321    20326559.944
  24468241.800    -3731083.53243  -2894277.61142  24468244.300    24468238.894
  23688615.329    11573350.15143   9022831.75442  23688617.419    23688613.257
 04  7 24 16 56  0.0000000  0  9G22G21G 3G19G18G15G14G11G 9
  21147655.222     3025704.08044   2350488.95442  21147656.092    21147648.327
  24411335.909    24155794.68543  18818131.88542  24411336.834    24411333.567
  22551236.174    17783810.68743  13856602.38942  22551237.980    22551233.531
  21993639.379     6602293.68943   5148651.39742  21993641.149    21993634.182
  23222151.187     8653222.99743   6732177.36042  23222152.999    23222147.446
  20597568.342    15103180.29244  11768765.63142  20597569.555    20597564.959
  20322674.560     4510490.82943   3522262.68842  20322676.914    20322670.512
  24449240.520    -3830936.80143  -2972085.32142  24449242.980    24449237.427
  23695884.510    11611550.63143   9052598.33442  23695886.510    23695882.635
 04  7 24 16 56 30.0000000  0  9G22G21G 3G19G18G15G14G11G 9
  21155876.470     3068907.08544   2384153.61442  21155877.360    21155869.591
  24431318.806    24260804.63543  18899957.66842  24431319.969    24431316.652
  22565191.983    17857148.68043  13913748.82542  22565193.777    22565189.347
  21993350.400     6600774.84243   5147467.86742  21993352.127    21993345.119
  23236857.401     8730504.40743   6792396.57842  23236859.227    23236853.684
  20607873.249    15157333.07944  11810962.58042  20607874.501    20607869.909
  20318888.774     4490596.29643   3506760.46442  20318891.108    20318884.710
  24430253.764    -3930712.03843  -3049832.20842  24430256.385    24430250.752
  23703267.197    11650346.11243   9082828.57442  23703269.163    23703265.172
 04  7 24 16 57  0.0000000  0  8G22G 3G19G18G15G14G11G 9
  21164139.644     3112330.43344   2417989.97542  21164140.559    21164132.775
  22579215.674    17930843.49143  13971173.29042  22579217.432    22579213.068
  21993178.364     6599870.62943   5146763.27842  21993180.049    21993173.083
  23251584.649     8807896.96343   6852702.42142  23251586.507    23251581.120
  20618268.133    15211958.28544  11853527.65742  20618269.355    20618264.711
  20315211.766     4471273.58143   3491703.81242  20315214.121    20315207.726
  24411287.612    -4030380.15443  -3127495.62842  24411290.184    24411284.548
  23710767.747    11689762.75443   9113542.82342  23710769.827    23710765.917
 04  7 24 16 57 30.0000000  0  8G22G 3G19G18G15G14G11G 9
  21172434.559     3155920.43044   2451956.18942  21172435.472    21172427.708
  22593296.665    18004839.28343  14028832.30342  22593298.467    22593294.059
  21993113.147     6599527.84843   5146496.16542  21993114.821    21993107.871
  23266322.935     8885347.19643   6913053.16842  23266324.770    23266319.446
  20628742.703    15267002.34544  11896419.10542  20628743.919    20628739.224
  20311633.471     4452469.40843   3477051.21542  20311635.827    20311629.375
  24392332.052    -4129991.83343  -3205115.08942  24392334.699    24392329.075
  23718376.515    11729746.45043   9144698.94442  23718378.408    23718374.574
 04  7 24 16 58  0.0000000  0  8G22G 3G19G18G15G14G11G 9
  21180767.040     3199707.69944   2486076.11642  21180767.925    21180760.174
  22607440.314    18079164.50643  14086748.00942  22607442.141    22607437.711
  21993160.682     6599777.37843   5146690.58742  21993162.352    21993155.360
  23281078.180     8962885.88543   6973472.87842  23281079.945    23281074.598
  20639302.768    15322495.81644  11939660.73642  20639303.983    20639299.292
  20308159.788     4434214.83043   3462826.87442  20308162.113    20308155.644
  24373393.698    -4229514.37443  -3282665.09942  24373396.205    24373390.553
  23726098.778    11770327.03043   9176320.15442  23726100.732    23726096.856
 04  7 24 16 58 30.0000000  0  8G22G 3G19G18G15G14G11G 9
  21189136.224     3243687.82844   2520346.32742  21189137.102    21189129.335
  22621645.493    18153813.10043  14144915.68242  22621647.342    22621642.974
  21993320.198     6600615.52243   5147343.67542  21993321.887    21993314.850
  23295849.326     9040508.93743   7033958.31842  23295851.167    23295845.796
  20649947.550    15378434.51344  11983249.31242  20649948.780    20649944.091
  20304789.963     4416506.31143   3449028.03842  20304792.321    20304785.825
  24354471.808    -4328949.24543  -3360146.77642  24354474.431    24354468.657
  23733933.647    11811499.84643   9208402.86342  23733935.708    23733931.696
 04  7 24 16 59  0.0000000  0  8G22G 3G19G18G15G14G11G 9
  21197541.705     3287858.87344   2554765.31042  21197542.604    21197534.827
  22635911.337    18228780.49843  14203331.78342  22635913.196    22635908.847
  21993591.326     6602040.30343   5148453.88542  21993593.023    21993585.985
  23310636.215     9118214.18943   7094507.79242  23310637.973    23310632.672
  20660676.652    15434816.15244  12027183.02542  20660677.873    20660673.178
  20301523.674     4399341.81043   3435653.10642  20301526.026    20301519.510
  24335566.521    -4428296.39543  -3437560.10342  24335569.169    24335563.641
  23741880.761    11853262.09043   9240944.86942  23741882.913    23741878.810
 04  7 24 16 59 30.0000000  0  8G22G 3G19G18G15G14G11G 9
  21205984.130     3332224.00744   2589335.52842  21205985.032    21205977.234
  22650238.163    18304067.92143  14261997.26042  22650239.951    22650235.610
  21993974.812     6604055.61343   5150024.23742  21993976.522    21993969.470
  23325439.459     9196005.03343   7155124.00042  23325441.224    23325435.763
  20671490.726    15491644.44344  12071464.78642  20671491.961    20671487.245
  20298361.646     4382725.26643   3422705.15342  20298363.997    20298357.479
  24316678.874    -4527549.91943  -3514900.46342  24316681.724    24316676.316
  23749940.580    11895616.37543   9273948.18242  23749942.753    23749938.584
 04  7 24 17  0  0.0000000  0  8G22G 3G19G18G15G14G11G 9
  21214462.507     3376778.11644   2624052.99842  21214463.396    21214455.630
  22664624.366    18379667.86843  14320906.24742  22664626.114    22664621.850
  21994469.828     6606656.64443   5152050.99842  21994471.546    21994464.478
  23340258.025     9273876.56143   7215803.05142  23340259.796    23340254.324
  20682388.826    15548914.04844  12116090.42942  20682390.056    20682385.304
  20295303.022     4366651.98843   3410180.52442  20295305.346    20295298.843
  24297808.753    -4626712.09243  -3592169.66142  24297811.510    24297806.276
  23758111.848    11938556.87543   9307408.28142  23758114.105    23758109.927
 04  7 24 17  0 30.0000000  0  8G22G 3G19G18G15G14G11G 9
  21222977.251     3421523.35544   2658919.40242  21222978.155    21222970.401
  22679070.096    18455580.33143  14380058.76242  22679071.856    22679067.558
  21995076.685     6609845.46043   5154535.77042  21995078.369    21995071.343
  23355092.371     9351831.55643   7276547.15142  23355094.153    23355088.744
  20693371.264    15606627.01944  12161061.55442  20693372.487    20693367.743
  20292348.149     4351124.25343   3398080.99442  20292350.518    20292344.006
  24278957.235    -4725778.37343  -3669364.15642  24278959.675    24278954.547
  23766395.035    11982085.17743   9341326.44942  23766397.240    23766393.115
 04  7 24 17  1  0.0000000  0  8G22G 3G19G18G15G14G11G 9
  21231528.318     3466459.68544   2693934.70642  21231529.252    21231521.504
  22693574.871    18531803.10743  14439453.06542  22693576.612    22693572.327
  21995795.424     6613622.42643   5157478.84242  21995797.108    21995790.144
  23369942.567     9429869.49443   7337355.87142  23369944.332    23369938.942
  20704438.005    15664783.11744  12206377.96942  20704439.245    20704434.490
  20289497.201     4336142.28743   3386406.73742  20289499.527    20289493.027
  24260124.101    -4824746.32643  -3746481.99542  24260126.677    24260121.573
  23774789.900    12026200.32843   9375701.87142  23774792.018    23774787.988
 04  7 24 17  1 30.0000000  0  8G22G 3G19G18G15G14G11G 9
  21240115.356     3511584.94144   2729097.22642  21240116.304    21240108.548
  22708137.880    18608331.87743  14499085.81642  22708139.626    22708135.340
  21996625.685     6617985.59143   5160878.69242  21996627.362    21996620.477
  23384808.267     9507988.49543   7398227.77942  23384809.963    23384804.523
  20715588.654    15723380.12244  12252037.95442  20715589.897    20715585.169
  20286749.769     4321704.55043   3375156.55842  20286752.119    20286745.615
  24241309.980    -4923615.67043  -3823523.01642  24241312.462    24241307.176
  23783295.833    12070899.60843   9410532.45342  23783298.036    23783293.908
 04  7 24 17  2  0.0000000  0  8G22G 3G19G18G15G14G11G 9
  21248738.104     3556897.61444   2764405.78642  21248739.045    21248731.289
  22722758.405    18685163.12243  14558954.27042  22722760.139    22722755.946
  21997567.283     6622933.91043   5164734.50842  21997568.982    21997562.154
  23399689.085     9586187.25943   7459161.83842  23399690.786    23399685.341
  20726822.998    15782416.81444  12298040.54542  20726824.236    20726819.535
  20284105.713     4307809.98443   3364329.62842  20284108.045    20284101.580
  24222514.806    -5022385.25543  -3900486.28442  24222517.208    24222511.892
  23791912.506    12116180.74343   9445816.43042  23791914.706    23791910.674
 04  7 24 17  2 30.0000000  0  8G22G 3G19G18G15G14G11G 9
  21257396.636     3602398.27544   2799860.82942  21257397.562    21257389.803
  22737436.163    18762294.82143  14619056.82142  22737437.883    22737433.675
  21998620.310     6628467.69743   5169046.52842  21998622.011    21998615.207
  23414585.080     9664466.31443   7520158.44342  23414586.899    23414581.484
  20738141.021    15841893.29144  12344385.82742  20738142.251    20738137.579
  20281565.127     4294459.00643   3353926.27742  20281567.439    20281560.994
  24203739.187    -5121051.87643  -3977369.33142  24203741.621    24203736.231
  23800639.925    12162043.12943   9481553.31742  23800642.127    23800637.902
 04  7 24 17  3  0.0000000  0  8G22G 3G19G18G15G14G11G 9
  21266091.180     3648088.39044   2835463.50142  21266092.089    21266084.371
  22752170.954    18839726.42543  14679393.06642  22752172.688    22752168.430
  21999785.096     6634588.62243   5173816.05642  21999786.808    21999779.990
  23429496.700     9742827.47043   7581219.03442  23429498.557    23429493.157
  20749543.080    15901811.08344  12391074.98542  20749544.260    20749539.608
  20279128.308     4281653.30043   3343947.80842  20279130.587    20279124.155
  24184984.001    -5219611.54143  -4054169.01442  24184986.342    24184980.948
  23809478.026    12208487.82643   9517743.99242  23809480.158    23809476.069
 04  7 24 17  3 30.0000000  0  8G22G 3G19G18G15G14G11G 9
  21274820.691     3693962.32644   2871209.40542  21274821.576    21274813.870
  22766961.244    18917449.84143  14739956.70942  22766962.991    22766958.792
  22001060.517     6641291.11643   5179038.75242  22001062.267    22001055.425
  23444422.999     9821265.15143   7642339.26442  23444424.846    23444419.406
  20761027.857    15962164.24444  12438103.39842  20761029.102    20761024.482
  20276794.246     4269387.67143   3334390.18342  20276796.537    20276790.055
  24166248.435    -5318067.39743  -4130887.84442  24166250.750    24166245.368
  23818425.828    12255508.32743   9554383.33142  23818427.958    23818423.897
 04  7 24 17  4  0.0000000  0  8G22G 3G19G18G15G14G11G 9
  21283586.559     3740027.19044   2907104.08842  21283587.430    21283579.753
  22781807.940    18995469.74543  14800751.38342  22781809.720    22781805.557
  22002448.004     6648582.25143   5184720.12742  22002449.716    22002442.924
  23459365.228     9899786.54443   7703524.71942  23459367.072    23459361.655
  20772596.928    16022959.94643  12485476.64742  20772598.146    20772593.567
  20274564.303     4257669.38043   3325259.05042  20274566.616    20274560.145
  24147534.326    -5416410.02043  -4207518.42342  24147536.769    24147531.316
  23827484.281    12303110.88043   9591476.19242  23827486.352    23827482.454
 04  7 24 17  4 30.0000000  0  8G22G 3G19G18G15G14G11G 9
  21292387.612     3786276.99444   2943142.87942  21292388.478    21292380.847
  22796709.581    19073778.27943  14861770.95942  22796711.363    22796707.288
  22003946.452     6656456.39243   5190855.79642  22003948.125    22003941.328
  23474322.159     9978386.06743   7764771.05942  23474324.031    23474318.662
  20784249.014    16084191.98843  12533189.90642  20784250.212    20784245.681
  20272437.395     4246492.50143   3316549.79842  20272439.718    20272433.242
  24128841.243    -5514642.76943  -4284063.37342  24128843.624    24128838.132
  23836652.066    12351288.24443   9629016.99542  23836654.294    23836650.257
 04  7 24 17  5  0.0000000  0  8G22G 3G19G18G15G14G11G 9
  21301223.329     3832708.97244   2979323.62142  21301224.183    21301216.595
  22811665.198    19152370.58943  14923011.66642  22811667.001    22811663.024
  22005555.217     6664910.61243   5197443.47642  22005556.939    22005550.149
  23489293.470    10057060.98743   7826076.14542  23489295.323    23489290.079
  20795983.529    16145857.33243  12581240.79242  20795984.758    20795980.245
  20270413.040     4235854.47043   3308260.43242  20270415.356    20270408.878
  24110169.011    -5612765.64743  -4360522.73542  24110171.461    24110165.992
  23845928.615    12400036.67543   9667002.79242  23845930.760    23845926.820
 04  7 24 17  5 30.0000000  0  8G22G 3G19G18G15G14G11G 9
  21310094.559     3879327.60744   3015649.81342  21310095.432    21310087.853
  22826675.277    19231248.81743  14984475.15742  22826677.008    22826673.092
  22007275.307     6673949.43443   5204486.68342  22007276.990    22007270.205
  23504280.202    10135815.94143   7887443.60342  23504282.025    23504276.657
  20807801.445    16207960.61643  12629632.93542  20807802.615    20807798.127
  20268492.120     4225759.86443   3300394.50842  20268494.422    20268487.933
  24091519.123    -5710771.37843  -4436890.78942  24091521.500    24091516.135
  23855314.468    12449360.06643   9705436.55342  23855316.603    23855312.744
 04  7 24 17  6  0.0000000  0  8G22G 3G19G18G15G14G11G 9
  21319000.726     3926129.58644   3052118.87942  21319001.609    21318994.026
  22841738.583    19310406.99143  15046156.78242  22841740.314    22841736.506
  22009105.910     6683569.24943   5211982.62042  22009107.628    22009100.805
  23519281.233    10214647.64243   7948870.84642  23519283.142    23519277.838
  20819701.876    16270497.85943  12678363.22342  20819703.075    20819698.626
  20266673.988     4216205.50343   3292949.55542  20266676.296    20266669.787
  24072891.177    -5808660.99043  -4513168.37042  24072893.660    24072888.368
  23864808.874    12499253.77043   9744314.76842  23864811.162    23864807.297
 04  7 24 17  6 30.0000000  0  8G22G 3G19G18G15G14G11G 9
  21327941.807     3973115.19844   3088731.02942  21327942.673    21327935.104
  22856854.866    19389843.24943  15108055.10642  22856856.587    22856852.747
  22011047.177     6693770.46943   5219931.59642  22011048.899    22011042.058
  23534297.121    10293556.65043   8010358.33742  23534298.993    23534293.800
  20831685.006    16333469.35643  12727431.88942  20831686.162    20831681.731
  20264958.717     4207191.82643   3285925.91742  20264961.052    20264954.545
  24054286.016    -5906431.78743  -4589353.37342  24054288.281    24054283.096
  23874411.785    12549717.28543   9783636.96442  23874414.024    23874410.243
 04  7 24 17  7  0.0000000  0  8G22G 3G19G18G15G14G11G 9
  21336917.536     4020283.02844   3125485.17042  21336918.424    21336910.828
  22872023.355    19469553.86743  15170167.21642  22872025.069    22872021.174
  22013098.749     6704551.52743   5228332.39542  22013100.475    22013093.631
  23549327.617    10372541.66743   8071905.05742  23549329.474    23549324.252
  20843750.444    16396873.32243  12776837.55142  20843751.572    20843747.152
  20263346.106     4198717.43043   3279322.49842  20263348.435    20263341.928
  24035703.826    -6004082.25543  -4665444.63342  24035706.021    24035700.770
  23884122.684    12600748.02743   9823401.14542  23884124.815    23884120.948
 04  7 24 17  7 30.0000000  0  8G22G 3G19G18G15G14G11G 9
  21345927.875     4067632.36944   3162380.75342  21345928.737    21345921.115
  22887243.524    19549535.86743  15232490.79542  22887245.231    22887241.322
  22015260.520     6715911.70443   5237184.45742  22015262.278    22015255.433
  23564372.165    10451602.15943   8133510.57242  23564374.086    23564369.046
  20855897.911    16460708.80443  12826579.46042  20855899.092    20855894.668
  20261835.933     4190781.61043   3273138.74942  20261838.289    20261831.787
  24017144.636    -6101610.86543  -4741440.90342  24017146.943    24017141.712
  23893941.166    12652344.37243   9863606.08342  23893943.315    23893939.333
 04  7 24 17  8  0.0000000  0  8G22G 3G19G18G15G14G11G 9
  21354972.906     4115164.13244   3199418.47842  21354973.746    21354966.140
  22902515.024    19629787.73743  15295024.64742  22902516.731    22902512.809
  22017532.616     6727851.53343   5246488.19042  22017534.347    22017527.493
  23579431.550    10530739.13343   8195175.69942  23579433.373    23579428.377
  20868127.731    16524976.41843  12876658.08842  20868128.834    20868124.410
  20260428.492     4183385.37343   3267375.45242  20260430.835    20260424.330
  23998609.539    -6199014.02643  -4817339.45442  23998611.826    23998606.419
  23903867.444    12704505.91043   9904251.40842  23903869.523    23903865.435
 04  7 24 17  8 30.0000000  0  8G22G 3G19G18G15G14G11G 9
  21364052.870     4162879.68544   3236599.41442  21364053.710    21364046.119
  22917837.642    19710308.49243  15357768.02442  22917839.320    22917835.434
  22019915.187     6740372.00143   5256244.37142  22019916.923    22019910.077
  23594505.778    10609953.88143   8256901.40342  23594507.584    23594502.591
  20880439.847    16589677.09143  12927074.16842  20880440.988    20880436.546
  20259123.877     4176529.65743   3262033.33642  20259126.243    20259119.739
  23980099.045    -6296287.75043  -4893137.13342  23980101.275    23980095.781
  23913900.836    12757232.78243   9945337.24842  23913902.938    23913899.041
 04  7 24 17  9  0.0000000  0  9G22G 3G19G18G15G14G11G 9G25
  21373164.024     4210759.04644   3273908.00142  21373164.832    21373157.268
  22933207.188    19791075.77343  15420703.50042  22933208.910    22933205.041
  22022404.502     6753453.12843   5266437.42842  22022406.208    22022399.399
  23609590.803    10689226.89743   8318672.53542  23609592.786    23609587.771
  20892830.530    16654790.41443  12977811.79442  20892831.654    20892827.220
  20257918.401     4170194.74043   3257097.04342  20257920.750    20257914.245
  23961609.824    -6393449.53443  -4968847.60242  23961612.112    23961606.544
  23924038.153    12810503.87343   9986847.15742  23924040.220    23924036.202
  24501967.955    -3284084.04353  -2511723.42152  24501970.680    24501969.535
 04  7 24 17  9 30.0000000  0  9G22G 3G19G18G15G14G11G 9G25
  21382312.285     4258833.42144   3311368.54742  21382313.132    21382305.484
  22948629.197    19872118.40143  15483853.54642  22948630.918    22948626.986
  22025006.373     6767125.91643   5277091.52342  22025008.053    22025001.299
  23624693.041    10768589.35543   8380513.36142  23624694.930    23624690.071
  20905305.627    16720347.31443  13028895.05042  20905306.712    20905302.312
  20256817.928     4164411.73343   3252590.80842  20256820.270    20256813.773
  23943148.271    -6490465.31543  -5044444.28942  23943150.595    23943144.960
  23934284.690    12864349.04043  10028804.39742  23934286.714    23934282.496
  24482824.031    -3384686.31643  -2590114.71442  24482826.828    24482825.420
 04  7 24 17 10  0.0000000  0  9G22G 3G19G18G15G14G11G 9G25
  21391494.783     4307087.70344   3348969.27942  21391495.637    21391488.001
  22964100.266    19953419.11843  15547204.68642  22964102.009    22964098.102
  22027717.926     6781374.98643   5288194.66942  22027719.563    22027712.844
  23639809.463    10848026.45443   8442412.33442  23639811.372    23639806.503
  20917862.223    16786332.69043  13080312.19642  20917863.338    20917858.935
  20255819.570     4159165.44243   3248502.79342  20255821.919    20255815.427
  23924712.107    -6587347.83543  -5119937.13842  23924714.597    23924708.860
  23944637.284    12918752.22043  10071196.43242  23944639.271    23944635.209
  24463675.652    -3485312.26643  -2668524.43842  24463678.150    24463676.833
 04  7 24 17 10 30.0000000  0  9G22G 3G19G18G15G14G11G 9G25
  21400711.380     4355521.54344   3386709.92242  21400712.273    21400704.690
  22979619.880    20034975.07343  15610754.70542  22979621.633    22979617.693
  22030538.939     6796199.29943   5299746.05742  22030540.570    22030533.828
  23654940.082    10927537.71043   8504369.09942  23654941.960    23654936.987
  20930500.206    16852745.55343  13132062.44342  20930501.318    20930496.911
  20254923.270     4154455.30443   3244832.56042  20254925.610    20254919.123
  23906301.618    -6684095.15243  -5195324.63642  23906304.090    23906298.454
  23955095.696    12973711.52543  10114021.84342  23955097.755    23955093.695
  24444523.007    -3585959.30943  -2746950.56342  24444525.554    24444524.279
 04  7 24 17 11  0.0000000  0  9G22G 3G19G18G15G14G11G 9G25
  21409961.930     4404133.33543   3424589.23642  21409962.807    21409955.234
  22995187.335    20116782.23543  15674500.48442  22995189.069    22995185.129
  22033469.064     6811597.02443   5311744.25642  22033470.712    22033463.895
  23670084.450    11007121.64743   8566382.49142  23670086.320    23670081.315
  20943219.118    16919583.71743  13184144.09842  20943220.237    20943215.831
  20254128.672     4150279.61843   3241578.78242  20254131.017    20254124.504
  23887917.226    -6780706.14443  -5270605.91542  23887919.569    23887914.009
  23965659.445    13029224.22243  10157278.43442  23965661.466    23965657.467
  24425366.633    -3686626.16143  -2825392.14542  24425369.060    24425367.775
 04  7 24 17 11 30.0000000  0  9G22G 3G19G18G15G14G11G 9G25
  21419246.780     4452925.41044   3462609.02942  21419247.649    21419240.041
  23010802.568    20198840.69443  15738442.07942  23010804.332    23010800.433
  22036508.720     6827570.35843   5324190.98642  22036510.375    22036503.538
  23685243.171    11086781.00043   8628454.66642  23685244.984    23685239.865
  20956019.368    16986849.40043  13236558.89242  20956020.545    20956016.079
  20253436.173     4146640.58943   3238743.18342  20253438.523    20253432.017
  23869559.635    -6877175.64243  -5345776.92142  23869561.996    23869556.678
  23976328.731    13085291.55843  10200967.24642  23976330.786    23976326.742
  24406207.556    -3787306.85943  -2903844.53342  24406209.826    24406208.564
 04  7 24 17 12  0.0000000  0  9G22G 3G19G18G15G14G11G 9G25
  21428565.068     4501893.52643   3500765.98642  21428565.975    21428558.386
  23026464.367    20281143.74643  15802574.25042  23026466.095    23026462.311
  22039656.917     6844114.35043   5337082.37542  22039658.617    22039651.813
  23700415.369    11166511.45843   8690582.24042  23700417.249    23700412.103
  20968900.083    17054537.67443  13289302.96642  20968901.240    20968896.763
  20252844.948     4143533.67043   3236322.21142  20252847.277    20252840.771
  23851228.729    -6973505.41643  -5420839.05742  23851231.114    23851225.722
  23987102.452    13141907.87343  10245083.82842  23987104.389    23987100.662
  24387045.672    -3888002.39043  -2982308.53742  24387047.900    24387046.520
 04  7 24 17 12 30.0000000  0  9G22G 3G19G18G15G14G11G 9G25
  21437917.104     4551038.73444   3539060.94442  21437917.983    21437910.422
  23042172.474    20363689.97043  15866895.90842  23042174.182    23042170.367
  22042913.897     6861229.60443   5350418.91142  22042915.550    22042908.802
  23715601.340    11246313.97943   8752765.94342  23715603.258    23715598.085
  20981861.289    17122649.19743  13342376.84942  20981862.450    20981857.988
  20252355.108     4140959.58843   3234316.43642  20252357.431    20252350.927
  23832925.003    -7069692.08143  -5495789.69442  23832927.433    23832921.919
  23997980.492    13199072.61443  10289627.76742  23997982.434    23997978.749
  24367881.396    -3988709.06943  -3060781.19842  24367883.985    24367882.299
 04  7 24 17 13  0.0000000  0  9G22G 3G19G18G15G14G11G 9G25
  21447302.977     4600361.61844   3577494.34942  21447303.829    21447296.274
  23057926.488    20446477.55943  15931405.63442  23057928.180    23057924.385
  22046279.615     6878916.60643   5364200.96142  22046281.285    22046274.563
  23730801.306    11326189.47043   8815006.52842  23730803.167    23730797.962
  20994903.132    17191184.26543  13395780.75742  20994904.243    20994899.807
  20251966.775     4138918.87143   3232726.27142  20251969.104    20251962.588
  23814649.105    -7165732.33043  -5570626.21442  23814651.481    23814646.036
  24008962.904    13256785.22043  10334598.59842  24008964.872    24008961.032
  24348716.391    -4089422.47643  -3139259.09342  24348718.624    24348717.073
 04  7 24 17 13 30.0000000  0  9G22G 3G19G18G15G14G11G 9G25
  21456722.083     4649859.55943   3616064.16542  21456722.988    21456715.447
  23073725.432    20529501.41143  15996099.48142  23073727.135    23073723.386
  22049753.506     6897171.91643   5378425.84942  22049755.180    22049748.480
  23746014.358    11406135.53743   8877302.09742  23746016.350    23746011.417
  21008024.859    17260139.47843  13449512.05542  21008026.004    21008021.566
  20251679.420     4137408.77643   3231549.58042  20251681.748    20251675.214
  23796401.115    -7261626.09843  -5645348.62642  23796403.529    23796397.972
  24020048.807    13315041.63543  10379993.21042  24020050.814    24020046.848
  24329550.056    -4190142.58543  -3217742.16542  24329552.144    24329550.560
 04  7 24 17 14  0.0000000  0  9G22G 3G19G18G15G14G11G 9G25
  21466174.600     4699532.72744   3654770.51142  21466175.492    21466167.959
  23089568.982    20612759.39443  16060975.76542  23089570.705    23089566.856
  22053335.517     6915995.41243   5393093.48042  22053337.203    22053330.538
  23761241.381    11486152.86543   8939653.17942  23761243.251    23761238.337
  21021226.566    17329514.57843  13503570.54542  21021227.678    21021223.230
  20251492.979     4136429.09143   3230786.19542  20251495.322    20251488.773
  23778181.480    -7357370.59543  -5719954.69742  23778183.846    23778178.293
  24031237.977    13373840.70943  10425810.65042  24031239.952    24031235.973
  24310383.304    -4290865.70943  -3296227.60242  24310385.299    24310383.437
 04  7 24 17 14 30.0000000  0  9G22G 3G19G18G15G14G11G 9G25
  21475660.821     4749382.97244   3693614.84142  21475661.720    21475654.181
  23105456.947    20696251.04643  16126034.10442  23105458.703    23105454.880
  22057025.874     6935388.06043   5408204.60942  22057027.544    22057020.837
  23776482.072    11566243.10743   9002061.07642  23776483.887    23776479.030
  21034508.371    17399310.76743  13557957.15642  21034509.466    21034505.056
  20251407.791     4135981.42743   3230437.36942  20251410.147    20251403.597
  23759991.048    -7452961.21043  -5794440.85942  23759993.487    23759987.999
  24042530.337    13433182.80743  10472051.24142  24042532.455    24042528.387
  24291216.723    -4391586.68043  -3374711.37942  24291218.850    24291216.885
 04  7 24 17 15  0.0000000  0  9G22G 3G19G18G15G14G11G 9G25
  21485180.153     4799407.41544   3732594.90942  21485181.066    21485173.528
  23121388.305    20779970.81343  16191270.24142  23121390.102    23121386.190
  22060823.929     6955346.60743   5423756.69342  22060825.576    22060818.829
  23791736.102    11646403.25743   9064523.44742  23791738.038    23791733.116
  21047869.601    17469524.57443  13612669.18242  21047870.736    21047866.360
  20251423.141     4136062.12343   3230500.25542  20251425.487    20251418.943
  23741829.826    -7548398.56843  -5868807.62442  23741832.386    23741826.749
  24053925.247    13493063.52243  10518711.50542  24053927.451    24053923.369
  24272050.602    -4492305.76343  -3453193.69542  24272052.734    24272050.656
 04  7 24 17 15 30.0000000  0  9G22G 3G19G18G15G14G11G 9G25
  21494731.668     4849600.95543   3771706.74942  21494732.579    21494725.027
  23137361.619    20863911.03143  16256678.11442  23137363.463    23137359.577
  22064728.467     6975864.99143   5439745.01342  22064730.143    22064723.353
  23807002.593    11726628.58543   9127036.60442  23807004.370    23806999.625
  21061309.299    17540150.45343  13667702.29942  21061310.419    21061306.038
  20251538.041     4136666.03543   3230970.83942  20251540.410    20251533.851
  23723697.293    -7643685.33443  -5943057.02142  23723699.762    23723694.216
  24065421.404    13553476.01243  10565786.14842  24065423.520    24065419.528
  24252884.413    -4593024.84443  -3531676.00242  24252886.598    24252884.452
 04  7 24 17 16  0.0000000  0  9G22G 3G19G18G15G14G11G 9G25
  21504317.791     4899976.37543   3810960.30842  21504318.724    21504311.135
  23153379.020    20948082.45943  16322266.15942  23153380.777    23153376.943
  22068741.870     6996955.61543   5456179.23542  22068743.592    22068736.796
  23822283.588    11806931.93343   9189610.58042  23822285.492    23822280.790
  21074829.698    17611200.60743  13723066.02142  21074830.810    21074826.468
  20251754.946     4137805.76843   3231858.94542  20251757.292    20251750.732
  23705596.438    -7738805.81943  -6017176.85842  23705598.812    23705593.316
  24077020.830    13614431.76743  10613284.13642  24077022.980    24077019.043
  24233721.271    -4693727.63743  -3610145.65242  24233723.493    24233721.406
 04  7 24 17 16 30.0000000  0  9G22G 3G19G18G15G14G11G 9G25
  21513935.988     4950520.45043   3850345.28442  21513936.933    21513929.373
  23169437.353    21032469.20543  16388021.99542  23169439.122    23169435.286
  22072861.497     7018604.59943   5473048.54342  22072863.213    22072856.493
  23837577.315    11887300.02943   9252235.00042  23837579.135    23837574.443
  21088428.213    17682661.18843  13778749.56042  21088429.346    21088424.994
  20252071.103     4139467.32143   3233153.66442  20252073.471    20252066.909
  23687525.283    -7833770.71743  -6091175.45842  23687527.650    23687522.009
  24088721.019    13675915.96143  10661193.85642  24088723.087    24088719.082
  24214559.133    -4794424.35443  -3688610.52442  24214561.550    24214559.479
 04  7 24 17 17  0.0000000  0  9G22G 3G19G18G15G14G11G 9G25
  21523587.198     5001237.66243   3889865.17142  21523588.095    21523580.546
  23185537.237    21117073.46543  16453947.31842  23185538.945    23185535.001
  22077088.201     7040815.81843   5490355.95642  22077089.885    22077083.185
  23852884.091    11967737.52843   9314913.47942  23852885.853    23852881.308
  21102105.569    17754536.23843  13834756.04542  21102106.704    21102102.403
  20252487.457     4141655.14043   3234858.45542  20252489.786    20252483.238
  23669485.246    -7928572.80843  -6165047.19642  23669487.546    23669481.861
  24100522.341    13737931.60743  10709517.69542  24100524.323    24100520.242
  24195399.639    -4895107.05943  -3767064.49842  24195402.244    24195400.188
 04  7 24 17 17 30.0000000  0  9G22G 3G19G18G15G14G11G 9G25
  21533271.240     5052127.24843   3929519.37342  21533272.100    21533264.533
  23201677.658    21201891.82243  16520039.47042  23201679.377    23201675.391
  22081421.594     7063587.67143   5508100.22742  22081423.241    22081416.586
  23868204.160    12048244.11443   9377645.82942  23868205.860    23868201.274
  21115861.573    17826824.25043  13891084.32942  21115862.649    21115858.425
  20253003.654     4144367.93543   3236972.32542  20253006.007    20252999.449
  23651476.205    -8023210.52343  -6238790.86542  23651478.639    23651472.876
  24112424.148    13800476.39643  10758253.86642  24112426.191    24112422.204
  24176243.545    -4995773.52343  -3845505.78842  24176245.817    24176243.986
 04  7 24 17 18  0.0000000  0  9G22G 3G19G18G15G14G11G 9G25
  21542988.488     5103191.66343   3969309.80642  21542989.364    21542981.761
  23217858.849    21286924.13643  16586298.34142  23217860.612    23217856.589
  22085861.979     7086921.81843   5526282.65642  22085863.620    22085856.956
  23883537.667    12128822.18143   9440433.83842  23883539.374    23883534.879
  21129696.408    17899526.90343  13947735.70342  21129697.496    21129693.294
  20253620.160     4147607.61443   3239496.74942  20253622.510    20253615.961
  23633499.472    -8117678.76843  -6312402.46742  23633501.940    23633496.226
  24124426.751    13863551.13543  10807402.97442  24124428.766    24124424.943
  24157091.493    -5096418.26643  -3923930.17742  24157093.603    24157091.810
 04  7 24 17 18 30.0000000  0  9G22G 3G19G18G15G14G11G 9G25
  21552737.163     5154421.66543   4009229.26742  21552738.073    21552730.562
  23234078.473    21372158.74343  16652714.82742  23234080.288    23234076.324
  22090407.380     7110808.26143   5544895.44042  22090409.046    22090402.419
  23898883.132    12209462.36943   9503270.25642  23898884.839    23898880.164
  21143608.430    17972634.41643  14004702.56642  21143609.463    21143605.234
  20254335.012     4151364.16843   3242423.93642  20254337.347    20254330.810
  23615553.611    -8211984.15343  -6385887.17342  23615556.172    23615550.478
  24136528.455    13927144.80943  10856956.42542  24136530.504    24136526.515
  24137942.047    -5197047.06143  -4002342.15042  24137944.342    24137942.778
 04  7 24 17 19  0.0000000  0  9G22G 3G19G18G15G14G11G 9G25
  21562519.413     5205827.45943   4049285.71642  21562520.255    21562512.806
  23250338.000    21457603.53343  16719295.10442  23250339.908    23250336.003
  22095059.733     7135256.41443   5563945.92042  22095061.403    22095054.735
  23914242.401    12290175.17943   9566163.28242  23914244.076    23914239.334
  21157599.199    18046156.21643  14061992.24442  21157600.274    21157596.010
  20255150.104     4155647.54943   3245761.63542  20255152.445    20255145.906
  23597641.447    -8306113.62243  -6459234.79842  23597643.944    23597638.245
  24148730.039    13991265.97043  10906920.92842  24148732.186    24148728.412
  24118798.017    -5297646.75443  -4080731.44042  24118800.598    24118799.195
 04  7 24 17 19 30.0000000  0  9G22G 3G19G18G15G14G11G 9G25
  21572333.382     5257400.14943   4089472.20942  21572334.213    21572326.826
  23266635.665    21543247.08743  16786030.26442  23266637.413    23266633.483
  22099817.073     7160256.41843   5583426.41642  22099818.758    22099812.099
  23929613.882    12370952.07143   9629106.21542  23929615.686    23929610.726
  21171666.990    18120082.57243  14119597.16042  21171668.041    21171663.743
  20256063.657     4160448.34943   3249502.51842  20256065.997    20256059.484
  23579761.479    -8400073.73543  -6532450.46342  23579763.901    23579758.246
  24161030.430    14055904.15143  10957288.30342  24161032.445    24161028.708
  24099658.637    -5398222.87143  -4159102.35442  24099661.496    24099660.059
 04  7 24 17 20  0.0000000  0  9G22G 3G19G18G15G14G11G 9G25
  21582180.568     5309147.53043   4129794.82042  21582181.422    21582174.028
  23282971.783    21629094.91743  16852924.57642  23282973.676    23282969.914
  22104680.742     7185815.31743   5603342.41542  22104682.467    22104675.795
  23944998.945    12451800.67643   9692105.05642  23945000.703    23944995.798
  21185813.047    18194420.63443  14177522.88842  21185814.139    21185809.826
  20257077.066     4165773.87943   3253652.27942  20257079.397    20257072.882
  23561915.644    -8493854.05743  -6605526.02342  23561918.158    23561912.438
  24173429.971    14121065.47343  11008063.35842  24173432.053    24173428.675
  24080526.248    -5498764.71943  -4237446.57342  24080528.801    24080527.383
 04  7 24 17 20 30.0000000  0  9G22G 3G19G18G15G14G11G 9G25
  21592059.545     5361061.82143   4170247.49042  21592060.389    21592052.967
  23299345.111    21715136.36343  16919969.78242  23299346.914    23299343.177
  22109649.192     7211924.33243   5623687.07442  22109650.866    22109644.216
  23960396.215    12532713.62543   9755154.00642  23960397.938    23960392.968
  21200035.855    18269161.66743  14235762.62542  21200036.950    21200032.558
  20258188.719     4171615.55543   3258204.23342  20258191.042    20258184.485
  23544102.977    -8587460.00843  -6678465.71842  23544105.516    23544099.791
  24185927.517    14186740.18343  11059238.42642  24185929.579    24185925.978
  24061399.585    -5599276.91343  -4315767.73242  24061401.909    24061400.494
 04  7 24 17 21  0.0000000  0  9G22G 3G19G18G15G14G11G 9G25
  21601970.595     5413144.63343   4210831.48242  21601971.457    21601963.999
  23315755.035    21801370.68443  16987165.26542  23315756.848    23315753.186
  22114722.448     7238584.35743   5644461.10242  22114724.139    22114717.539
  23975805.922    12613692.25043   9818254.15942  23975807.558    23975802.771
  21214335.520    18344307.03143  14294317.42742  21214336.665    21214332.276
  20259398.748     4177974.46143   3263159.22242  20259401.097    20259394.556
  23526324.410    -8680887.06643  -6751266.02242  23526326.945    23526321.138
  24198522.716    14252928.43843  11110813.64942  24198524.808    24198521.185
  24042279.452    -5699754.40743  -4394061.85342  24042281.813    24042280.064
 04  7 24 17 21 30.0000000  0  9G22G 3G19G18G15G14G11G 9G25
  21611914.165     5465398.11243   4251548.45642  21611914.995    21611907.541
  23332201.457    21887797.48843  17054510.71642  23332203.342    23332199.707
  22119900.756     7265796.22443   5665665.12942  22119902.424    22119895.829
  23991228.573    12694738.98143   9881407.36042  23991230.210    23991225.569
  21228712.350    18419857.85843  14353188.16842  21228713.505    21228709.160
  20260707.556     4184852.19443   3268518.49342  20260709.890    20260703.338
  23508580.726    -8774130.62743  -6823923.32742  23508583.314    23508577.427
  24211215.732    14319630.36543  11162789.14342  24211217.903    24211214.048
  24023166.889    -5800192.04943  -4472324.95042  24023169.132    24023167.274
 04  7 24 17 22  0.0000000  0  9G22G 3G19G18G15G14G11G 9G25
  21621889.142     5517817.14843   4292394.43542  21621890.017    21621882.578
  23348683.231    21974408.99243  17122000.10942  23348685.078    23348681.493
  22125182.914     7293554.01043   5687294.54742  22125184.584    22125178.005
  24006663.486    12775848.82643   9944609.74542  24006665.010    24006660.506
  21243165.244    18495808.32243  14412370.31942  21243166.399    21243162.106
  20262114.068     4192243.23643   3274277.74642  20262116.347    20262109.826
  23490871.549    -8867193.37643  -6896439.75242  23490874.008    23490868.136
  24224005.339    14386839.18343  11215159.60942  24224007.483    24224003.621
  24004061.528    -5900591.73643  -4550558.48042  24004063.833    24004061.598
 04  7 24 17 22 30.0000000  0  9G22G 3G19G18G15G14G11G 9G25
  21631896.588     5570406.46043   4333373.09142  21631897.467    21631889.987
  23365200.438    22061207.33743  17189635.09642  23365202.333    23365198.751
  22130569.674     7321861.47543   5709352.28642  22130571.329    22130564.722
  24022111.047    12857026.55343  10007865.01842  24022112.739    24022108.182
  21257694.927    18572162.21943  14471866.81742  21257696.077    21257691.834
  20263618.921     4200151.30643   3280439.87642  20263621.201    20263614.688
  23473198.119    -8960067.72543  -6968809.37942  23473200.549    23473194.659
  24236891.572    14454557.75143  11267927.29142  24236893.892    24236890.192
  23984964.995    -6000945.62043  -4628756.30142  23984967.176    23984964.809
 04  7 24 17 23  0.0000000  0  9G22G 3G19G18G15G14G11G 9G25
  21641935.525     5623161.31243   4374480.74642  21641936.361    21641928.898
  23381751.837    22148185.43943  17257410.13742  23381753.743    23381750.232
  22136059.905     7350712.78843   5731833.80742  22136061.589    22136054.950
  24037570.785    12938267.63643  10071169.65542  24037572.496    24037567.962
  21272300.349    18648913.92743  14531673.29542  21272301.465    21272297.251
  20265221.121     4208571.05543   3287000.71942  20265223.411    20265216.918
  23455560.133    -9052755.84443  -7041033.88242  23455562.641    23455556.836
  24249873.872    14522779.34143  11321086.92242  24249875.930    24249872.358
  23965876.798    -6101255.27943  -4706919.66642  23965878.848    23965876.457
 04  7 24 17 23 30.0000000  0  9G22G 3G19G18G15G14G11G 9G25
  21652006.426     5676083.89943   4415719.10242  21652007.205    21651999.718
  23398337.517    22235343.02643  17325325.04642  23398339.382    23398335.788
  22141653.877     7380109.13143   5754740.02042  22141655.568    22141648.962
  24053042.931    13019574.27143  10134525.34742  24053044.723    24053040.140
  21286981.701    18726064.99043  14591790.96842  21286982.822    21286978.673
  20266921.025     4217504.17343   3293961.58842  20266923.332    20266916.849
  23437958.476    -9145253.07343  -7113109.61142  23437960.964    23437955.167
  24262951.877    14591504.58343  11374639.03142  24262954.041    24262950.356
  23946798.078    -6201515.32143  -4785044.31242  23946800.061    23946797.572
 04  7 24 17 24  0.0000000  0  9G22G 3G19G18G15G14G11G 9G25
  21662109.050     5729173.89243   4457087.89842  21662109.907    21662102.448
  23414956.803    22322677.33243  17393377.65142  23414958.615    23414954.998
  22147351.326     7410049.02943   5778069.79042  22147352.994    22147346.353
  24068527.559    13100946.29143  10197932.00842  24068529.329    24068524.898
  21301738.875    18803614.05343  14652218.77242  21301739.960    21301735.837
  20268718.420     4226949.44043   3301321.53642  20268720.724    20268714.229
  23420393.739    -9237556.91643  -7185034.70042  23420396.170    23420390.245
  24276125.313    14660731.36143  11428581.94842  24276127.498    24276123.765
  23927729.289    -6301722.38343  -4863127.65242  23927731.124    23927728.833
 04  7 24 17 24 30.0000000  0  9G22G 3G19G18G15G14G11G 9G25
  21672243.768     5782431.86943   4498587.59542  21672244.571    21672237.125
  23431609.170    22410186.07843  17461566.18342  23431610.979    23431607.451
  22153152.038     7440532.01943   5801822.74442  22153153.732    22153147.116
  24084024.673    13182384.19143  10261389.98442  24084026.442    24084022.218
  21316571.688    18881560.59643  14712956.30342  21316572.780    21316568.608
  20270613.174     4236906.45543   3309080.24642  20270615.491    20270608.997
  23402866.319    -9329664.19543  -7256806.61042  23402868.680    23402862.796
  24289393.688    14730457.94443  11482914.37442  24289395.866    24289392.304
  23908671.109    -6401873.31843  -4941167.22342  23908673.015    23908670.897
 04  7 24 17 25  0.0000000  0  9G22G 3G19G18G15G14G11G 9G25
  21682409.921     5835855.42643   4540216.31542  21682410.772    21682403.321
  23448293.690    22497864.50243  17529886.93242  23448295.522    23448292.106
  22159055.449     7471554.47243   5825996.07042  22159057.117    22159050.545
  24099534.027    13263885.96243  10324897.74342  24099535.834    24099531.647
  21331479.478    18959901.64843  14774001.23442  21331480.634    21331476.450
  20272604.788     4247372.38243   3317235.51242  20272607.107    20272600.593
  23385376.265    -9421574.75743  -7328425.20642  23385378.677    23385372.844
  24302756.724    14800680.27643  11537633.04642  24302758.890    24302755.242
  23889623.541    -6501967.23043  -5019162.35142  23889625.707    23889623.677
 04  7 24 17 25 30.0000000  0  8G22G 3G19G18G15G14G11G25
  21692607.160     5889442.16243   4581972.18242  21692608.013    21692600.564
  23465009.858    22585707.42743  17598335.86642  23465011.510    23465008.247
  22165060.794     7503112.71843   5850586.88442  22165062.452    22165055.889
  24115055.178    13345449.21243  10388453.38942  24115056.822    24115052.830
  21346461.762    19038633.68843  14835350.83642  21346462.871    21346458.689
  20274692.620     4258344.01843   3325784.83642  20274694.944    20274688.435
  23367923.717    -9513288.55343  -7399890.49942  23367926.147    23367920.310
  23870587.132    -6602003.77943  -5097112.79242  23870589.339    23870587.271
 04  7 24 17 26  0.0000000  0  8G22G 3G19G18G15G14G11G25
  21702836.637     5943198.11243   4623859.90642  21702837.500    21702830.009
  23481757.955    22673718.49343  17666915.83542  23481759.579    23481756.213
  22171168.955     7535211.75943   5875599.10542  22171170.643    22171164.138
  24130589.163    13427079.85843  10452061.57342  24130590.774    24130586.726
  21361519.383    19117761.73743  14897009.01142  21361520.486    21361516.258
  20276877.665     4269826.40543   3334732.14842  20276879.973    20276873.435
  23350510.143    -9604797.09243  -7471195.85842  23350512.645    23350506.760
  23851563.403    -6701973.18243  -5175010.92742  23851565.687    23851563.651
 04  7 24 17 26 30.0000000  0  8G22G 3G19G18G15G14G11G25
  21713096.501     5997113.99343   4665872.25342  21713097.392    21713089.858
  23498535.715    22761885.98943  17735617.67542  23498537.401    23498534.098
  22177378.112     7567841.07243   5901024.51742  22177379.800    22177373.308
  24146134.362    13508768.90843  10515715.25342  24146135.949    24146131.799
  21376650.382    19197275.90143  14958968.05842  21376651.571    21376647.314
  20279157.969     4281809.67743   3344069.75942  20279160.295    20279153.774
  23333134.448    -9696107.14243  -7542346.53742  23333136.962    23333130.987
  23832551.278    -6801881.60343  -5252861.47042  23832553.626    23832551.792
 04  7 24 17 27  0.0000000  0  8G22G 3G19G18G15G14G11G25
  21723388.552     6051198.49043   4708015.98942  21723389.400    21723381.829
  23515344.328    22850216.05243  17804446.20542  23515346.121    23515342.780
  22183689.557     7601007.94543   5926868.81442  22183691.228    22183684.795
  24161691.991    13590525.16143  10579421.30742  24161693.700    24161689.558
  21391856.341    19277183.92343  15021234.02142  21391857.541    21391853.311
  20281535.121     4294301.53643   3353803.67142  20281537.422    20281530.893
  23315798.670    -9787207.03843  -7613333.46342  23315801.193    23315795.199
  23813553.064    -6901717.05943  -5330655.17242  23813555.485    23813553.741
 04  7 24 17 27 30.0000000  0  8G22G 3G19G18G15G14G11G25
  21733710.860     6105442.54543   4750284.05742  21733711.724    21733704.141
  23532181.780    22938696.99043  17873392.31042  23532183.559    23532180.290
  22190101.343     7634702.02543   5953123.91042  22190102.998    22190096.621
  24177260.896    13672339.49243  10643172.59642  24177262.535    24177258.364
  21407135.465    19357475.62843  15083798.93842  21407136.553    21407132.339
  20284007.113     4307292.02243   3363926.12242  20284009.427    20284002.881
  23298501.665    -9878103.22543  -7684161.64242  23298504.145    23298498.267
  23794567.706    -7001485.73043  -5408396.90742  23794570.196    23794568.253
 04  7 24 17 28  0.0000000  0  8G22G 3G19G18G15G14G11G25
  21744064.709     6159852.49743   4792681.39742  21744065.578    21744058.045
  23549048.762    23027332.85243  17942459.10942  23549050.338    23549047.163
  22196614.437     7668928.62143   5979793.95442  22196616.135    22196609.745
  24192841.971    13754218.47643  10706974.31442  24192843.675    24192839.430
  21422488.572    19438156.55943  15146667.15942  21422489.634    21422485.434
  20286575.106     4320786.78543   3374441.51642  20286577.427    20286570.846
  23281245.260    -9968786.78743  -7754824.16242  23281247.699    23281241.766
  23775597.070    -7101178.21443  -5486079.25042  23775599.289    23775597.235
 04  7 24 17 28 30.0000000  0  8G22G 3G19G18G15G14G11G25
  21754449.644     6214425.24543   4835205.59142  21754450.478    21754442.932
  23565944.036    23116117.59743  18011641.93042  23565945.663    23565942.420
  22203228.149     7703683.44043   6006875.60542  22203229.797    22203223.348
  24208434.844    13836159.01443  10770823.95042  24208436.523    24208432.349
  21437914.910    19519222.40443  15209835.29842  21437915.935    21437911.790
  20289238.252     4334781.80543   3385346.71842  20289240.567    20289234.028
  23264029.028   -10059258.43243  -7825321.54242  23264031.481    23264025.534
  23756640.745    -7200794.41843  -5563702.09942  23756642.950    23756640.771
 04  7 24 17 29  0.0000000  0  8G22G 3G19G18G15G14G11G25
  21764865.201     6269159.27943   4877855.46042  21764866.090    21764858.559
  23582866.963    23205047.18343  18080937.62842  23582868.626    23582865.276
  22209941.755     7738963.46343   6034366.50542  22209943.413    22209936.985
  24224039.197    13918159.98343  10834720.73942  24224040.927    24224036.679
  21453413.981    19600670.65143  15273301.41942  21453415.012    21453410.944
  20291996.162     4349274.74243   3396639.91242  20291998.476    20291991.941
  23246853.430   -10149516.73743  -7895652.67342  23246855.839    23246849.974
  23737699.183    -7300332.45543  -5641264.06342  23737701.475    23737699.218
 04  7 24 17 29 30.0000000  0  8G22G 3G19G18G15G14G11G25
  21775312.479     6324060.11443   4920635.30642  21775313.368    21775305.869
  23599817.835    23294124.75443  18150348.63142  23599819.652    23599816.373
  22216756.012     7774772.69843   6062269.78042  22216757.702    22216751.264
  24239656.075    14000226.71143  10898668.68642  24239657.714    24239653.652
  21468986.746    19682505.58443  15337068.85042  21468987.729    21468983.709
  20294849.664     4364270.04343   3408324.55842  20294851.999    20294845.460
  23229719.981   -10239553.89843  -7965811.49342  23229722.372    23229716.445
  23718774.096    -7399783.82343  -5718758.48342  23718776.477    23718774.112
 04  7 24 17 30  0.0000000  0  8G22G 3G19G18G15G14G11G25
  21785789.932     6379119.57943   4963538.76742  21785790.827    21785783.373
  23616795.038    23383339.34443  18219866.40742  23616796.808    23616793.403
  22223669.258     7811101.44943   6090577.87142  22223670.893    22223664.429
  24255283.950    14082351.38943  10962661.85142  24255285.556    24255281.395
  21484631.354    19764718.29843  15401130.64442  21484632.351    21484628.331
  20297797.082     4379758.73543   3420393.66642  20297799.409    20297792.875
  23212627.546   -10329375.41743  -8035802.27542  23212629.955    23212623.968
  23699864.551    -7499153.44643  -5796189.20142  23699867.032    23699864.558
 04  7 24 17 30 30.0000000  0  8G22G 3G19G18G15G14G11G25
  21796298.631     6434342.98343   5006569.95742  21796299.469    21796292.069
  23633798.620    23472693.71043  18289493.08542  23633800.417    23633797.091
  22230681.997     7847953.61743   6119293.81642  22230683.657    22230677.204
  24270923.650    14164538.96743  11026703.97242  24270925.414    24270921.172
  21500348.641    19847313.04843  15465490.14042  21500349.673    21500345.659
  20300839.156     4395744.86643   3432850.38242  20300841.486    20300834.931
  23195577.657   -10418973.37043  -8105618.85142  23195580.044    23195574.046
  23680972.289    -7598432.88143  -5873549.64742  23680974.714    23680972.243
 04  7 24 17 31  0.0000000  0  8G22G 3G19G18G15G14G11G25
  21806838.022     6489727.62743   5049726.79642  21806838.870    21806831.404
  23650827.787    23562182.82143  18359224.77542  23650829.635    23650826.393
  22237793.614     7885325.27043   6148414.56242  22237795.300    22237788.800
  24286574.937    14246786.89243  11090793.18542  24286576.698    24286572.401
  21516137.925    19930286.01043  15530144.33842  21516138.976    21516134.953
  20303975.186     4412224.78443   3445691.87142  20303977.519    20303970.976
  23178570.149   -10508347.96343  -8175261.37942  23178572.623    23178566.594
  23662097.125    -7697621.63643  -5950839.41942  23662099.562    23662097.165
 04  7 24 17 31 30.0000000  0  8G22G 3G19G18G15G14G11G25
  21817408.309     6545274.91443   5093010.35942  21817409.165    21817401.716
  23667882.713    23651805.10943  18429060.22042  23667884.354    23667881.066
  22245004.073     7923216.19143   6177939.91942  22245005.772    22244999.263
  24302238.155    14329096.58743  11154930.46642  24302239.722    24302235.599
  21531999.195    20013637.08543  15595093.16842  21532000.190    21531996.238
  20307205.233     4429198.71943   3458918.30742  20307207.534    20307201.029
  23161605.941   -10597495.32243  -8244726.82542  23161608.420    23161602.434
  23643239.952    -7796715.62243  -6028055.32142  23643242.506    23643240.054
 04  7 24 17 32  0.0000000  0  8G22G 3G19G18G15G14G11G25
  21828008.316     6600978.15843   5136415.45642  21828009.142    21828001.730
  23684960.613    23741551.36743  18498992.24442  23684962.534    23684959.422
  22252311.835     7961618.34343   6207863.64942  22252313.558    22252306.986
  24317911.852    14411462.00443  11219111.16342  24317913.495    24317909.371
  21547930.904    20097358.84543  15660330.84342  21547931.959    21547928.071
  20310527.891     4446659.34843   3472523.98642  20310530.197    20310523.689
  23144684.307   -10686419.31443  -8314018.24442  23144686.729    23144680.819
  23624400.448    -7895718.02143  -6105199.91742  23624402.953    23624400.389
 04  7 24 17 32 30.0000000  0  8G22G 3G19G18G15G14G11G25
  21838639.292     6656844.25743   5179947.45042  21838640.161    21838632.700
  23702063.324    23831426.31943  18569024.56342  23702065.179    23702062.255
  22259717.823     8000537.11943   6238189.93442  22259719.568    22259713.007
  24333597.672    14493890.20143  11283340.79042  24333599.323    24333595.051
  21563934.345    20181457.22343  15725861.99442  21563935.389    21563931.543
  20313944.257     4464612.59543   3486513.52142  20313946.595    20313940.095
  23127806.898   -10775110.43643  -8383128.18742  23127809.377    23127803.510
  23605580.159    -7994618.34043  -6182264.91742  23605582.725    23605580.167
 04  7 24 17 33  0.0000000  0  8G22G 3G19G18G15G14G11G25
  21849300.869     6712871.15343   5223604.74042  21849301.756    21849294.332
  23719189.565    23921425.21243  18639153.45942  23719191.304    23719188.664
  22267221.532     8039968.87943   6268915.95642  22267223.190    22267216.661
  24349294.580    14576378.61143  11347617.35642  24349296.282    24349292.226
  21580008.794    20265928.81643  15791683.96342  21580009.813    21580005.995
  20317453.790     4483055.24543   3500884.40642  20317456.113    20317449.628
  23110974.032   -10863567.92943  -8452056.08142  23110976.519    23110970.596
  23586779.494    -8093415.72543  -6259249.74242  23586782.185    23586779.418
 04  7 24 17 33 30.0000000  0  8G22G 3G19G18G15G14G11G25
  21859992.694     6769057.02643   5267385.90042  21859993.580    21859986.162
  23736338.621    24011543.34343  18709375.26542  23736340.329    23736337.629
  22274822.054     8079910.15343   6300038.99442  22274823.723    22274817.264
  24365002.706    14658925.83643  11411939.68642  24365004.545    24365000.717
  21596153.646    20350770.53743  15857794.33442  21596154.673    21596150.852
  20321055.876     4501984.23943   3515634.26342  20321058.196    20321051.707
  23094185.669   -10951791.35643  -8520801.59542  23094188.122    23094182.204
  23567998.606    -8192109.20543  -6336153.57942  23568001.283    23567998.433
 04  7 24 17 34  0.0000000  0  8G22G 3G19G18G15G14G11G25
  21870715.035     6825403.35643   5311292.09542  21870715.935    21870708.548
  23753510.183    24101779.64843  18779689.12042  23753511.795    23753509.125
  22282519.498     8120360.65443   6331558.83142  22282521.163    22282514.731
  24380722.420    14741532.82343  11476308.64042  24380724.334    24380720.472
  21612369.053    20435982.75143  15924193.40742  21612370.060    21612366.202
  20324750.575     4521399.96743   3530763.38942  20324752.904    20324746.404
  23077442.658   -11039776.70643  -8589361.58242  23077445.086    23077439.226
  23549238.358    -8290693.98843  -6412972.72042  23549241.030    23549238.161
 04  7 24 17 34 30.0000000  0  8G22G 3G19G18G15G14G11G25
  21881467.734     6881908.68143   5355322.18142  21881468.586    21881461.199
  23770703.341    24192129.97443  18850091.83942  23770705.019    23770702.202
  22290313.374     8161317.51843   6363473.23142  22290315.002    22290308.610
  24396453.238    14824198.25843  11540723.14842  24396455.129    24396451.434
  21628654.398    20521562.88843  15990879.16642  21628655.450    21628651.601
  20328537.455     4541300.09643   3546269.96942  20328539.771    20328533.259
  23060745.181   -11127522.61943  -8657734.99442  23060747.581    23060741.691
  23530499.247    -8389168.40143  -6489705.89342  23530501.845    23530498.809
 04  7 24 17 35  0.0000000  0  8G22G 3G19G18G15G14G11G25
  21892250.437     6938571.76143   5399475.19242  21892251.311    21892243.847
  23787917.892    24282590.65043  18920580.54142  23787919.393    23787916.514
  22298202.996     8202777.85043   6395779.95742  22298204.659    22298198.290
  24412195.240    14906921.32743  11605182.49042  24412196.883    24412193.318
  21645009.353    20607508.29943  16057849.56942  21645010.413    21645006.500
  20332415.996     4561681.90843   3562151.88842  20332418.315    20332411.807
  23044093.412   -11215027.84343  -8725920.85542  23044095.863    23044089.970
  23511781.072    -8487530.83243  -6566351.78842  23511783.841    23511780.919
 04  7 24 17 35 30.0000000  0  8G22G 3G19G18G15G14G11G25
  21903063.829     6995396.22543   5443753.95742  21903064.730    21903057.205
  23805153.123    24373162.93443  18991156.22942  23805154.839    23805151.933
  22306188.880     8244743.75143   6428480.62642  22306190.547    22306184.202
  24427948.465    14989705.88543  11669689.78942  24427950.328    24427946.585
  21661434.231    20693821.50343  16125106.54742  21661435.305    21661431.448
  20336386.730     4582548.21043   3578411.33042  20336389.062    20336382.546
  23027488.776   -11302286.29743  -8793914.43042  23027491.180    23027485.266
  23493086.091    -8585774.11343  -6642904.83642  23493088.737    23493085.748
 04  7 24 17 36  0.0000000  0  8G22G 3G19G18G15G14G11G25
  21913906.567     7052375.08743   5488153.03542  21913907.454    21913900.011
  23822408.118    24463837.10443  19061811.32142  23822409.691    23822406.762
  22314269.219     8287206.37243   6461568.35142  22314270.953    22314264.595
  24443712.538    15072544.87643  11734239.57442  24443714.306    24443710.584
  21677927.568    20780494.35743  16192643.77842  21677928.676    21677924.823
  20340448.093     4603890.77343   3595041.88642  20340450.430    20340443.927
  23010930.030   -11389302.39243  -8861719.15142  23010932.533    23010926.623
  23474412.773    -8683902.31543  -6719368.22242  23474415.407    23474412.464
 04  7 24 17 36 30.0000000  0  8G22G 3G19G18G15G14G11G25
  21924779.706     7109513.39243   5532676.35342  21924780.547    21924773.110
  23839682.493    24554615.46643  19132547.57842  23839684.214    23839681.318
  22322444.799     8330168.98243   6495045.68142  22322446.517    22322440.124
  24459487.765    15155443.42843  11798835.67942  24459489.583    24459485.891
  21694490.038    20867530.62343  16260464.18742  21694491.160    21694487.338
  20344600.846     4625713.48243   3612046.57942  20344603.170    20344596.664
  22994418.949   -11476068.46543  -8929329.05342  22994421.430    22994415.556
  23455762.964    -8781907.20043  -6795735.55042  23455765.597    23455762.571
 04  7 24 17 37  0.0000000  0  8G22G 3G19G18G15G14G11G25
  21935682.790     7166809.64943   5577322.75642  21935683.686    21935676.232
  23856976.183    24645494.09343  19203361.96742  23856977.865    23856975.046
  22330714.892     8373628.51543   6528910.21542  22330716.585    22330710.209
  24475273.934    15238400.10043  11863477.05842  24475275.712    24475272.237
  21711121.297    20954927.76743  16328565.79442  21711122.325    21711118.565
  20348844.417     4648013.48743   3629423.19042  20348846.757    20348840.209
  22977955.759   -11562583.03343  -8996742.98942  22977958.197    22977952.317
  23437136.881    -8879787.36143  -6872005.68442  23437139.497    23437136.350
 04  7 24 17 37 30.0000000  0  8G22G 3G19G18G15G14G11G25
  21946615.726     7224262.56543   5622091.22842  21946616.581    21946609.183
  23874288.402    24736468.93143  19274251.33742  23874290.010    23874287.147
  22339078.857     8417581.76643   6563159.47042  22339080.589    22339074.242
  24491070.967    15321413.59043  11928162.74242  24491072.530    24491069.376
  21727820.535    21042683.11843  16396946.52442  21727821.587    21727817.899
  20353178.342     4670788.42343   3647169.87642  20353180.703    20353174.145
  22961540.635   -11648845.10843  -9063960.15842  22961543.084    22961537.140
  23418535.038    -8977540.46643  -6948176.80342  23418537.583    23418534.421
 04  7 24 17 38  0.0000000  0  8G22G 3G19G18G15G14G11G25
  21957578.698     7281873.68143   5666982.97342  21957579.569    21957572.219
  23891618.555    24827539.09743  19345214.97342  23891619.997    23891617.179
  22347536.810     8462028.58243   6597793.31742  22347538.487    22347532.185
  24506879.239    15404485.37343  11992893.86942  24506880.814    24506877.442
  21744588.135    21130796.99243  16465606.61642  21744589.175    21744585.490
  20357602.616     4694038.32643   3665286.66542  20357604.994    20357598.464
  22945174.249   -11734850.77243  -9130977.52742  22945176.704    22945170.766
  23399958.184    -9075161.96043  -7024245.37642  23399960.645    23399957.540
 04  7 24 17 38 30.0000000  0  8G22G 3G19G18G15G14G11G25
  21968571.099     7339638.81643   5711994.73542  21968571.939    21968564.612
  23908965.675    24918697.97143  19416247.77242  23908967.169    23908964.253
  22356087.658     8506963.27443   6632807.32742  22356089.277    22356082.979
  24522697.689    15487611.98143  12057667.69342  24522699.209    24522696.029
  21761422.866    21219263.89043  16534541.80242  21761423.914    21761420.220
  20362116.389     4717758.25943   3683769.71442  20362118.762    20362112.240
  22928856.540   -11820601.24543  -9197796.04942  22928858.986    22928852.973
  23381406.144    -9172653.01743  -7100212.28342  23381408.660    23381405.538
 04  7 24 17 39  0.0000000  0  8G22G 3G19G18G15G14G11G25
  21979593.604     7397562.57543   5757130.11242  21979594.454    21979587.163
  23926329.874    25009947.13043  19487350.88942  23926331.401    23926328.439
  22364731.826     8552388.32843   6668203.44442  22364733.420    22364727.126
  24538527.333    15570797.32243  12122487.29742  24538528.928    24538525.913
  21778325.341    21308086.70743  16603754.31642  21778326.368    21778322.674
  20366720.173     4741951.15543   3702621.30242  20366722.527    20366716.037
  22912588.528   -11906089.82543  -9264410.48242  22912591.026    22912584.978
  23362880.391    -9270006.02843  -7176071.66842  23362882.873    23362879.743
 04  7 24 17 39 30.0000000  0  8G22G 3G19G18G15G14G11G25
  21990645.881     7455642.19043   5802386.92142  21990646.686    21990639.367
  23943710.247    25101281.41543  19558520.34442  23943711.829    23943708.989
  22373468.307     8598299.00643   6703977.96242  22373469.960    22373463.654
  24554367.865    15654038.71043  12187350.58642  24554369.487    24554366.197
  21795294.783    21397261.40843  16673241.03742  21795295.840    21795292.120
  20371413.246     4766613.16443   3721838.43542  20371415.588    20371409.089
  22896370.322   -11991316.52343  -9330820.87042  22896372.892    22896366.801
  23344380.906    -9367220.61743  -7251823.18542  23344383.389    23344380.291
 04  7 24 17 40  0.0000000  0  8G22G 3G19G18G15G14G11G25
  22001727.224     7513874.96543   5847763.08442  22001728.044    22001720.702
  23961105.951    25192695.55643  19629752.01442  23961107.521    23961104.523
  22382296.419     8644690.64943   6740127.25742  22382298.082    22382291.692
  24570218.698    15737333.84443  12252255.73942  24570220.272    24570216.957
  21812330.483    21486784.07043  16742998.90942  21812331.520    21812327.754
  20376194.804     4791740.34243   3741418.03342  20376197.143    20376190.645
  22880202.000   -12076281.52143  -9397027.33642  22880204.526    22880198.475
  23325907.823    -9464296.62243  -7327466.72042  23325910.282    23325907.153
 04  7 24 17 40 30.0000000  0  8G22G 3G19G18G15G14G11G25
  22012838.692     7572265.95443   5893262.52742  22012839.538    22012832.146
  23978517.205    25284191.96943  19701047.81842  23978518.815    23978515.861
  22391216.686     8691566.65443   6776653.97642  22391218.325    22391211.954
  24586080.468    15820687.65543  12317206.58242  24586082.069    24586078.793
  21829432.986    21576658.42943  16813030.81342  21829434.090    21829430.292
  20381065.563     4817336.28643   3761362.90542  20381067.898    20381061.404
  22864084.874   -12160976.86343  -9463023.66442  22864087.426    22864081.438
  23307462.830    -9561225.51743  -7402995.62142  23307465.300    23307462.080
 04  7 24 17 41  0.0000000  0  8G22G 3G19G18G15G14G11G25
  22023979.927     7630813.57943   5938884.02542  22023980.783    22023973.455
  23995943.343    25375766.55843  19772404.52242  23995944.953    23995942.009
  22400228.435     8738923.65543   6813555.50642  22400230.089    22400223.742
  24601953.367    15904098.67643  12382202.02642  24601954.621    24601951.461
  21846601.969    21666881.65843  16883334.57842  21846603.057    21846599.231
  20386025.006     4843398.34543   3781670.98142  20386027.326    20386020.873
  22848019.411   -12245401.83743  -9528809.32242  22848021.900    22848015.894
  23289046.067    -9658005.53443  -7478408.53242  23289048.653    23289045.347
 04  7 24 17 41 30.0000000  0  7G22G 3G19G15G14G11G25
  22035152.778     7689527.04143   5984634.74442  22035153.632    22035146.354
  24013385.340    25467425.67343  19843827.07642  24013387.085    24013384.291
  22409333.066     8786768.69043   6850837.31142  22409334.701    22409328.364
  21863838.723    21757461.33343  16953916.07542  21863839.804    21863836.029
  20391074.610     4869934.05943   3802348.14142  20391076.919    20391070.445
  22832007.464   -12329544.97043  -9594375.36942  22832009.928    22832003.988
  23270659.930    -9754624.87243  -7553696.22442  23270662.533    23270659.201
 04  7 24 17 42  0.0000000  0  7G22G 3G19G15G14G11G25
  22046352.500     7748382.02043   6030495.74042  22046353.389    22046346.152
  24030838.742    25559142.57443  19915294.68542  24030840.374    24030837.561
  22418525.721     8835075.73643   6888479.13142  22418527.311    22418520.932
  21881138.518    21848372.08343  17024755.54942  21881139.550    21881135.819
  20396209.454     4896917.93643   3823374.51442  20396211.760    20396205.328
  22816045.031   -12413427.63343  -9659738.44542  22816047.541    22816041.578
  23252300.535    -9851104.57243  -7628875.11742  23252303.025    23252299.681
 04  7 24 17 42 30.0000000  0  7G22G 3G19G15G14G11G25
  22057581.561     7807390.97643   6076476.70542  22057582.399    22057575.244
  24048304.811    25650927.25843  19986815.07842  24048306.480    24048303.735
  22427808.074     8883855.25343   6926489.11342  22427809.762    22427803.444
  21898503.325    21939624.92343  17095861.59842  21898504.423    21898500.740
  20401431.779     4924361.21343   3844758.86842  20401434.073    20401427.632
  22800135.214   -12497034.49743  -9724886.62842  22800137.703    22800131.697
  23233970.475    -9947429.13943  -7703933.10842  23233972.946    23233969.680
 04  7 24 17 43  0.0000000  0  7G22G 3G19G15G14G11G25
  22068840.078     7866554.97743   6122578.49142  22068840.969    22068833.774
  24065783.468    25742778.09443  20058387.05542  24065785.246    24065782.524
  22437180.238     8933106.17643   6964866.42042  22437181.906    22437175.633
  21915933.223    22031219.43843  17167233.88342  21915934.292    21915930.709
  20406741.406     4952263.48343   3866500.87942  20406743.714    20406737.295
  22784278.403   -12580362.47843  -9789817.48442  22784280.875    22784274.887
  23215670.654   -10043594.47943  -7778867.06742  23215673.177    23215669.864
 04  7 24 17 43 30.0000000  0  7G22G 3G19G15G14G11G25
  22080127.831     7925872.29743   6168799.75742  22080128.662    22080121.520
  24083274.081    25834690.83843  20130007.28242  24083275.892    24083273.117
  22446641.426     8982824.94843   7003608.27442  22446643.085    22446636.810
  21933427.556    22123152.37743  17238869.87642  21933428.595    21933425.061
  20412137.787     4980621.80943   3888598.26042  20412140.117    20412133.730
  22768474.925   -12663410.45143  -9854530.16342  22768477.348    22768471.362
  23197401.597   -10139598.97143  -7853675.67442  23197404.008    23197400.686
 04  7 24 17 44  0.0000000  0  7G22G 3G19G15G14G11G25
  22091445.964     7985349.47443   6215145.57042  22091446.789    22091439.710
  24100776.815    25926669.55543  20201678.89242  24100778.860    24100776.334
  22456192.502     9033016.06243   7042718.19342  22456194.173    22456187.904
  21950987.314    22215429.00243  17310773.66642  21950988.319    21950984.771
  20417621.994     5009441.34043   3911055.01942  20417624.311    20417617.923
  22752726.240   -12746169.72143  -9919017.88742  22752728.732    22752722.668
  23179164.920   -10235433.07843  -7928351.52542  23179167.244    23179163.901
 04  7 24 17 44 30.0000000  0  7G22G 3G19G15G14G11G25
  22102791.911     8044972.78543   6261605.26142  22102792.694    22102785.723
  24118289.461    26018697.59743  20273388.92742  24118291.384    24118288.811
  22465830.479     9083663.68743   7082183.83842  22465832.170    22465825.861
  21968609.446    22308033.93743  17382933.29642  21968610.533    21968606.954
  20423191.041     5038706.75543   3933859.22842  20423193.362    20423186.954
  22737030.653   -12828650.98243  -9983288.97742  22737033.092    22737027.027
  23160958.574   -10331107.67243  -8002903.08142  23160960.892    23160957.552
 04  7 24 17 45  0.0000000  0  7G22G 3G19G15G14G11G25
  22114167.174     8104749.96943   6308184.85542  22114167.973    22114160.990
  24135812.171    26110780.10143  20345141.39442  24135814.108    24135811.675
  22475556.463     9134773.33843   7122009.49342  22475558.139    22475551.748
  21986295.314    22400973.36743  17455353.57342  21986296.387    21986292.792
  20428846.096     5068424.27344   3957015.72242  20428848.409    20428842.019
  22721389.688   -12910844.14843 -10047335.56742  22721392.185    22721386.172
  23142784.686   -10426611.88043  -8077321.85842  23142786.993    23142783.650
 04  7 24 17 45 30.0000000  0  7G22G 3G19G15G14G11G25
  22125571.827     8164681.42543   6354884.66442  22125572.633    22125565.560
  24153344.976    26202915.20843  20416934.84142  24153346.897    24153344.384
  22485369.895     9186343.41243   7162193.92542  22485371.631    22485365.290
  22004044.606    22494246.36643  17528033.75442  22004045.728    22004042.084
  20434587.010     5098593.08843   3980523.88242  20434589.342    20434582.943
  22705804.272   -12992746.26243 -10111155.38442  22705806.710    22705800.594
  23124644.029   -10521941.91643  -8151604.92942  23124646.289    23124642.915
 04  7 24 17 46  0.0000000  0  7G22G 3G19G15G14G11G25
  22137005.630     8224766.53343   6401704.20642  22137006.488    22136999.326
  24170887.284    26295099.48043  20488766.60842  24170889.042    24170886.692
  22495270.584     9238371.39543   7202735.17042  22495272.305    22495265.944
  22021857.032    22587850.97743  17600972.35742  22021858.169    22021854.475
  20440413.431     5129211.04743   4004382.02342  20440415.734    20440409.356
  22690274.607   -13074355.45343 -10174746.94442  22690277.015    22690270.842
  23106536.822   -10617095.33443  -8225750.37742  23106539.139    23106535.741
 04  7 24 17 46 30.0000000  0  7G22G 3G19G15G14G11G25
  22148468.072     8285002.23643   6448641.09642  22148468.982    22148461.746
  24188437.812    26387327.05443  20560632.15042  24188439.584    24188437.047
  22505257.250     9290851.81743   7243628.96642  22505258.982    22505252.690
  22039731.644    22681782.31843  17674165.54242  22039732.759    22039729.070
  20446324.415     5160273.46043   4028586.49642  20446326.725    20446320.353
  22674800.473   -13155672.48343 -10238110.84642  22674802.906    22674796.756
  23088463.213   -10712072.43243  -8299758.41942  23088465.605    23088462.179
 04  7 24 17 47  0.0000000  0  7G22G 3G19G15G14G11G25
  22159959.806     8345391.44143   6495697.59642  22159960.690    22159953.397
  24205996.125    26479598.49843  20632531.86842  24205998.232    24205995.841
  22515330.217     9343785.54843   7284875.98942  22515331.936    22515325.699
  22057668.592    22776041.69343  17747614.35042  22057669.743    22057666.084
  20452320.283     5191781.88143   4053138.50742  20452322.582    20452316.212
  22659382.970   -13236691.72343 -10301242.70242  22659385.429    22659379.273
  23070424.339   -10806867.01243  -8373624.26142  23070426.719    23070423.262
 04  7 24 17 47 30.0000000  0  7G22G 3G19G15G14G11G25
  22171480.144     8405930.90043   6542871.17642  22171481.011    22171473.673
  24223562.331    26571908.03043  20704461.21442  24223564.138    24223562.043
  22525488.502     9397167.35243   7326472.15542  22525490.195    22525483.933
  22075667.294    22870624.91043  17821315.47542  22075668.328    22075664.761
  20458400.152     5223731.80143   4078034.54542  20458402.460    20458396.092
  22644022.073   -13317413.63043 -10364142.86742  22644024.535    22644018.376
  23052420.120   -10901479.39543  -8447348.09942  23052422.458    23052419.084
 04  7 24 17 48  0.0000000  0  7G22G 3G19G15G14G11G25
  22183029.262     8466622.20443   6590163.07142  22183030.172    22183022.908
  24241135.611    26664254.90843  20776419.68042  24241137.282    24241135.127
  22535731.818     9450996.14143   7368416.62142  22535733.485    22535727.257
  22093727.451    22965531.61943  17895268.70142  22093728.475    22093724.990
  20464563.970     5256122.93643   4103274.38342  20464566.292    20464559.935
  22628718.520   -13397834.45243 -10426808.43242  22628720.974    22628714.783
  23034451.521   -10995905.25143  -8520926.65442  23034453.848    23034450.267
 04  7 24 17 48 30.0000000  0  7G22G 3G19G15G14G11G25
  22194607.382     8527465.49243   6637573.39342  22194608.241    22194601.070
  24258715.287    26756636.53343  20848405.20942  24258717.079    24258715.026
  22546059.957     9505270.54343   7410708.31642  22546061.624    22546055.377
  22111848.978    23060760.43843  17969472.91242  22111849.926    22111846.532
  20470811.548     5288954.18543   4128857.17042  20470813.867    20470807.520
  22613472.798   -13477951.44443 -10489237.23242  22613475.211    22613469.096
  23016518.966   -11090141.10543  -8594357.08742  23016521.313    23016517.742
 04  7 24 17 49  0.0000000  0  7G22G 3G19G15G14G11G25
  22206213.988     8588458.43943   6685100.33242  22206214.849    22206207.690
  24276300.617    26849047.61943  20920413.73742  24276302.572    24276300.169
  22556471.947     9559985.47243   7453343.29342  22556473.544    22556467.296
  22130031.068    23156307.54543  18043925.12042  22130031.963    22130028.608
  20477142.100     5322221.50043   4154779.74842  20477144.412    20477138.086
  22598284.910   -13557764.28343 -10551429.04042  22598287.357    22598281.170
  22998622.741   -11184186.12443  -8667638.85642  22998625.092    22998621.502
 04  7 24 17 49 30.0000000  0  7G22G 3G19G15G14G11G25
  22217850.245     8649607.43143   6732748.86142  22217851.105    22217843.957
  24293892.433    26941492.24943  20992448.37042  24293894.163    24293891.731
  22566968.467     9615145.26743   7496324.90042  22566970.109    22566963.887
  22148274.611    23252177.51143  18118628.92542  22148275.506    22148272.126
  20483556.545     5355929.72443   4181045.89142  20483558.877    20483552.546
  22583156.537   -13637264.21443 -10613377.01942  22583159.051    22583152.859
  22980764.568   -11278030.94743  -8740764.64142  22980766.992    22980763.366
 04  7 24 17 50  0.0000000  0  7G22G 3G19G15G14G11G25
  22229514.307     8710902.52143   6780511.22842  22229515.139    22229508.045
  24311487.999    27033957.98543  21064499.49542  24311489.898    24311487.446
  22577547.395     9670737.78243   7539643.70642  22577549.016    22577542.821
  22166577.371    23348359.22243  18193575.65342  22166578.378    22166574.985
  20490052.766     5390067.53143   4207646.77442  20490055.081    20490048.748
  22568086.312   -13716458.61443 -10675086.91942  22568088.824    22568082.679
  22962943.355   -11371682.49643  -8813739.79642  22962945.644    22962942.021
 04  7 24 17 50 30.0000000  0  7G22G 3G19G15G14G11G25
  22241206.976     8772348.40643   6828391.10242  22241207.844    22241200.823
  24329088.122    27126446.88943  21136568.69242  24329089.739    24329087.151
  22588209.275     9726765.56643   7583301.67042  22588210.835    22588204.610
  22184940.114    23444855.67843  18268767.62442  22184941.102    22184937.676
  20496631.326     5424638.41243   4234585.11442  20496633.680    20496627.376
  22553075.616   -13795340.14643 -10736553.03942  22553078.195    22553071.935
  22945160.174   -11465132.70643  -8886558.07242  22945162.604    22945159.015
 04  7 24 17 51  0.0000000  0  7G22G 3G19G15G14G11G25
  22252928.523     8833944.97043   6876388.37642  22252929.334    22252922.346
  24346691.932    27218956.13443  21208653.66342  24346693.803    24346691.151
  22598953.231     9783226.08843   7627296.83842  22598954.925    22598948.781
  22203362.414    23541664.95843  18344203.37042  22203363.406    22203359.904
  20503291.983     5459640.24543   4261859.25942  20503294.351    20503288.010
  22538124.888   -13873906.56443 -10797773.60542  22538127.424    22538121.273
  22927416.015   -11558378.89343  -8959217.36742  22927418.401    22927414.763
 04  7 24 17 51 30.0000000  0  7G22G 3G19G15G14G11G25
  22264678.804     8895692.66243   6924503.42142  22264679.615    22264672.647
  24364299.836    27311483.58043  21280752.81942  24364301.512    24364298.651
  22609779.327     9840117.22643   7671627.55942  22609781.004    22609774.821
  22221843.838    23638785.79843  18419881.89242  22221844.967    22221841.462
  20510034.411     5495071.74643   4289468.21642  20510036.768    20510030.433
  22523234.753   -13952155.01543 -10858746.41142  22523237.270    22523231.095
  22909711.167   -11651417.94243  -9031715.23342  22909713.650    22909709.971
 04  7 24 17 52  0.0000000  0  7G22G 3G19G15G14G11G25
  22276457.619     8957590.39943   6972735.38342  22276458.419    22276451.414
  24381909.795    27404025.85143  21352863.54842  24381911.763    24381909.068
  22620686.799     9897435.95543   7716291.46442  22620688.435    22620682.247
  22240384.208    23736215.63643  18495801.19142  22240385.278    22240381.749
  20516858.116     5530930.55243   4317410.13142  20516860.472    20516854.120
  22508405.366   -14030083.99843 -10919470.28642  22508407.855    22508401.644
  22892046.206   -11744247.85243  -9104050.15942  22892048.677    22892044.887
 04  7 24 17 52 30.0000000  0  7G22G 3G19G15G14G11G25
  22288264.655     9019636.77143   7021083.16742  22288265.499    22288258.474
  24399522.440    27496578.91843  21424982.71942  24399524.141    24399521.459
  22631674.778     9955178.61043   7761285.69942  22631676.456    22631670.358
  22258982.666    23833951.51143  18571958.95742  22258983.792    22258980.328
  20523762.588     5567213.63243   4345682.65342  20523764.916    20523758.554
  22493636.920   -14107692.34943 -10979944.30942  22493639.409    22493633.289
  22874421.473   -11836866.57643  -9176220.50942  22874423.869    22874420.083
 04  7 24 17 53  0.0000000  0  7G22G 3G19G15G14G11G25
  22300100.142     9081832.26243   7069547.14342  22300100.967    22300093.869
  24417136.430    27589140.61143  21497108.59542  24417138.101    24417135.719
  22642743.088    10013343.03943   7806608.58242  22642744.730    22642738.707
  22277639.151    23931991.98643  18648354.06642  22277640.249    22277636.861
  20530747.504     5603919.69143   4374284.76742  20530749.830    20530743.486
  22478930.123   -14184977.07343 -11040166.15442  22478932.606    22478926.488
  22856837.371   -11929270.84243  -9248223.75642  22856839.867    22856835.993
 04  7 24 17 53 30.0000000  0  7G22G 3G19G15G14G11G25
  22311964.137     9144177.88543   7118128.11942  22311964.966    22311957.873
  24434751.774    27681709.29543  21569239.91942  24434753.503    24434751.162
  22653891.406    10071927.75143   7852258.96242  22653893.050    22653887.050
  22296353.608    24030336.50343  18724986.10442  22296354.598    22296351.232
  20537812.851     5641048.28943   4403216.13642  20537815.170    20537808.799
  22464285.544   -14261935.00443 -11100133.35942  22464287.990    22464281.902
  22839294.993   -12021456.79443  -9320056.88742  22839297.359    22839293.441
 04  7 24 17 54  0.0000000  0  7G22G 3G19G15G14G11G25
  22323858.619     9206683.64243   7166833.86842  22323859.423    22323852.319
  24452368.535    16746352.67153  13048182.63452  24452371.412    24452370.040
  22665121.324    10130940.68043   7898243.02242  22665122.888    22665116.884
  22315127.378    24128993.60943  18801861.69942  22315128.426    22315125.117
  20544960.205     5678607.72144   4432483.21942  20544962.532    20544956.140
  22449705.532   -14338553.48743 -11159836.06742  22449707.953    22449701.889
  22821796.443   -12113411.28043  -9391709.66542  22821798.941    22821794.951
 04  7 24 17 54 30.0000000  0  6G22G19G15G14G11G25
  22335779.483     9269328.21143   7215647.77842  22335780.311    22335773.193
  22676428.045    10190358.08443   7944542.24442  22676429.689    22676423.686
  22333956.414    24227940.39043  18878963.02842  22333957.434    22333954.131
  20552185.171     5716575.16543   4462068.23042  20552187.490    20552181.103
  22435186.483   -14414851.19443 -11219288.80242  22435188.945    22435182.936
  22804338.710   -12205152.54043  -9463196.27942  22804341.044    22804337.092
 04  7 24 17 55  0.0000000  0  7G22G 3G19G15G14G11G25
  22347728.298     9332119.44943   7264575.98642  22347729.106    22347722.023
  24487606.608
  22687812.735    10250185.34643   7991160.83742  22687814.425    22687808.482
  22352841.683    24327182.95343  18956294.85642  22352842.721    22352839.392
  20559488.913     5754956.51043   4491975.76142  20559491.213    20559484.852
  22420730.482   -14490818.07343 -11278483.77042  22420732.898    22420726.842
  22786923.401   -12296669.98643  -9534508.49842  22786925.701    22786921.803
 04  7 24 17 55 30.0000000  0  7G22G 3G19G15G14G11G25
  22359704.187     9395053.18943   7313615.24142  22359705.014    22359697.968
  24505216.986     -302879.81753   -252254.45052  24505218.259    24505217.121
  22699274.273    10310415.64343   8038093.50242  22699275.907    22699269.947
  22371782.171    24426715.25443  19033852.45042  22371783.189    22371779.804
  20566870.379     5793746.32343   4522201.58242  20566872.694    20566866.322
  22406337.084   -14566455.72443 -11337422.17142  22406339.474    22406333.533
  22769550.420   -12387964.61143  -9605647.07242  22769552.818    22769549.006
 04  7 24 17 56  0.0000000  0  7G22G 3G19G15G14G11G25
  22371708.996     9458139.09743   7362773.06042  22371709.845    22371702.856
  24522829.138     -210324.24843   -180133.30942  24522830.755    24522829.471
  22710813.891    10371056.51843   8085346.08842  22710815.541    22710809.572
  22390779.277    24526545.33743  19111642.06942  22390780.324    22390776.884
  20574331.042     5832952.30943   4552751.69742  20574333.352    20574326.965
  22392008.684   -14641752.04843 -11396094.62242  22392011.085    22392005.052
  22752222.409   -12479023.90843  -9676602.27242  22752224.712    22752220.942
 04  7 24 17 56 30.0000000  0  7G22G 3G19G15G14G11G25
  22383742.001     9521373.17643   7412046.33042  22383742.867    22383735.914
  24540439.440     -117778.68843   -108019.99642  24540441.715    24540439.957
  22722430.434    10432101.54543   8132913.59242  22722432.118    22722426.093
  22409831.911    24626667.75343  19189659.48042  22409833.027    22409829.644
  20581869.856     5872568.95344   4583621.80242  20581872.150    20581865.795
  22377744.962   -14716708.41343 -11454502.16842  22377747.394    22377741.277
  22734938.848   -12569848.66143  -9747374.70442  22734941.213    22734937.529
 04  7 24 17 57  0.0000000  0  7G22G 3G19G15G14G11G25
  22395803.021     9584753.94143   7461433.90942  22395803.837    22395796.924
  24558048.011      -25247.32443    -35917.77442  24558049.882    24558047.882
  22734123.120    10493546.71543   8180792.89542  22734124.791    22734118.786
  22428939.599    24727079.04743  19267901.99142  22428940.735    22428937.348
  20589486.191     5912593.20744   4614809.52742  20589488.498    20589482.159
  22363546.102   -14791324.03043 -11512644.19542  22363548.533    22363542.397
  22717700.343   -12660437.61443  -9817963.41242  22717702.684    22717698.970
 04  7 24 17 57 30.0000000  0  7G22G 3G19G15G14G11G25
  22407892.755     9648285.98643   7510939.36942  22407893.584    22407886.712
  24575653.258       67271.72443     36174.86042  24575655.811    24575653.874
  22745892.343    10555393.82543   8228985.40942  22745893.975    22745887.992
  22448102.646    24827781.65243  19346371.48642  22448103.825    22448100.547
  20597180.601     5953027.52343   4646316.77842  20597182.896    20597176.550
  22349413.457   -14865591.84543 -11570515.21242  22349415.855    22349409.680
  22700507.902   -12750783.55743  -9888362.74542  22700510.284    22700506.591
 04  7 24 17 58  0.0000000  0  7G22G 3G19G15G14G11G25
  22420010.704     9711965.72443   7560559.90942  22420011.503    22420004.586
  24593255.899      159772.82653    108253.39552  24593257.546    24593256.276
  22757736.834    10617637.13143   8277486.62842  22757738.464    22757732.530
  22467320.319    24928770.58543  19425064.11542  22467321.424    22467318.087
  20604952.113     5993867.10744   4678139.82442  20604954.397    20604948.061
  22335346.654   -14939512.84543 -11628115.98042  22335349.120    22335342.928
  22683361.784   -12840886.57343  -9958572.78842  22683364.154    22683360.391
 04  7 24 17 58 30.0000000  0  7G22G 3G19G15G14G11G25
  22432156.125     9775790.30343   7610293.32142  22432156.956    22432150.035
  24610854.386      252250.38143    180313.64242  24610855.758    24610854.006
  22769655.636    10680271.22843   8326292.37242  22769657.357    22769651.432
  22486591.499    25030041.27143  19503976.27142  22486592.603    22486589.382
  20612799.881     6035107.41943   4710275.12642  20612802.163    20612795.841
  22321345.945   -15013087.52143 -11685446.89042  22321348.343    22321342.170
  22666261.902   -12930746.84843 -10028593.69042  22666264.244    22666260.398
 04  7 24 17 59  0.0000000  0  7G22G 3G19G15G14G11G25
  22444329.483     9839761.02643   7660140.60742  22444330.257    22444323.316
  24628447.614      344703.10143    252354.64042  24628449.115    24628447.095
  22781648.706    10743294.85543   8375401.64242  22781650.368    22781644.467
  22505916.374    25131593.18843  19583107.56242  22505917.348    22505914.191
  20620723.733     6076747.75743   4742722.13242  20620726.039    20620719.759
  22307411.718   -15086312.22343 -11742505.08542  22307414.125    22307407.980
  22649209.032   -13020359.65643 -10098421.74242  22649211.362    22649207.561
 04  7 24 17 59 30.0000000  0  7G22G 3G19G15G14G11G25
  22456531.592     9903883.29143   7710105.96942  22456532.394    22456525.401
  24646036.621      437134.10643    324378.68542  24646038.204    24646036.144
  22793716.370    10806710.87043   8424816.67242  22793718.069    22793712.139
  22525295.254    25233430.13343  19662460.97342  22525296.282    22525293.092
  20628724.523     6118792.00543   4775483.87542  20628726.818    20628720.502
  22293545.545   -15159179.20143 -11799284.54442  22293547.965    22293541.778
  22632204.830   -13109716.98043 -10168050.73742  22632207.135    22632203.326
 04  7 24 18  0  0.0000000  0  7G22G 3G19G15G14G11G25
  22468760.765     9968148.05343   7760182.37642  22468761.604    22468754.625
  24663619.256      529531.67243    396376.72342  24663620.964    24663618.508
  22805856.604    10870507.67043   8474528.40442  22805858.244    22805852.311
  22544726.483    25335541.24143  19742028.01742  22544727.498    22544724.137
  20636800.072     6161229.27043   4808551.86642  20636802.374    20636796.041
  22279746.268   -15231695.02643 -11855790.37842  22279748.640    22279742.466
  22615248.019   -13198825.04243 -10237485.49142  22615250.356    22615246.578
 04  7 24 18  0 30.0000000  0  7G22G 3G19G15G14G11G25
  22481018.169    10032561.18743   7810374.40242  22481019.000    22481012.038
  24681196.149      621899.06743    468351.42342  24681197.760    24681194.905
  22818069.832    10934688.64543   8524539.49842  22818071.504    22818065.612
  22564210.552    25437930.29743  19821811.64942  22564211.596    22564208.279
  20644951.195     6204063.76043   4841929.38142  20644953.508    20644947.182
  22266015.381   -15303851.31843 -11912016.04742  22266017.771    22266011.562
  22598340.395   -13287675.07843 -10306719.20242  22598342.703    22598338.922
 04  7 24 18  1  0.0000000  0  7G22G 3G19G15G14G11G25
  22493303.380    10097120.04343   7860679.96342  22493304.171    22493297.220
  24698766.486      714231.36243    540298.62142  24698768.020    24698765.256
  22830355.195    10999248.30343   8574845.67142  22830356.860    22830350.924
  22583746.604    25540592.99543  19901808.49142  22583747.691    22583744.515
  20653177.080     6247291.05043   4875612.97542  20653179.392    20653173.089
  22252352.771   -15375648.49243 -11967961.89442  22252355.213    22252348.981
  22581481.906   -13376266.95343 -10375751.74242  22581484.206    22581480.377
 04  7 24 18  1 30.0000000  0  7G22G 3G19G15G14G11G25
  22505616.444    10161825.60943   7911099.84942  22505617.238    22505610.402
  24716329.769      806526.98943    612217.19942  24716331.392    24716328.961
  22842712.242    11064185.29843   8625445.85642  22842713.999    22842708.099
  22603334.622    25643528.58543  19982017.98642  22603335.650    22603332.410
  20661477.587     6290910.49243   4909602.13642  20661479.905    20661473.592
  22238759.194   -15447083.19143 -12023625.28942  22238761.610    22238755.415
  22564673.261   -13464596.45343 -10444579.82942  22564675.576    22564671.786
 04  7 24 18  2  0.0000000  0  7G22G 3G19G15G14G11G25
  22517957.200    10226676.36643   7961632.86142  22517957.939    22517951.156
  24733885.609      898781.82643    684103.95342  24733887.138    24733884.862
  22855140.391    11129495.41943   8676336.79842  22855142.157    22855136.247
  22622973.961    25746733.68243  20062437.50142  22622975.047    22622971.738
  20669852.041     6334918.54643   4943894.10442  20669854.360    20669848.088
  22225234.849   -15518154.39843 -12079005.44742  22225237.199    22225231.010
  22547914.804   -13552662.36843 -10513202.55442  22547917.115    22547913.268
 04  7 24 18  2 30.0000000  0  7G22G 3G19G15G14G11G25
  22530326.154    10291675.77243   8012281.71542  22530326.943    22530320.210
  24751433.724      990996.94143    755959.81442  24751435.286    24751433.186
  22867639.702    11195179.55043   8727519.17642  22867641.502    22867635.565
  22642664.837    25850210.09443  20143068.41042  22642665.953    22642662.719
  20678300.841     6379317.09744   4978490.36042  20678303.143    20678296.866
  22211780.696   -15588856.27743 -12134097.81042  22211783.068    22211776.881
  22531207.835   -13640458.11343 -10581614.73642  22531210.083    22531206.236
 04  7 24 18  3  0.0000000  0  7G22G 3G19G15G14G11G25
  22542722.851    10356820.48543   8063043.79142  22542723.603    22542716.891
  24768972.886     1083166.34653    827779.97252  24768974.629    24768972.794
  22880209.062    11261231.64243   8778988.28842  22880210.810    22880204.912
  22662406.423    25953952.60543  20223906.66642  22662407.557    22662404.332
  20686822.936     6424100.95644   5013386.85142  20686825.243    20686818.965
  22198396.634   -15659189.87243 -12188903.20542  22198399.027    22198392.793
  22514552.062   -13727984.38543 -10649816.95142  22514554.349    22514550.431
 04  7 24 18  3 30.0000000  0  6G22G19G15G14G11G25
  22555150.628    10422128.77543   8113933.32242  22555151.405    22555144.714
  22892851.478    11327667.24443   8830756.24442  22892853.168    22892847.236
  22682201.685    26057977.35143  20304964.85642  22682202.856    22682199.609
  20695421.509     6469286.60144   5048596.42542  20695423.805    20695417.503
  22185086.648   -15729134.49343 -12243405.50842  22185089.066    22185082.751
  22497951.642   -13815220.02243 -10717792.70242  22497953.919    22497949.982
 04  7 24 18  4  0.0000000  0  6G22G19G15G14G11G25
  22567602.348    10487562.71843   8164920.76142  22567603.073    22567596.328
  22905559.049    11394445.86443   8882791.46442  22905560.772    22905554.855
  22702043.074    26162244.74843  20386212.10942  22702044.251    22702041.166
  20704088.989     6514834.35444   5084088.16142  20704091.288    20704084.976
  22171843.819   -15798725.73443 -12297632.43942  22171846.216    22171840.003
  22481399.915   -13902199.72843 -10785569.01842  22481402.190    22481398.217
 04  7 24 18  4 30.0000000  0  6G22G19G15G14G11G25
  22580081.158    10553139.84543   8216019.77442  22580082.004    22580075.260
  22918334.824    11461582.44743   8935105.64242  22918336.511    22918330.611
  22721933.881    26266770.65643  20467660.80342  22721934.886    22721931.911
  20712828.365     6560760.21744   5119874.52442  20712830.687    20712824.373
  22158672.120   -15867943.50543 -12351568.36842  22158674.467    22158668.229
  22464900.556   -13988903.72143 -10853130.48542  22464902.899    22464898.902
 04  7 24 18  5  0.0000000  0  7G22G 3G19G15G14G11G25
  22592587.451    10618860.42743   8267230.56742  22592588.229    22592581.487
  24839036.333
  22931178.159    11529074.67943   8987696.93642  22931179.868    22931173.974
  22741873.592    26371553.31443  20549309.57142  22741874.521    22741871.351
  20721639.410     6607062.56944   5155954.25042  20721641.744    20721635.440
  22145571.932   -15936785.30543 -12405211.32742  22145574.277    22145568.137
  22448454.601   -14075327.92443 -10920473.95142  22448456.887    22448452.827
 04  7 24 18  5 30.0000000  0  6G22G19G15G14G11G25
  22605123.355    10684736.99243   8318562.90942  22605124.144    22605117.365
  22944091.105    11596932.35643   9040572.99042  22944092.860    22944086.919
  22761863.895    26476603.29843  20631166.65242  22761864.903    22761861.729
  20730524.182     6653752.10344   5192335.68142  20730526.498    20730520.186
  22132546.125   -16005236.38843 -12458549.83442  22132548.452    22132542.397
  22432064.763   -14161457.41343 -10987587.77842  22432067.015    22432062.823
 04  7 24 18  6  0.0000000  0  6G22G19G15G14G11G25
  22617684.557    10750746.05743   8369998.48442  22617685.319    22617678.547
  22957068.626    11665129.26443   9093713.38642  22957070.324    22957064.388
  22781900.322    26581895.21043  20713212.23242  22781901.322    22781898.226
  20739477.825     6700803.55344   5228999.12142  20739480.115    20739473.831
  22119590.749   -16073317.93643 -12511600.41042  22119593.020    22119586.828
  22415726.962   -14247312.98543 -11054488.16842  22415729.289    22415724.997
 04  7 24 18  6 30.0000000  0  6G22G19G15G14G11G25
  22630274.471    10816905.73443   8421551.42242  22630275.186    22630268.275
  22970113.583    11733680.81743   9147130.12142  22970115.225    22970109.382
  22801986.003    26687445.41643  20795459.09642  22801986.936    22801983.815
  20748503.381     6748233.08544   5265957.16942  20748505.670    20748499.392
  22106709.524   -16141009.39243 -12564347.00942  22106711.806    22106705.594
  22399445.312   -14332873.69843 -11121158.77442  22399447.578    22399443.276
 04  7 24 18  7  0.0000000  0  6G22G19G15G14G11G25
  22642891.319    10883207.31843   8473214.94142  22642892.077    22642885.073
  22983223.867    11802575.49843   9200814.24442  22983225.453    22983219.653
  22822118.671    26793243.45143  20877899.08442  22822119.727    22822116.467
  20757598.911     6796030.36044   5303201.77342  20757601.209    20757594.938
  22093901.243   -16208317.09343 -12616794.57342  22093903.587    22093897.349
  22383218.509   -14418145.23643 -11187604.06442  22383220.889    22383216.575
 04  7 24 18  7 30.0000000  0  6G22G19G15G14G11G25
  22655535.558    10949652.73243   8524990.52442  22655536.308    22655529.280
  22996399.365    11871812.64543   9254765.19342  22996400.847    22996395.071
  22842298.611    26899289.43143  20960532.25242  22842299.559    22842296.336
  20766764.411     6844195.40244   5340732.94242  20766766.724    20766760.444
  22081166.918   -16275236.76843 -12668939.78942  22081169.220    22081162.975
  22367047.710   -14503122.93843 -11253820.40242  22367050.097    22367045.751
 04  7 24 18  8  0.0000000  0  6G22G19G15G14G11G25
  22668207.740    11016245.40543   8576880.85942  22668208.517    22668201.470
  23009640.065    11941392.77343   9308983.41742  23009641.568    23009635.819
  22862525.883    27005584.60343  21043359.59042  22862526.812    22862523.766
  20776000.186     6892729.79044   5378551.91242  20776002.509    20775996.224
  22068507.371   -16341762.78643 -12720778.25842  22068509.720    22068503.454
  22350933.986   -14587800.91643 -11319803.17742  22350936.326    22350932.012
 04  7 24 18  8 30.0000000  0  6G22G19G15G14G11G25
  22680906.794    11082978.88743   8628880.90742  22680907.515    22680900.500
  23022944.247    12011306.77343   9363461.80142  23022945.812    23022940.154
  22882799.079    27112120.54743  21126374.55842  22882799.961    22882796.867
  20785304.719     6941625.21944   5416652.20942  20785307.018    20785300.723
  22055921.985   -16407899.21343 -12772313.14642  22055924.339    22055918.188
  22334876.781   -14672182.43743 -11385554.96642  22334879.043    22334874.661
 04  7 24 18  9  0.0000000  0  6G22G19G15G14G11G25
  22693633.204    11149856.34443   8680993.13142  22693633.943    22693626.906
  23036312.061    12081555.06043   9418200.65742  23036313.653    23036308.022
  22903118.558    27218898.51143  21209578.09942  22903119.276    22903116.139
  20794678.237     6990883.01244   5455034.86842  20794680.507    20794674.178
  22043411.790   -16473640.80243 -12823540.37142  22043414.125    22043408.021
  22318877.018   -14756261.56243 -11451071.10442  22318879.221    22318874.851
 04  7 24 18  9 30.0000000  0  6G22G19G15G14G11G25
  22706387.604    11216881.03143   8733220.10042  22706388.360    22706381.332
  23049743.775    12152138.09943   9473200.36842  23049745.269    23049739.607
  22923483.906    27325920.02143  21292971.38442  22923484.753    22923481.812
  20804121.014     7040504.79344   5493701.15442  20804123.257    20804116.915
  22030977.799   -16538981.93543 -12874455.54942  22030980.159    22030974.017
  22302935.869   -14840032.22043 -11516346.88642  22302938.138    22302933.759
 04  7 24 18 10  0.0000000  0  6G22G19G15G14G11G25
  22719168.115    11284042.76643   8785553.83742  22719168.861    22719161.831
  23063236.530    12223043.11043   9528450.96142  23063238.094    23063232.444
  22943893.597    27433172.97243  21376545.05242  22943894.389    22943891.399
  20813630.721     7090478.61644   5532641.75642  20813632.993    20813626.653
  22018618.497   -16603930.40143 -12925064.75442  22018620.915    22018614.719
  22287052.133   -14923501.83943 -11581388.08542  22287054.378    22287049.948
 04  7 24 18 10 30.0000000  0  6G22G19G15G14G11G25
  22731976.120    11351349.77243   8838000.77642  22731976.910    22731970.051
  23076791.652    12294275.49343   9583956.63842  23076793.196    23076787.632
  22964348.609    27540663.72643  21460303.99442  22964349.247    22964346.245
  20823208.605     7140810.64144   5571861.47642  20823210.882    20823204.567
  22006336.061   -16668475.59143 -12975359.71742  22006338.374    22006332.247
  22271227.603   -15006659.37243 -11646186.11442  22271229.956    22271225.561
 04  7 24 18 11  0.0000000  0  6G22G19G15G14G11G25
  22744812.021    11418802.25043   8890561.07842  22744812.767    22744805.898
  23090408.614    12365832.62543   9639715.37942  23090410.116    23090404.582
  22984848.304    27648390.24743  21544246.68642  22984849.157    22984846.089
  20832854.385     7191499.36944   5611359.14842  20832856.657    20832850.350
  21994130.736   -16732615.13643 -13025338.59242  21994133.045    21994126.918
  22255463.282   -15089501.88543 -11710738.66442  22255465.529    22255461.091
 04  7 24 18 11 30.0000000  0  7G22G19G15G14G11G25G 1
  22757669.670    11486369.14543   8943210.52542  22757670.372    22757663.573
  23104080.773    12437680.56543   9695700.70742  23104082.266    23104076.869
  23005386.597    27756319.38443  21628347.22642  23005387.572    23005384.509
  20842561.797     7242511.85244   5651109.09742  20842564.041    20842557.763
  21981996.975   -16796378.16743 -13075024.08942  21981999.353    21981993.208
  22239753.289   -15172057.77243 -11775067.88542  22239755.635    22239751.171
  24562899.523    -3736662.18453  -2897234.95252  24562901.741    24562900.020
 04  7 24 18 12  0.0000000  0  7G22G19G15G14G11G25G 1
  22770561.091    11554113.56243   8995998.31142  22770561.802    22770554.957
  23117819.855    12509879.68543   9751959.68242  23117821.354    23117815.966
  23025974.949    27864512.59743  21712653.52542  23025975.953    23025973.042
  20852342.466     7293909.26244   5691158.98942  20852344.679    20852338.394
  21969947.431   -16859699.01643 -13124365.01742  21969949.795    21969943.646
  22224110.492   -15254260.98043 -11839122.28342  22224112.805    22224108.336
  24544201.531    -3834919.18343  -2973798.76042  24544203.922    24544202.302
 04  7 24 18 12 30.0000000  0  7G22G19G15G14G11G25G 1
  22783478.143    11621992.90243   9048891.22142  22783478.911    22783472.077
  23131617.155    12582384.62743   9808456.97342  23131618.647    23131613.237
  23046605.290    27972925.29843  21797130.88742  23046606.276    23046603.248
  20862187.942     7345647.38944   5731474.37442  20862190.176    20862183.878
  21957974.342   -16922617.92943 -13173392.75342  21957976.737    21957970.548
  22208527.203   -15336151.66243 -11902933.15242  22208529.494    22208524.993
  24525530.584    -3933036.24943  -3050253.49542  24525532.830    24525531.168
 04  7 24 18 13  0.0000000  0  7G22G19G15G14G11G25G 1
  22796421.825    11690012.08243   9101893.10642  22796422.571    22796415.759
  23145472.998    12655197.48043   9865194.18442  23145474.522    23145469.068
  23067277.947    28081560.42943  21881781.56542  23067279.038    23067275.897
  20872098.710     7397729.02143   5772057.42942  20872101.005    20872094.700
  21946079.119   -16985128.11343 -13222101.99942  21946081.472    21946075.262
  22193004.895   -15417721.93943 -11966494.36942  22193007.159    22193002.633
  24506887.216    -4031007.07143  -3126594.32342  24506889.659    24506887.885
 04  7 24 18 13 30.0000000  0  7G22G19G15G14G11G25G 1
  22809393.575    11758179.07643   9155010.17542  22809394.317    22809387.584
  23159388.508    12728323.37143   9922175.32442  23159390.020    23159384.522
  23087993.944    28190423.97943  21966610.22642  23087995.176    23087992.084
  20882076.097     7450160.37243   5812912.99342  20882078.356    20882072.082
  21934263.686   -17047218.96843 -13270484.50742  21934266.032    21934259.756
  22177545.524   -15498961.07543 -12029797.54742  22177547.804    22177543.261
  24488273.616    -4128822.19643  -3202813.84242  24488276.108    24488274.132
 04  7 24 18 14  0.0000000  0  7G22G19G15G14G11G25G 1
  22822391.691    11826483.98343   9208234.70042  22822392.367    22822385.726
  23173361.035    12801749.52643   9979390.42242  23173362.583    23173357.139
  23108751.319    28299504.16443  22051607.69542  23108752.463    23108749.472
  20892117.836     7502929.75743   5854031.96842  20892120.084    20892113.820
  21922526.439   -17108898.56543 -13318546.54242  21922528.833    21922522.553
  22162147.878   -15579876.36143 -12092848.37542  22162150.082    22162145.530
  24469687.949    -4226490.24443  -3278918.74742  24469690.400    24469688.358
 04  7 24 18 14 30.0000000  0  7G22G19G15G14G11G25G 1
  22835417.423    11894934.71443   9261572.86142  22835418.149    22835411.560
  23187391.772    12875480.95043  10036843.40642  23187393.327    23187387.803
  23129550.687    28408807.00243  22136778.65342  23129551.981    23129549.184
  20902225.035     7556043.29244   5895419.11042  20902227.263    20902221.000
  21910869.435   -17170156.48943 -13366279.99242  21910871.843    21910865.617
  22146813.824   -15660457.31743 -12155638.69842  22146816.065    22146811.395
  24451132.193    -4324001.98043  -3354901.84642  24451134.533    24451132.294
 04  7 24 18 15  0.0000000  0  7G22G19G15G14G11G25G 1
  22848469.664    11963524.37543   9315019.27342  22848470.358    22848463.825
  23201478.654    12949508.13343  10094526.83942  23201480.323    23201474.766
  23150391.218    28518323.29243  22222115.94142  23150392.297    23150389.511
  20912395.995     7609492.08144   5937067.48842  20912398.253    20912391.999
  21899291.728   -17230997.66943 -13413688.70842  21899294.137    21899287.986
  22131542.655   -15740707.82243 -12218171.51342  22131544.892    22131540.161
  24432605.033    -4421363.06243  -3430767.51242  24432607.297    24432605.123
 04  7 24 18 15 30.0000000  0  7G22G19G15G14G11G25G 1
  22861548.837    12032255.74143   9368576.10442  22861549.519    22861543.029
  23215621.781    13023830.74143  10152440.47542  23215623.470    23215617.974
  23171272.356    28628053.90043  22307620.23842  23171273.474    23171270.605
  20922630.974     7663277.03944   5978977.82242  20922633.206    20922626.960
  21887794.320   -17291417.09543 -13460768.79342  21887796.705    21887790.581
  22116335.383   -15820622.44543 -12280442.60342  22116337.653    22116332.842
  24414107.159    -4518569.31143  -3506512.53642  24414109.458    24414107.268
 04  7 24 18 16  0.0000000  0  7G22G19G15G14G11G25G 1
  22874655.586    12101132.21443   9422246.00942  22874656.267    22874649.784
  23229821.322    13098449.40943  10210584.81542  23229823.007    23229817.511
  23192194.263    28738000.46243  22393292.81242  23192195.557    23192192.715
  20932930.156     7717399.69744   6021151.29542  20932932.420    20932926.205
  21876378.160   -17351409.33343 -13507515.99742  21876380.563    21876374.538
  22101193.177   -15900195.15443 -12342447.27642  22101195.423    22101190.629
  24395639.580    -4615616.06243  -3582133.29742  24395641.925    24395639.853
 04  7 24 18 16 30.0000000  0  7G22G19G15G14G11G25G 1
  22887788.753    12170147.08443   9476023.75342  22887789.406    22887782.903
  23244075.329    13173354.46543  10268952.31042  23244077.060    23244071.535
  23213155.815    28848154.13343  22479126.72842  23213156.941    23213154.411
  20943291.990     7771851.50144   6063581.24942  20943294.275    20943288.096
  21865042.465   -17410979.10643 -13553934.00742  21865044.830    21865038.782
  22086115.253   -15979430.11143 -12404188.75342  22086117.480    22086112.705
  24377201.577    -4712508.56943  -3657633.86642  24377203.810    24377201.727
 04  7 24 18 17  0.0000000  0  7G22G19G15G14G11G25G 1
  22900948.729    12239302.95543   9529911.36142  22900949.393    22900942.888
  23258383.901    13248545.87443  10327542.94242  23258385.661    23258380.024
  23234157.117    28958515.30443  22565122.35142  23234158.132    23234155.661
  20953716.651     7826633.35244   6106268.38642  20953718.950    20953712.765
  21853788.066   -17470121.22143 -13600018.77442  21853790.484    21853784.431
  22071102.491   -16058322.10743 -12465662.99542  22071104.749    22071100.021
  24358793.633    -4809243.08043  -3733011.34142  24358795.870    24358793.673
 04  7 24 18 17 30.0000000  0  7G22G19G15G14G11G25G 1
  22914135.402    12308599.07743   9583908.28842  22914136.095    22914129.548
  23272746.265    13324019.89643  10386353.78242  23272748.003    23272742.344
  23255197.222    29069081.59943  22651277.81142  23255198.286    23255195.882
  20964203.596     7881742.53044   6149210.58142  20964205.862    20964199.709
  21842615.406   -17528834.01543 -13645769.00842  21842617.800    21842611.729
  22056155.498   -16136868.86243 -12526868.20142  22056157.732    22056153.068
  24340415.702    -4905818.74943  -3808265.04242  24340418.061    24340415.682
 04  7 24 18 18  0.0000000  0  7G22G19G15G14G11G25G 1
  22927349.821    12378040.86343   9638018.70042  22927350.457    22927343.991
  23287162.691    13399778.88543  10445386.68042  23287164.492    23287158.903
  23276276.991    29179856.18243  22737595.56942  23276277.965    23276275.647
  20974753.496     7937182.62444   6192410.64442  20974755.814    20974749.628
  21831525.729   -17587110.47443 -13691179.22742  21831528.129    21831522.078
  22041275.705   -16215062.62643 -12587798.36542  22041277.897    22041273.298
  24322069.324    -5002229.01143  -3883389.84442  24322071.666    24322069.238
 04  7 24 18 18 30.0000000  0  7G22G19G15G14G11G25G 1
  22940589.738    12447616.74243   9692233.61342  22940590.391    22940583.930
  23301630.742    13475808.66743  10504630.58942  23301632.491    23301626.990
  23297393.780    29290825.29243  22824064.91542  23297394.758    23297392.204
  20985363.869     7992940.22344   6235858.11142  20985366.158    20985359.979
  21820517.377   -17644959.79243 -13736256.61242  21820519.753    21820513.704
  22026461.309   -16292912.41143 -12648460.48242  22026463.503    22026458.946
  24303752.582    -5098484.10943  -3958393.70442  24303754.923    24303752.414
 04  7 24 18 19  0.0000000  0  8G22G20G19G15G14G11G25G 1
  22953854.785    12517325.13843   9746551.78442  22953855.491    22953849.052
  24705548.070    -5472665.76753  -4000995.31152  24705550.240    24705546.151
  23316149.403    13552104.46443  10564081.78142  23316151.114    23316145.668
  23318546.953    29401985.47243  22910683.15142  23318547.986    23318545.308
  20996033.959     8049011.79644   6279550.24142  20996036.254    20996030.068
  21809590.400   -17702381.53543 -13781000.81942  21809592.784    21809586.673
  22011712.629   -16370416.92543 -12708853.57142  22011714.847    22011710.294
  24285465.315    -5194584.36143  -4033276.92442  24285467.534    24285465.170
 04  7 24 18 19 30.0000000  0  8G22G20G19G15G14G11G25G 1
  22967148.857    12587185.60343   9800988.44942  22967149.609    22967143.091
  24688665.821    -5561382.46943  -4070125.18142  24688667.995    24688664.056
  23330722.109    13628683.37743  10623753.57642  23330723.673    23330718.239
  23339739.757    29513354.46043  22997464.04742  23339740.735    23339738.357
  21006767.112     8105415.18344   6323500.92442  21006769.463    21006763.294
  21798748.897   -17759353.92943 -13825394.88442  21798751.314    21798745.155
  21997033.941   -16447553.99543 -12768960.33442  21997036.135    21997031.558
  24267211.280    -5290508.79143  -4108023.17742  24267213.720    24267211.257
 04  7 24 18 20  0.0000000  0  8G22G20G19G15G14G11G25G 1
  22980469.651    12657186.43443   9855534.49142  22980470.419    22980463.884
  24671783.766    -5650097.45743  -4139253.70442  24671786.061    24671782.285
  23345345.677    13705530.68043  10683634.51742  23345347.358    23345341.850
  23360970.001    29624918.53343  23084396.99542  23360970.855    23360968.307
  21017560.902     8162136.77044   6367699.55842  21017563.238    21017557.068
  21787991.100   -17815886.68543 -13869446.36942  21787993.499    21787987.298
  21982423.320   -16524332.81643 -12828787.94542  21982425.571    21982421.000
  24248988.812    -5386267.94743  -4182640.60742  24248991.238    24248988.829
 04  7 24 18 20 30.0000000  0  8G22G20G19G15G14G11G25G 1
  22993817.382    12727329.15043   9910191.10642  22993818.203    22993811.697
  24654902.543    -5738808.67843  -4208379.24742  24654904.892    24654901.108
  23360020.098    13782644.90543  10743723.44542  23360021.791    23360016.277
  23382237.089    29736677.01343  23171481.45342  23382237.984    23382235.203
  21028415.151     8219176.21643   6412145.87842  21028417.488    21028411.310
  21777317.589   -17871976.21043 -13913152.47042  21777319.989    21777313.805
  21967881.710   -16600749.20143 -12888333.13942  21967883.940    21967879.380
  24230798.521    -5481859.11343  -4257127.17142  24230800.829    24230798.342
 04  7 24 18 21  0.0000000  0  8G22G20G19G15G14G11G25G 1
  23007191.509    12797610.29443   9964955.58342  23007192.290    23007185.785
  24638021.677    -5827518.94443  -4277504.06642  24638024.023    24638019.969
  23374744.080    13860019.46943  10804015.23442  23374745.782    23374740.271
  23403539.739    29848624.41143  23258713.07442  23403540.799    23403538.099
  21039328.845     8276528.16044   6456835.70742  21039331.203    21039325.039
  21766728.250   -17927623.84243 -13956514.24542  21766730.599    21766724.381
  21953408.951   -16676804.00943 -12947596.58542  21953411.197    21953406.624
  24212639.565    -5577284.42043  -4331484.47142  24212641.896    24212639.538
 04  7 24 18 21 30.0000000  0  8G22G20G19G15G14G11G25G 1
  23020592.189    12868031.38743  10019829.11042  23020592.999    23020586.562
  24621141.174    -5916226.08843  -4346626.43642  24621143.549    24621139.344
  23389517.233    13937653.17943  10864508.93742  23389518.950    23389513.574
  23424878.637    29960760.14743  23346091.47042  23424879.570    23424876.902
  21050301.950     8334192.17143   6501768.70342  21050304.296    21050298.155
  21756223.621   -17982825.86943 -13999528.78642  21756226.011    21756219.745
  21939005.806   -16752493.29743 -13006575.21142  21939007.997    21939003.381
  24194512.852    -5672541.07043  -4405710.35142  24194515.210    24194512.731
 04  7 24 18 22  0.0000000  0  8G22G20G19G15G14G11G25G 1
  23034019.718    12938593.15443  10074812.25642  23034020.476    23034014.010
  24604261.506    -6004928.63943  -4415745.22242  24604263.863    24604259.763
  23404339.394    14015543.76243  10925202.81942  23404341.022    23404335.709
  23446253.228    30073082.78843  23433615.49542  23446254.110    23446251.330
  21061334.198     8392166.93044   6546943.84342  21061336.554    21061330.393
  21745804.214   -18037580.00443 -14042194.32142  21745806.625    21745800.339
  21924672.772   -16827813.88643 -13065266.54242  21924674.958    21924670.333
  24176418.427    -5767627.24143  -4479803.39342  24176420.899    24176418.447
 04  7 24 18 22 30.0000000  0  8G22G20G19G15G14G11G25G 1
  23047473.836    13009295.17043  10129904.70142  23047474.633    23047468.140
  24587382.826    -6093626.56043  -4484860.42142  24587385.218    24587381.075
  23419209.843    14093687.90743  10986094.28042  23419211.432    23419206.110
  23467662.775    30185590.17343  23521283.45842  23467663.709    23467661.071
  21072425.151     8450450.39644   6592359.52842  21072427.549    21072421.366
  21735470.507   -18091884.08343 -14084509.15842  21735472.902    21735466.582
  21910410.371   -16902763.32243 -13123668.65642  21910412.575    21910407.882
  24158356.875    -5862541.83643  -4553762.74442  24158359.153    24158356.666
 04  7 24 18 23  0.0000000  0  8G22G20G19G15G14G11G25G 1
  23060954.344    13080135.53443  10185104.93242  23060955.115    23060948.735
  24570504.638    -6182321.13343  -4553973.01842  24570507.064    24570502.857
  23434127.594    14172080.82643  11047179.58842  23434129.149    23434123.902
  23489106.479    30298278.13343  23609092.14442  23489107.457    23489104.950
  21083574.169     8509038.88743   6638012.89442  21083576.545    21083570.384
  21725222.416   -18145738.33043 -14126473.48242  21725224.823    21725218.423
  21896218.594   -16977341.37443 -13181781.38142  21896220.814    21896216.114
  24140327.596    -5957285.65543  -4627589.04042  24140329.919    24140327.363
 04  7 24 18 23 30.0000000  0  8G22G20G19G15G14G11G25G 1
  23074461.650    13151116.64243  10240414.82642  23074462.373    23074456.057
  24553627.880    -6271008.86943  -4623080.26942  24553630.350    24553626.228
  23449092.583    14250722.11843  11108458.42342  23449094.154    23449088.929
  23510584.794    30411147.23043  23697041.95142  23510585.734    23510583.259
  21094781.336     8567933.01343   6683904.41442  21094783.731    21094777.546
  21715060.765   -18199137.96143 -14168083.55642  21715063.198    21715056.829
  21882098.468   -17051542.83943 -13239600.66042  21882100.676    21882096.021
  24122331.657    -6051854.85743  -4701279.26342  24122333.921    24122331.351
 04  7 24 18 24  0.0000000  0  8G22G20G19G15G14G11G25G 1
  23087995.012    13222234.49343  10295831.28042  23087995.681    23087989.344
  24536751.720    -6359693.61843  -4692185.15842  24536754.137    24536750.034
  23464103.489    14329604.68643  11169925.28142  23464105.086    23464099.888
  23532096.601    30524191.34143  23785128.17242  23532097.532    23532094.935
  21106045.554     8627126.81743   6730029.44842  21106047.921    21106041.758
  21704985.187   -18252085.21243 -14209341.12842  21704987.628    21704981.292
  21868049.673   -17125369.28743 -13297127.72042  21868051.910    21868047.283
  24104368.323    -6146252.42343  -4774835.73542  24104370.614    24104368.045
 04  7 24 18 24 30.0000000  0  8G22G20G19G15G14G11G25G 1
  23101555.275    13293493.54143  10351357.75742  23101555.960    23101549.516
  24519877.049    -6448370.02443  -4761283.60742  24519879.438    24519875.471
  23479160.633    14408730.13243  11231581.40042  23479162.190    23479157.045
  23553642.241    30637412.93643  23873352.65242  23553643.084    23553640.495
  21117367.260     8686622.79243   6776389.94542  21117369.627    21117363.462
  21694996.939   -18304573.64843 -14250241.18542  21694999.375    21694993.095
  21854073.663   -17198813.68343 -13354357.07842  21854075.860    21854071.211
  24086438.809    -6240472.74543  -4848254.08242  24086441.013    24086438.385
 04  7 24 18 25  0.0000000  0  8G22G20G19G15G14G11G25G 1
  23115141.921    13364891.36143  10406992.37342  23115142.653    23115136.209
  24503003.605    -6537040.01843  -4830377.03742  24503005.968    24503001.929
  23494262.895    14488092.95243  11293422.47642  23494264.522    23494259.309
  23575220.551    30750807.36243  23961711.82142  23575221.411    23575218.770
  21128745.644     8746416.54043   6822982.46642  21128747.994    21128741.832
  21685095.914   -18356603.79543 -14290784.13142  21685098.370    21685092.068
  21840170.332   -17271875.99943 -13411288.70942  21840172.505    21840167.873
  24068542.775    -6334517.00143  -4921535.26942  24068545.002    24068542.253
 04  7 24 18 25 30.0000000  0  8G22G20G19G15G14G11G25G 1
  23128754.889    13436428.13043  10462735.25342  23128755.652    23128749.390
  24486131.810    -6625702.44243  -4899464.58242  24486133.887    24486129.981
  23509409.918    14567690.52643  11355446.47542  23509411.528    23509406.316
  23596831.508    30864372.91643  24050204.33342  23596832.371    23596829.743
  21140180.451     8806506.87143   6869806.09242  21140182.805    21140176.661
  21675282.582   -18408173.27343 -14330968.11942  21675285.014    21675278.697
  21826340.333   -17344553.16643 -13467920.22942  21826342.483    21826337.780
  24050680.414    -6428383.76643  -4994678.11342  24050682.695    24050679.929
 04  7 24 18 26  0.0000000  0  8G22G20G19G15G14G11G25G 1
  23142394.636    13508105.37543  10518587.59142  23142395.362    23142389.195
  24469261.458    -6714355.47643  -4968544.77742  24469263.649    24469259.810
  23524601.267    14647521.26743  11417652.17742  23524602.922    23524597.709
  23618474.933    30978109.00343  24138829.72142  23618475.757    23618473.236
  21151671.613     8866893.10043   6916860.28442  21151673.948    21151667.801
  21665557.480   -18459278.87643 -14370790.64642  21665559.911    21665553.609
  21812584.269   -17416841.44143 -13524248.71842  21812586.450    21812581.729
  24032852.368    -6522070.26843  -5067680.50042  24032854.718    24032851.895
 04  7 24 18 26 30.0000000  0  8G22G20G19G15G14G11G25G 1
  23156059.823    13579916.46243  10574544.22742  23156060.576    23156054.427
  24452392.349    -6803004.57443  -5037621.95942  24452394.303    24452390.315
  23539835.203    14727575.61843  11480032.12142  23539836.833    23539831.635
  23640148.858    31092006.89043  24227581.18642  23640149.724    23640147.390
  21163217.399     8927566.67743   6964138.38642  21163219.737    21163213.600
  21655919.836   -18509924.91643 -14410255.07342  21655922.263    21655915.953
  21798901.486   -17488745.03943 -13580277.44642  21798903.620    21798898.900
  24015057.770    -6615581.75543  -5140546.54442  24015060.188    24015057.118
 04  7 24 18 27  0.0000000  0  8G22G20G19G15G14G11G25G 1
  23169751.662    13651866.80543  10630609.36142  23169752.398    23169746.118
  24435524.813    -6891644.01043  -5106691.60142  24435526.695    24435522.672
  23555112.162    14807856.11243  11542588.27142  23555113.812    23555108.583
  23661854.510    31206069.71143  24316461.20242  23661855.249    23661852.792
  21174818.579     8988531.14443   7011643.14842  21174820.911    21174814.761
  21646370.963   -18560104.33643 -14449355.90542  21646373.380    21646367.098
  21785293.249   -17560256.30143 -13636000.47442  21785295.434    21785290.705
  23997297.532    -6708911.99043  -5213271.33942  23997299.963    23997296.957
 04  7 24 18 27 30.0000000  0  8G22G20G19G15G14G11G25G 1
  23183470.505    13723959.65843  10686785.54342  23183471.260    23183464.971
  24418660.000    -6980269.69443  -5175750.51642  24418661.831    24418657.776
  23570432.111    14888363.05643  11605320.89242  23570433.779    23570428.623
  23683591.708    31320298.86843  24405470.80642  23683592.392    23683590.009
  21186475.452     9049788.24143   7059375.94042  21186477.768    21186471.607
  21636911.970   -18609811.61143 -14488088.83742  21636914.377    21636908.110
  21771760.941   -17631369.28943 -13691413.14242  21771763.076    21771758.342
  23979572.663    -6802056.38943  -5285851.30842  23979575.116    23979572.221
 04  7 24 18 28  0.0000000  0  8G22G20G19G15G14G11G25G 1
  23197215.076    13796187.47643  10743066.89642  23197215.827    23197209.473
  24401796.440    -7068888.33743  -5244803.96642  24401798.370    24401794.136
  23585793.186    14969086.15543  11668221.93142  23585794.864    23585789.748
  23705358.585    31434684.96843  24494602.66142  23705359.130    23705357.204
  21198186.146     9111328.49043   7107329.36942  21198188.486    21198182.340
  21627541.770   -18659052.45243 -14526458.31542  21627544.145    21627537.900
  21758303.413   -17702089.04143 -13746519.40442  21758305.540    21758300.786
  23961881.825    -6895021.00443  -5358291.19642  23961884.484    23961881.685
 04  7 24 18 28 30.0000000  0  8G22G20G19G15G14G11G25G 1
  23210985.849    13868553.73343  10799456.12242  23210986.664    23210980.305
  24384934.832    -7157495.91243  -5313848.78742  24384936.843    24384932.808
  23601195.506    15050025.65243  11731291.59842  23601197.196    23601192.077
  23727155.828    31549229.13043  24583857.69942  23727156.053    23727154.554
  21209951.038     9173153.37343   7155504.59142  21209953.378    21209947.217
  21618261.229   -18707821.84343 -14564460.43042  21618263.592    21618257.404
  21744921.742   -17772409.87043 -13801314.81342  21744923.911    21744919.109
  23944226.429    -6987801.58043  -5430587.66842  23944228.842    23944226.093
 04  7 24 18 29  0.0000000  0  8G22G20G19G15G14G11G25G 1
  23224782.646    13941056.32343  10855951.58442  23224783.426    23224777.188
  24368075.189    -7246093.81143  -5382886.05242  24368077.241    24368073.126
  23616638.064    15131176.69443  11794526.10942  23616639.735    23616634.636
  23748982.404    31663926.95343  24673232.48342  23748982.582    23748980.888
  21221769.323     9235258.91143   7203898.50142  21221771.646    21221765.520
  21609070.443   -18756119.73743 -14602095.14842  21609072.782    21609066.633
  21731616.105   -17842331.55843 -13855799.20342  21731618.263    21731613.423
  23926605.421    -7080398.87343  -5502741.34142  23926608.059    23926605.349
 04  7 24 18 29 30.0000000  0  8G22G20G19G15G14G11G25G 1
  23238606.103    14013698.50243  10912555.80942  23238606.824    23238600.606
  24351217.982    -7334677.86943  -5451912.56142  24351220.147    24351216.154
  23632120.968    15212539.44543  11857925.58342  23632122.596    23632117.559
  23770838.303    31778780.01943  24762728.24442  23770838.598    23770836.887
  21233641.378     9297646.83243   7252512.44742  21233643.693    21233637.577
  21599970.369   -18803941.09143 -14639358.53842  21599972.671    21599966.523
  21718387.463   -17911848.03543 -13909967.85342  21718389.695    21718384.835
  23909020.498    -7172808.48543  -5574748.75142  23909022.934    23909020.348
 04  7 24 18 30  0.0000000  0  8G22G20G19G15G14G11G25G 1
  23252456.162    14086480.77943  10969269.19142  23252456.892    23252450.825
  24334363.964    -7423246.87343  -5520927.34742  24334365.952    24334361.960
  23647643.638    15294111.44243  11921488.12742  23647645.278    23647640.231
  23792723.149    31893786.56843  24852343.59842  23792723.762    23792722.044
  21245566.851     9360315.57143   7301345.21042  21245569.175    21245563.042
  21590961.407   -18851283.67443 -14676248.86442  21590963.683    21590957.513
  21705236.552   -17980956.55543 -13963818.61042  21705238.765    21705233.887
  23891471.404    -7265028.98643  -5646608.79142  23891473.823    23891471.334
 04  7 24 18 30 30.0000000  0  8G22G20G19G15G14G11G25G 1
  23266331.577    14159395.85343  11026086.05642  23266332.260    23266326.315
  24317511.382    -7511807.36243  -5589935.49942  24317513.294    24317509.418
  23663204.251    15375882.72243  11985205.93542  23663205.805    23663200.848
  23814635.669    32008937.34243  24942071.34942  23814636.391    23814634.495
  21257544.109     9423256.21143   7350389.84442  21257546.405    21257540.279
  21582042.556   -18898152.63743 -14712770.14042  21582044.868    21582038.653
  21692162.234   -18049662.10343 -14017355.37142  21692164.506    21692159.621
  23873957.224    -7357066.20643  -5718326.01942  23873959.679    23873957.099
 04  7 24 18 31  0.0000000  0  8G22G20G19G15G14G11G25G 1
  23280232.452    14232445.94843  11083008.12342  23280233.223    23280227.498
  24300661.185    -7600356.45143  -5658934.74442  24300662.959    24300659.019
  23678802.683    15457852.22543  12049078.20842  23678804.175    23678799.138
  23836575.708    32124232.50643  25031911.62642  23836576.483    23836574.497
  21269573.110     9486468.96043   7399646.50642  21269575.417    21269569.276
  21573214.577   -18944543.86143 -14748919.14542  21573216.930    21573210.704
  21679165.504   -18117960.33443 -14070574.74142  21679167.745    21679162.851
  23856478.702    -7448916.83143  -5789897.85142  23856481.040    23856478.332
 04  7 24 18 31 30.0000000  0  8G22G20G19G15G14G11G25G 1
  23294160.828    14305639.00643  11140041.58942  23294161.502    23294155.762
  24283814.630    -7688885.47943  -5727918.38742  24283816.444    24283812.483
  23694439.542    15540024.84043  12113108.75542  23694441.212    23694436.171
  23858544.261    32239677.73943  25121868.82442  23858544.975    23858543.156
  21281655.055     9549959.88243   7449119.92542  21281657.367    21281651.209
  21564479.393   -18990447.62043 -14784688.31042  21564481.766    21564475.487
  21666248.184   -18185840.99643 -14123468.73142  21666250.411    21666245.553
  23839037.256    -7540572.05043  -5861317.43942  23839039.625    23839036.809
 04  7 24 18 32  0.0000000  0  8G22G20G19G15G14G11G25G 1
  23308114.677    14378966.28043  11197179.64842  23308115.306    23308109.492
  24266970.171    -7777402.39343  -5796892.54842  24266972.223    24266968.134
  23710113.109    15622389.28643  12177288.78542  23710114.744    23710109.693
  23880539.222    32355262.07343  25211934.39442  23880539.984    23880538.293
  21293787.946     9613718.57343   7498801.99742  21293790.250    21293784.159
  21555835.588   -19035871.00143 -14820083.15742  21555838.008    21555831.703
  21653409.230   -18253310.13843 -14176042.05542  21653411.423    21653406.580
  23821631.688    -7632039.28143  -5932590.51642  23821633.951    23821631.092
 04  7 24 18 32 30.0000000  0  8G22G20G19G15G14G11G25G 1
  23322094.584    14452431.51243  11254425.20842  23322095.249    23322089.409
  24250129.138    -7865902.54443  -5865853.68942  24250131.241    24250127.120
  23725823.261    15704946.07843  12241618.69042  23725824.864    23725819.769
  23902560.965    32470987.34843  25302109.78642  23902561.995    23902560.090
  21305972.163     9677746.93543   7548694.19542  21305974.440    21305968.382
  21547284.262   -19080808.39443 -14855099.30942  21547286.658    21547280.385
  21640649.731   -18320361.62043 -14228289.92842  21640651.905    21640647.086
  23804262.609    -7723313.56743  -6003713.25042  23804264.986    23804262.055
 04  7 24 18 33  0.0000000  0  8G22G20G19G15G14G11G25G 1
  23336100.442    14526032.38543  11311776.45042  23336101.080    23336095.127
  24233291.112    -7954387.72043  -5934803.17342  24233293.051    24233288.734
  23741568.937    15787689.96343  12306094.38142  23741570.596    23741565.523
  23924608.984    32586849.23343  25392391.64042  23924610.029    23924608.157
  21318206.867     9742040.68143   7598793.19142  21318209.151    21318203.096
  21538825.334   -19125260.46043 -14889737.29042  21538827.700    21538821.448
  21627969.605   -18386995.70743 -14280212.57742  21627971.825    21627967.000
  23786930.279    -7814396.19843  -6074686.64142  23786932.425    23786929.533
 04  7 24 18 33 30.0000000  0  8G22G20G19G15G14G11G25G 1
  23350132.501    14599771.90743  11369235.75342  23350133.215    23350127.322
  24216456.468    -8042854.00943  -6003737.90342  24216458.553    24216454.127
  23757350.228    15870621.01043  12370715.92042  23757351.947    23757346.800
  23946682.950    32702848.50643  25482780.52742  23946684.140    23946682.272
  21330492.347     9806601.29843   7649100.13042  21330494.636    21330488.617
  21530459.663   -19169222.27643 -14923993.25342  21530462.063    21530455.803
  21615370.055   -18453207.00743 -14331805.77242  21615372.209    21615367.389
  23769634.839    -7905283.18143  -6145507.56042  23769637.073    23769634.327
 04  7 24 18 34  0.0000000  0  8G22G20G19G15G14G11G25G 1
  23364190.595    14673646.19143  11426800.03942  23364191.185    23364185.132
  24199624.889    -8131304.34943  -6072660.21842  24199626.961    24199622.690
  23773165.860    15953732.42143  12435477.99542  23773167.609    23773162.370
  23968781.934    32818979.33843  25573271.91142  23968783.139    23968781.444
  21342827.558     9871423.01443   7699610.52742  21342829.827    21342823.788
  21522186.951   -19212695.85543 -14957868.78042  21522189.311    21522183.033
  21602850.548   -18518997.23143 -14383070.85442  21602852.703    21602847.878
  23752376.195    -7995977.00743  -6216177.98942  23752378.519    23752375.787
 04  7 24 18 34 30.0000000  0  8G22G20G19G15G14G11G25G 1
  23378273.965    14747654.28043  11484468.59842  23378274.605    23378268.502
  24182796.174    -8219739.01943  -6141570.34142  24182798.269    24182794.049
  23789015.075    16037020.22743  12500377.53542  23789016.817    23789011.637
  23990905.526    32935238.74243  25663863.52742  23990906.717    23990904.942
  21355212.052     9936503.86943   7750322.84942  21355214.311    21355208.271
  21514007.211   -19255680.49643 -14991363.30542  21514009.583    21514003.325
  21590411.536   -18584364.74243 -14434006.55742  21590413.687    21590408.819
  23735154.503    -8086477.69943  -6286697.89442  23735156.595    23735153.977
 04  7 24 18 35  0.0000000  0  8G22G20G19G15G14G11G25G 1
  23392383.470    14821799.75543  11542244.21142  23392384.133    23392378.013
  24165971.504    -8308153.74443  -6210464.93442  24165973.595    24165969.409
  23804897.840    16120484.78243  12565414.78242  23804899.621    23804894.440
  24013054.017    33051628.06643  25754556.34942  24013055.036    24013053.346
  21367646.019    10001844.38143   7801237.49542  21367648.272    21367642.200
  21505921.557   -19298171.05943 -15024472.84542  21505923.881    21505917.653
  21578054.084   -18649303.90843 -14484608.48542  21578056.183    21578051.266
  23717970.190    -8176780.59343  -6357063.70442  23717972.402    23717969.798
 04  7 24 18 35 30.0000000  0  8G22G20G19G15G14G11G25G 1
  23406519.093    14896082.53643  11600126.80342  23406519.765    23406513.637
  24149150.639    -8396547.84143  -6279343.43342  24149152.616    24149148.482
  23820813.754    16204123.25443  12630587.55442  23820815.575    23820810.392
  24035226.805    33168145.29043  25845348.80242  24035227.797    24035226.121
  21380129.003    10067442.83443   7852353.13342  21380131.265    21380125.185
  21497930.170   -19340165.81343 -15057196.03642  21497932.533    21497926.300
  21565778.373   -18713812.78543 -14534875.13442  21565780.539    21565775.595
  23700823.940    -8266884.74543  -6427274.64942  23700826.120    23700823.478
 04  7 24 18 36  0.0000000  0  8G22G20G19G15G14G11G25G 1
  23420680.318    14970500.21943  11658114.53242  23420680.958    23420674.893
  24132333.408    -8484922.61743  -6348206.88842  24132335.520    24132331.351
  23836761.744    16287930.49043  12695891.83042  23836763.570    23836758.427
  24057422.761    33284785.67343  25936237.24442  24057423.782    24057422.271
  21392660.243    10133294.91043   7903666.39442  21392662.527    21392656.432
  21490033.056   -19381665.52943 -15089533.48142  21490035.393    21490029.180
  21553584.592   -18777891.53443 -14584806.60942  21553586.737    21553581.775
  23683715.237    -8356791.36343  -6497331.67242  23683717.422    23683714.731
 04  7 24 18 36 30.0000000  0  8G22G20G19G15G14G11G25G 1
  23434867.033    15045051.66943  11716206.48642  23434867.735    23434861.609
  24115519.906    -8573278.24543  -6417055.41042  24115522.001    24115517.759
  23852741.197    16371902.79543  12761324.73942  23852743.086    23852737.862
  24079641.770    33401546.35143  26027219.40142  24079642.707    24079641.059
  21405239.317    10199398.31243   7955175.49642  21405241.588    21405235.527
  21482230.264   -19422669.24443 -15121484.43942  21482232.616    21482226.416
  21541472.900   -18841538.74943 -14634401.82342  21541474.997    21541470.088
  23666644.182    -8446500.25243  -6567234.62342  23666646.326    23666643.629
 04  7 24 18 37  0.0000000  0  8G22G20G19G15G14G11G25G 1
  23449080.070    15119740.72143  11774405.65742  23449080.700    23449074.428
  24098710.827    -8661610.55243  -6485885.76842  24098712.918    24098708.768
  23868752.110    16456040.25043  12826886.32342  23868753.979    23868748.755
  24101884.307    33518428.63943  26118296.36342  24101884.883    24101883.020
  21417866.506    10265754.60943   8006881.66242  21417868.804    21417862.756
  21474522.875   -19463171.94543 -15153044.99242  21474525.211    21474519.016
  21529444.469   -18904748.52443 -14683656.18342  21529446.559    21529441.650
  23649611.358    -8536006.94743  -6636980.01042  23649613.659    23649611.027
 04  7 24 18 37 30.0000000  0  8G22G20G19G15G14G11G25G 1
  23463318.527    15194564.06943  11832709.47442  23463319.236    23463312.833
  24081905.928    -8749921.70743  -6554699.66342  24081907.900    24081903.659
  23884793.355    16540336.76043  12892571.85342  23884795.108    23884789.866
  24124148.376    33635427.52643  26209464.13142  24124148.960    24124147.385
  21430540.925    10332359.04443   8058781.17742  21430543.216    21430537.202
  21466910.576   -19503174.95143 -15184216.17942  21466912.887    21466906.752
  21517499.086   -18967521.84743 -14732570.44442  21517501.163    21517496.280
  23632617.083    -8625313.33743  -6706569.36242  23632619.156    23632616.429
 04  7 24 18 38  0.0000000  0  8G22G20G19G15G14G11G25G 1
  23477582.464    15269521.17743  11891117.52042  23477583.178    23477576.819
  24065104.776    -8838211.39643  -6623496.79742  24065106.946    24065102.681
  23900863.887    16624789.18243  12958378.87142  23900865.805    23900860.647
  24146433.990    33752540.15443  26300720.52142  24146434.643    24146433.382
  21443262.120    10399209.33143   8110872.27142  21443264.415    21443258.434
  21459393.597   -19542677.04043 -15214997.04442  21459395.880    21459389.781
  21505636.998   -19029857.36943 -14781143.57142  21505639.124    21505634.231
  23615660.814    -8714418.96343  -6776002.27042  23615662.905    23615660.113
 04  7 24 18 38 30.0000000  0  8G22G20G19G15G14G11G25G 1
  23491872.513    15344615.08243  11949632.16042  23491873.252    23491866.770
  24048308.632    -8926475.80743  -6692274.26042  24048310.676    24048306.557
  23916964.361    16709397.32543  13024307.22742  23916966.176    23916961.168
  24168741.783    33869767.43143  26392066.25842  24168742.359    24168741.277
  21456030.379    10466306.59843   8163155.81142  21456032.645    21456026.685
  21451972.809   -19581673.69243 -15245384.06242  21451975.097    21451968.976
  21493859.271   -19091749.74343 -14829371.37742  21493861.376    21493856.487
  23598743.497    -8803319.93243  -6845275.70942  23598745.540    23598742.794
 04  7 24 18 39  0.0000000  0  8G22G20G19G15G14G11G25G 1
  23506188.134    15419843.80743  12008251.84242  23506188.899    23506182.422
  24031517.182    -9014715.75043  -6761032.64442  24031519.190    24031515.048
  23933093.639    16794156.33843  13090353.12742  23933095.279    23933090.354
  24191070.730    33987105.44443  26483498.31542  24191071.291    24191069.911
  21468844.896    10533647.21443   8215628.97942  21468847.137    21468841.197
  21444648.122   -19620165.34543 -15275377.57142  21444650.419    21444644.249
  21482165.909   -19153198.71343 -14877253.68842  21482168.037    21482163.100
  23581865.034    -8892017.05943  -6914390.29542  23581867.027    23581864.249
 04  7 24 18 39 30.0000000  0  8G22G20G19G15G14G11G25G 1
  23520529.045    15495205.58543  12066975.19142  23520529.842    23520523.480
  24014730.123    -9102932.71243  -6829773.11042  24014732.089    24014727.964
  23949250.511    16879061.10143  13156512.61342  23949252.158    23949247.300
  24213419.871    34104550.04743  26575013.38542  24213420.506    24213418.988
  21481705.021    10601227.47143   8268288.87842  21481707.244    21481701.336
  21437419.456   -19658152.47543 -15304977.94742  21437421.739    21437415.494
  21470556.872   -19214204.57843 -14924790.71942  21470558.965    21470554.051
  23565025.053    -8980511.31743  -6983346.82342  23565027.159    23565024.295
 04  7 24 18 40  0.0000000  0  8G22G20G19G15G14G11G25G 1
  23534895.208    15570700.50943  12125802.29942  23534895.994    23534889.825
  23997947.561    -9191125.12443  -6898494.44642  23997949.648    23997945.581
  23965434.719    16964109.55643  13222784.02942  23965436.347    23965431.558
  24235788.825    34222099.65043  26666610.30442  24235789.536    24235788.126
  21494610.504    10669046.03243   8321134.47442  21494612.725    21494606.790
  21430287.155   -19695632.82843 -15334183.43242  21430289.501    21430283.249
  21459032.746   -19274764.39043 -14971980.17642  21459034.822    21459029.897
  23548224.248    -9068801.14643  -7052144.06942  23548226.177    23548223.210
 04  7 24 18 40 30.0000000  0  8G22G20G19G15G14G11G25G 1
  23549287.814    15646333.84143  12184737.25342  23549288.599    23549282.501
  23981170.884    -9279287.04243  -6967192.01842  23981172.872    23981168.942
  23981646.695    17049303.90043  13289169.14342  23981648.324    23981643.599
  24258178.369    34339757.44943  26758291.51642  24258179.229    24258177.775
  21507561.962    10737106.51043   8374168.57342  21507564.216    21507558.303
  21423252.616   -19732599.77543 -15362988.86342  21423254.967    21423248.694
  21447594.888   -19334870.62143 -15018816.19142  21447596.990    21447592.051
  23531463.166    -9156880.21143  -7120777.07242  23531465.282    23531462.255
 04  7 24 18 41  0.0000000  0  8G22G20G19G15G14G11G25G 1
  23563705.478    15722099.04543  12243774.95542  23563706.210    23563700.291
  23964399.117    -9367424.14543  -7035870.27642  23964401.021    23964396.968
  23997884.665    17134634.32243  13355660.27342  23997886.222    23997881.562
  24280586.962    34457514.56143  26850050.12642  24280587.969    24280586.419
  21520557.927    10805400.39443   8427384.55042  21520560.163    21520554.208
  21416314.776   -19769058.14443 -15391397.99142  21416317.164    21416310.944
  21436242.447   -19394528.16243 -15065302.57942  21436244.548    21436239.608
  23514741.249    -9244754.25943  -7189250.31842  23514743.374    23514740.313
 04  7 24 18 41 30.0000000  0  8G22G20G19G15G14G11G25G 1
  23578148.570    15797997.42843  12302916.42642  23578149.277    23578143.382
  23947632.229    -9455533.99743  -7104527.25542  23947634.153    23947630.250
  24014148.136    17220099.31843  13422256.27742  24014149.778    24014145.033
  24303014.464    34575370.40043  26941885.64242  24303015.393    24303013.802
  21533598.206    10873927.46443   8480782.22142  21533600.450    21533594.548
  21409474.255   -19805005.26243 -15419408.74342  21409476.643    21409470.453
  21424976.129   -19453733.24143 -15111436.41042  21424978.209    21424973.262
  23498058.788    -9332420.93743  -7257561.99142  23498060.947    23498057.795
 04  7 24 18 42  0.0000000  0  8G22G20G19G15G14G11G25G 1
  23592617.187    15874029.20343  12362161.83842  23592617.909    23592611.944
  23930870.917    -9543615.66343  -7173162.31742  23930872.785    23930868.701
  24030436.851    17305696.23043  13488955.07942  24030438.409    24030433.620
  24325460.037    34693323.09843  27033796.63842  24325461.116    24325459.714
  21546682.630    10942686.23243   8534360.44042  21546684.852    21546678.935
  21402731.371   -19840439.44343 -15447019.80142  21402733.732    21402727.557
  21413796.238   -19512483.84743 -15157216.09942  21413798.320    21413793.377
  23481416.085    -9419878.95443  -7325711.06842  23481418.209    23481415.069
 04  7 24 18 42 30.0000000  0  8G22G20G19G15G14G11G25G 1
  23607111.121    15950194.72743  12421511.47742  23607111.815    23607105.814
  23914115.072    -9631667.93043  -7241774.43742  23914116.988    23914112.900
  24046750.201    17391422.66743  13555754.80942  24046751.694    24046746.855
  24347923.890    34811370.86543  27125781.70442  24347924.959    24347923.680
  21559810.786    11011675.10243   8588117.96142  21559813.012    21559807.155
  21396086.521   -19875358.56543 -15474229.52042  21396088.855    21396082.674
  21402703.308   -19570777.69043 -15202639.87442  21402705.370    21402700.433
  23464813.361    -9507126.95343  -7393696.51242  23464815.509    23464812.321
 04  7 24 18 43  0.0000000  0  8G22G20G19G15G14G11G25G 1
  23621630.210    16026493.00143  12480964.54342  23621630.930    23621625.100
  23897364.871    -9719690.64343  -7310363.56842  23897366.781    23897362.743
  24063087.277    17477274.39943  13622652.17842  24063088.847    24063083.947
  24370405.354    34929510.54543  27217838.43642  24370406.460    24370405.107
  21572982.292    11080891.65443   8642052.89242  21572984.509    21572978.724
  21389539.752   -19909762.25344 -15501037.59642  21389542.084    21389535.861
  21391697.495   -19628613.54243 -15247706.77042  21391699.544    21391694.632
  23448250.587    -9594164.91543  -7461518.28242  23448252.744    23448249.534
 04  7 24 18 43 30.0000000  0  8G22G20G19G15G14G11G25G 1
  23636174.864    16102924.87843  12540521.69342  23636175.448    23636169.811
  23880620.554    -9807682.30043  -7378928.50342  23880622.415    23880618.418
  24079447.913    17563249.35343  13689645.51542  24079449.490    24079444.558
  24392904.137    35047740.82643  27309965.71042  24392905.237    24392903.685
  21586196.893    11150334.71043   8696164.31142  21586199.115    21586193.333
  21383091.496   -19943648.34144 -15527442.35842  21383093.817    21383087.573
  21380779.404   -19685988.68743 -15292414.68942  21380781.401    21380776.506
  23431728.043    -9680991.18743  -7529175.10442  23431730.170    23431727.016
 04  7 24 18 44  0.0000000  0  8G22G20G19G15G14G11G25G 1
  23650744.885    16179489.85843  12600182.54742  23650745.372    23650739.777
  23863882.499    -9895641.99643  -7447468.56142  23863884.253    23863880.296
  24095831.450    17649344.35543  13756732.37242  24095832.987    24095827.985
  24415419.617    35166059.38843  27402161.71142  24415420.826    24415419.300
  21599454.280    11220002.44343   8750450.78142  21599456.477    21599450.761
  21376741.971   -19977015.52644 -15553442.78842  21376744.289    21376738.007
  21369949.294   -19742901.31743 -15336762.21642  21369951.294    21369946.377
  23415246.089    -9767604.93343  -7596666.38042  23415248.088    23415244.976
 04  7 24 18 44 30.0000000  0  8G22G20G19G15G14G11G25G 1
  23665339.871    16256187.25543  12659946.58242  23665340.373    23665335.006
  23847150.487    -9983569.66143  -7515983.63042  23847152.101    23847148.211
  24112236.934    17735555.60043  13823909.82542  24112238.503    24112233.608
  24437951.242    35284463.38543  27494424.33542  24437952.423    24437951.025
  21612753.874    11289892.15943   8804910.25242  21612756.080    21612750.318
  21370491.256   -20009863.24944 -15579038.43442  21370493.575    21370487.294
  21359207.413   -19799350.34043 -15380748.47942  21359209.416    21359204.480
  23398804.393    -9854006.15343  -7663992.00142  23398806.405    23398803.361
 04  7 24 18 45  0.0000000  0  8G22G20G19G15G14G11G25G 1
  23679960.469    16333018.01143  12719814.50042  23679960.972    23679955.589
  23830424.958   -10071463.52843  -7584472.40242  23830426.567    23830422.606
  24128664.441    17821881.12843  13891176.27042  24128665.808    24128660.917
  24460499.174    35402951.74943  27586752.60042  24460499.848    24460498.810
  21626095.657    11360003.25843   8859542.19742  21626097.826    21626092.071
  21364339.908   -20042189.08643 -15604227.43742  21364342.165    21364335.940
  21348554.314   -19855332.68743 -15424371.12242  21348556.328    21348551.408
  23382403.653    -9940192.75843  -7731150.43742  23382405.563    23382402.633
 04  7 24 18 45 30.0000000  0  8G22G20G19G15G14G11G25G 1
  23694605.599    16409977.33743  12779782.51542  23694606.062    23694600.595
  23813705.072   -10159327.30743  -7652937.86142  23813706.744    23813702.730
  24145112.023    17908313.50943  13958525.88042  24145113.470    24145108.595
  24483062.243    35521517.49643  27679140.98442  24483062.218    24483061.393
  21639478.386    11430329.37943   8914341.64142  21639480.518    21639474.688
  21358287.245   -20073996.29444 -15629012.36542  21358289.485    21358283.274
  21337989.619   -19910851.07243 -15467632.29242  21337991.570    21337986.620
  23366043.126   -10026168.41743  -7798144.59442  23366044.958    23366042.000
 04  7 24 18 46  0.0000000  0  8G22G20G19G15G14G11G25G 1
  23709276.232    16487071.56843  12839855.72342  23709276.690    23709271.239
  23796992.315   -10247153.79443  -7721374.10842  23796993.935    23796990.088
  24161580.726    17994856.00643  14025961.41242  24161582.095    24161577.271
  24505640.567    35640164.93143  27771593.22742  24505640.593    24505639.766
  21652902.768    11500874.94043   8969312.14042  21652904.943    21652899.088
  21352334.684   -20105277.48443 -15653387.35742  21352336.924    21352330.716
  21327514.579   -19965897.78243 -15510525.86242  21327516.546    21327511.637
  23349724.011   -10111926.01043  -7864968.72442  23349725.793    23349722.910
 04  7 24 18 46 30.0000000  0  8G22G20G19G15G14G11G25G 1
  23723972.209    16564298.66743  12900032.52242  23723972.700    23723967.203
  23780286.441   -10334943.88343  -7789781.99442  23780288.109    23780284.213
  24178069.208    18081503.85343  14093479.08842  24178070.645    24178065.969
  24528233.664    35758890.08643  27864106.06542  24528233.535    24528232.710
  21666368.305    11571636.64043   9024451.07842  21666370.483    21666364.647
  21346482.160   -20136032.82244 -15677352.57842  21346484.411    21346478.199
  21317129.343   -20020472.40043 -15553051.55042  21317131.357    21317126.484
  23333446.285   -10197466.55243  -7931623.70442  23333448.080    23333445.139
 04  7 24 18 47  0.0000000  0  7G22G20G19G14G11G25G 1
  23738693.243    16641658.07543  12960312.42442  23738693.778    23738688.510
  23763587.424   -10422697.01643  -7858161.06442  23763589.183    23763585.312
  24194577.379    18168253.30943  14161075.93442  24194578.637    24194574.111
  21679874.550    11642612.22743   9079756.69642  21679876.751    21679870.920
  21340729.813   -20166261.57344 -15700907.46442  21340732.119    21340725.874
  21306834.267   -20074573.56543 -15595208.30642  21306836.269    21306831.404
  23317209.863   -10282789.64843  -7998109.22842  23317211.658    23317208.699
 04  7 24 18 47 30.0000000  0  7G22G20G19G14G11G25G 1
  23753439.090    16719147.21843  13020693.44542  23753439.590    23753434.376
  23746895.213   -10510414.86743  -7926512.60742  23746896.997    23746893.134
  24211103.673    18255099.15843  14228747.95342  24211105.052    24211100.445
  21693420.630    11713797.19443   9135225.46542  21693422.854    21693417.090
  21335077.415   -20195965.08944 -15724053.06142  21335079.727    21335073.519
  21296629.068   -20128202.42643 -15636997.02242  21296631.094    21296626.213
  23301014.316   -10367896.93043  -8064426.55642  23301016.303    23301013.318
 04  7 24 18 48  0.0000000  0  7G22G20G19G14G11G25G 1
  23768210.178    16796769.82543  13081178.47142  23768210.765    23768205.511
  23730210.643   -10598092.63343  -7994832.91142  23730212.509    23730208.645
  24227648.401    18342042.27543  14296495.73942  24227649.829    24227645.303
  21707006.975    11785193.63343   9190859.03042  21707009.209    21707003.423
  21329525.869   -20225138.44244 -15746785.54942  21329528.220    21329522.030
  21286514.856   -20181353.04143 -15678413.08042  21286516.897    21286511.997
  23284860.871   -10452783.81243  -8130572.14542  23284862.876    23284859.970
 04  7 24 18 48 30.0000000  0  7G22G20G19G14G11G25G 1
  23783006.083    16874522.72243  13141764.99042  23783006.752    23783001.499
  23713533.258   -10685732.36943  -8063123.59242  23713535.193    23713531.425
  24244210.520    18429076.60643  14364314.55742  24244211.923    24244207.522
  21720632.667    11856797.09343   9246653.89242  21720634.899    21720629.174
  21324074.899   -20253783.30843 -15769106.23342  21324077.266    21324071.104
  21276491.448   -20234026.50743 -15719457.33942  21276493.478    21276488.584
  23268748.998   -10537452.32543  -8196547.59042  23268751.045    23268748.085
 04  7 24 18 49  0.0000000  0  7G22G20G19G14G11G25G 1
  23797826.815    16952405.62243  13202452.79542  23797827.401    23797822.259
  23696863.354   -10773333.46443  -8131384.18242  23696865.326    23696861.371
  24260789.366    18516198.92443  14432201.95542  24260790.886    24260786.390
  21734297.399    11928605.59243   9302608.51542  21734299.632    21734293.978
  21318724.814   -20281898.28844 -15791014.02942  21318727.168    21318721.031
  21266559.149   -20286221.26043 -15760128.58642  21266561.182    21266556.290
  23252678.911   -10621901.79843  -8262352.36142  23252680.909    23252677.915
 04  7 24 18 49 30.0000000  0  7G22G20G19G14G11G25G 1
  23812673.095    17030421.85743  13263244.51942  23812673.548    23812668.394
  23680201.627   -10860891.67143  -8199611.34742  23680203.581    23680199.457
  24277385.202    18603409.65343  14500158.24242  24277386.666    24277382.119
  21748001.453    12000620.66843   9358724.11542  21748003.682    21747998.011
  21313476.355   -20309479.47043 -15812505.87742  21313478.666    21313472.534
  21256718.882   -20337932.36043 -15800422.95442  21256720.907    21256716.006
  23236651.152   -10706128.16243  -8327983.27742  23236653.208    23236650.186
 04  7 24 18 50  0.0000000  0  7G22G20G19G14G11G25G 1
  23827543.256    17108564.61443  13324134.85442  23827543.764    23827538.556
  23663546.886   -10948412.64443  -8267809.48842  23663548.884    23663544.702
  24293996.021    18690699.29943  14568176.04842  24293997.495    24293992.882
  21761743.162    12072833.82543   9414994.06342  21761745.416    21761739.793
  21308328.374   -20336532.32143 -15833586.03942  21308330.704    21308324.566
  21246969.608   -20389165.08043 -15840344.56242  21246971.667    21246966.750
  23220664.696   -10790137.30743  -8393444.91642  23220666.838    23220663.778
 04  7 24 18 50 30.0000000  0  7G22G20G19G14G11G25G 1
  23842438.650    17186839.94543  13385128.50842  23842439.220    23842433.981
  23646900.757   -11035889.03643  -8335972.87242  23646902.699    23646898.651
  24310622.395    18778070.86543  14636257.71742  24310623.897    24310619.115
  21775523.475    12145249.66243   9471421.95342  21775525.718    21775520.099
  21303282.396   -20363049.02544 -15854248.41042  21303284.753    21303278.621
  21237312.946   -20439911.25143 -15879887.03142  21237314.992    21237310.073
  23204721.030   -10873922.15943  -8458731.79342  23204723.055    23204720.024
 04  7 24 18 51  0.0000000  0  7G22G20G19G14G11G25G 1
  23857358.774    17265245.98643  13446223.99942  23857359.424    23857354.211
  23630262.887   -11123321.80543  -8404102.29142  23630264.825    23630260.674
  24327263.417    18865519.74443  14704399.58042  24327264.947    24327260.241
  21789341.698    12217864.70943   9528005.06142  21789343.926    21789338.329
  21298338.261   -20389030.44243 -15874493.68442  21298340.646    21298334.527
  21227748.831   -20490171.02243 -15919050.49442  21227750.898    21227745.955
  23188819.639   -10957483.84443  -8523844.75742  23188821.702    23188818.737
 04  7 24 18 51 30.0000000  0  8G22G20G19G23G14G11G25G 1
  23872304.529    17343785.36643  13507423.37742  23872305.089    23872299.821
  23613633.967   -11210707.30243  -8472194.86842  23613635.887    23613631.726
  24343918.903    18953045.59743  14772601.40942  24343920.501    24343916.125
  24709944.994    -5241587.36353  -4067008.40352  24709947.271    24709941.617
  21803198.057    12290680.11843   9584744.29942  21803200.285    21803194.658
  21293496.737   -20414472.79643 -15894318.90942  21293499.101    21293493.034
  21218278.142   -20539939.85543 -15957831.40742  21218280.211    21218275.273
  23172961.555   -11040818.76143  -8588781.02042  23172963.606    23172960.553
 04  7 24 18 52  0.0000000  0  8G22G20G19G23G14G11G25G 1
  23887274.389    17422451.86743  13568721.80942  23887274.896    23887269.880
  23597012.990   -11298050.75643  -8540254.68342  23597014.971    23597010.984
  24360587.818    19040639.59143  14840856.32542  24360589.147    24360584.805
  24691721.301    -5337353.73243  -4141631.56342  24691723.591    24691717.811
  21817091.076    12363688.04643   9641633.54042  21817093.216    21817087.648
  21288756.833   -20439381.08443 -15913727.97842  21288759.177    21288753.162
  21208900.050   -20589222.17843 -15996233.22542  21208902.142    21208897.187
  23157145.542   -11123931.96643  -8653544.50942  23157147.673    23157144.606
 04  7 24 18 52 30.0000000  0  8G22G20G19G23G14G11G25G 1
  23902268.245    17501245.09843  13630119.00142  23902268.775    23902264.079
  23580400.253   -11385351.06443  -8608280.87642  23580402.254    23580398.211
  24377268.643    19128298.22843  14909161.66042  24377270.192    24377265.872
  24673520.349    -5433000.72743  -4216161.71042  24673522.702    24673516.970
  21831020.364    12436886.49043   9698671.24442  21831022.477    21831016.844
  21284118.753   -20463754.41843 -15932720.19942  21284121.067    21284115.083
  21199614.746   -20638016.90343 -16034255.09442  21199616.815    21199611.877
  23141371.971   -11206822.95343  -8718134.86742  23141374.035    23141371.034
 04  7 24 18 53  0.0000000  0  8G22G20G19G23G14G11G25G 1
  23917287.285    17580169.71143  13691618.57342  23917287.745    23917282.978
  23563796.835   -11472602.56343  -8676269.03542  23563798.843    23563794.744
  24393962.405    19216023.79443  14977519.14542  24393963.897    24393959.624
  24655343.097    -5528522.46043  -4290594.21342  24655345.483    24655339.948
  21844986.461    12510278.80443   9755860.01342  21844988.622    21844982.993
  21279583.608   -20487587.06144 -15951291.10442  21279585.901    21279579.886
  21190423.456   -20686317.48043 -16071891.90842  21190425.526    21190420.593
  23125641.558   -11289486.15943  -8782547.72142  23125643.670    23125640.742
 04  7 24 18 53 30.0000000  0  8G22G20G19G23G14G11G25G 1
  23932330.753    17659223.48543  13753218.81542  23932331.242    23932326.601
  23547202.462   -11559806.57343  -8744220.16642  23547204.526    23547200.308
  24410667.844    19303810.82043  15045924.51342  24410669.355    24410665.053
  24637189.419    -5623920.23343  -4364930.14142  24637191.938    24637186.244
  21858988.630    12583860.76943   9813196.56442  21858990.846    21858985.262
  21275151.135   -20510879.76443 -15969441.26742  21275153.495    21275147.462
  21181326.153   -20734124.14343 -16109143.85342  21181328.239    21181323.276
  23109954.257   -11371923.09543  -8846784.25942  23109956.395    23109953.439
 04  7 24 18 54  0.0000000  0  8G22G20G19G23G14G11G25G 1
  23947398.625    17738405.23543  13814918.76442  23947399.145    23947394.577
  23530616.924   -11646962.96643  -8812134.20042  23530619.104    23530614.936
  24427384.229    19391655.44143  15114374.76042  24427385.740    24427381.505
  24619059.349    -5719194.05643  -4439169.48942  24619061.840    24619056.183
  21873026.465    12657630.01843   9870679.04042  21873028.664    21873023.132
  21270821.387   -20533632.77243 -15987170.90142  21270823.747    21270817.745
  21172322.890   -20781436.80543 -16146010.86742  21172324.963    21172319.975
  23094309.981   -11454133.93043  -8910844.61342  23094312.140    23094309.239
 04  7 24 18 54 30.0000000  0  8G22G20G19G23G14G11G25G 1
  23962491.122    17817716.64143  13876719.71542  23962491.649    23962487.127
  23514041.095   -11734069.04343  -8880009.03042  23514043.286    23514039.169
  24444111.366    19479556.50243  15182868.96242  24444112.820    24444108.735
  24600953.423    -5814341.37143  -4513310.25042  24600955.934    24600950.328
  21887099.958    12731586.51643   9928307.43642  21887102.183    21887096.653
  21266594.829   -20555843.43943 -16004477.92842  21266597.189    21266591.238
  21163414.232   -20828252.10943 -16182490.33142  21163416.322    21163411.311
  23078709.241   -11536116.16043  -8974726.84142  23078711.330    23078708.517
 04  7 24 18 55  0.0000000  0  8G22G20G19G23G14G11G25G 1
  23977608.008    17897155.26743  13938619.82142  23977608.507    23977603.896
  23497474.722   -11821125.97743  -8947845.58442  23497476.816    23497472.681
  24460847.988    19567509.17643  15251403.40342  24460849.642    24460845.865
  24582871.601    -5909363.11043  -4587353.17242  24582873.880    24582868.359
  21901208.304    12805726.30343   9986078.65342  21901210.531    21901205.057
  21262471.297   -20577512.86343 -16021363.20442  21262473.661    21262467.693
  21154600.132   -20874570.62243 -16218582.68442  21154602.211    21154597.197
  23063151.823   -11617871.08943  -9038431.95642  23063153.857    23063151.007
 04  7 24 18 55 30.0000000  0  8G22G20G19G23G14G11G25G 1
  23992749.168    17976721.83043  14000619.60742  23992749.783    23992745.009
  23480918.028   -11908131.70743  -9015642.20242  23480920.156    23480916.072
  24477594.268    19655511.15143  15319976.23942  24477595.828    24477592.215
  24564813.928    -6004257.75343  -4661297.05542  24564816.051    24564810.476
  21915351.472    12880048.95043  10043992.37442  21915353.734    21915348.294
  21258451.078   -20598639.40744 -16037825.46142  21258453.431    21258447.444
  21145880.939   -20920390.05543 -16254286.14342  21145883.028    21145878.035
  23047637.808   -11699397.26943  -9101958.79642  23047639.881    23047636.995
 04  7 24 18 56  0.0000000  0  8G22G20G19G23G14G11G25G 1
  24007914.613    18056416.45943  14062719.20942  24007915.210    24007910.374
  23464371.407   -11995084.83443  -9083397.83442  23464373.501    23464369.421
  24494349.368    19743559.77343  15388585.43642  24494351.032    24494347.524
  24546780.396    -6099023.82443  -4735140.74042  24546782.784    24546777.068
  21929529.126    12954553.05143  10102047.46442  21929531.384    21929526.016
  21254534.421   -20619221.62344 -16053863.55642  21254536.814    21254530.776
  21137257.120   -20965708.49943 -16289599.21342  21137259.215    21137254.230
  23032167.678   -11780693.60143  -9165306.53742  23032169.706    23032166.766
 04  7 24 18 56 30.0000000  0  8G22G20G19G23G14G11G25G 1
  24023104.343    18136238.67943  14124918.23742  24023104.962    24023100.032
  23447834.891   -12081984.93343  -9151112.14542  23447836.958    23447832.914
  24511112.792    19831651.90743  15457228.55242  24511114.437    24511111.054
  24528771.721    -6193660.93843  -4808883.91342  24528773.906    24528768.275
  21943740.980    13029236.33843  10160242.19642  21943743.193    21943737.787
  21250721.441   -20639259.05044 -16069477.14242  21250723.821    21250717.781
  21128728.819   -21010525.08943 -16324521.23342  21128730.875    21128725.896
  23016741.128   -11861759.83043  -9228474.99642  23016743.276    23016740.373
 04  7 24 18 57  0.0000000  0  8G22G20G19G23G14G11G25G 1
  24038318.285    18216188.07443  14187216.35242  24038318.796    24038314.102
  23431308.718   -12168831.04843  -9218784.40542  23431310.809    23431306.612
  24527884.065    19919784.24843  15525902.97442  24527885.486    24527882.164
  24510787.559    -6288168.44543  -4882526.10342  24510789.897    24510784.033
  21957986.525    13104097.23543  10218575.32442  21957988.805    21957983.384
  21247012.252   -20658751.00144 -16084665.68242  21247014.668    21247008.567
  21120296.258   -21054838.39643 -16359051.08142  21120298.342    21120293.336
  23001358.664   -11942595.27843  -9291463.58842  23001360.760    23001357.874
 04  7 24 18 57 30.0000000  0  8G22G20G19G23G14G11G25G 1
  24053557.361    18296268.93343  14249616.89042  24053557.962    24053553.285
  23414793.808   -12255617.76643  -9286410.36942  23414795.799    23414791.657
  24544663.343    20007958.23843  15594609.85142  24544664.530    24544661.162
  24492829.010    -6382540.98443  -4956063.10842  24492831.360    24492825.628
  21972266.397    13179138.34043  10277048.87142  21972268.693    21972263.236
  21243407.896   -20677692.27344 -16099425.12342  21243410.290    21243404.153
  21111960.661   -21098642.30943 -16393184.00042  21111962.736    21111957.753
  22986021.089   -12023194.90543  -9354268.47142  22986023.189    22986020.218
 04  7 24 18 58  0.0000000  0  8G22G20G19G23G14G11G25G 1
  24068819.863    18376474.13243  14312114.32742  24068820.426    24068815.996
  23398288.949   -12342350.91543  -9353994.61442  23398290.993    23398286.886
  24561448.234    20096164.13343  15663341.60942  24561449.644    24561446.124
  24474895.140    -6476784.43543  -5029499.56942  24474897.354    24474891.841
  21986578.984    13254351.10243  10335656.18142  21986581.257    21986575.762
  21239907.199   -20696089.10144 -16113760.31742  21239909.549    21239903.359
  21103720.839   -21141942.81244 -16426924.64942  21103722.931    21103717.940
  22970727.195   -12103565.05643  -9416894.52942  22970729.282    22970726.225
 04  7 24 18 58 30.0000000  0  8G22G20G19G23G14G11G25G 1
  24084106.479    18456804.80443  14374709.54542  24084107.003    24084102.532
  23381794.565   -12429028.54643  -9421535.59042  23381796.765    23381792.675
  24578238.677    20184400.08543  15732096.74942  24578240.217    24578236.917
  24456985.903    -6570897.13743  -5102834.11142  24456988.354    24456982.674
  22000924.071    13329735.07343  10394396.89642  22000926.352    22000920.949
  21236510.404   -20713939.39544 -16127669.64642  21236512.773    21236506.603
  21095577.322   -21184737.33843 -16460271.03442  21095579.383    21095574.408
  22955477.254   -12183703.76443  -9479340.22042  22955479.388    22955476.310
 04  7 24 18 59  0.0000000  0  8G22G20G19G23G14G11G25G 1
  24099416.685    18537259.97443  14437401.76142  24099417.288    24099412.669
  23365311.042   -12515650.09343  -9489032.87242  23365313.164    23365309.101
  24595034.621    20272662.60643  15800872.65542  24595036.081    24595032.833
  24439101.944    -6664878.39243  -5176066.22742  24439104.202    24439098.579
  22015301.433    13405288.05443  10453269.31242  22015303.649    22015298.237
  21233217.620   -20731243.01044 -16141152.98242  21233219.996    21233213.844
  21087530.235   -21227025.01744 -16493222.47342  21087532.302    21087527.346
  22940271.448   -12263611.04843  -9541605.60342  22940273.568    22940270.373
 04  7 24 18 59 30.0000000  0  8G22G20G19G23G14G11G25G 1
  24114751.778    18617845.38543  14500195.48142  24114752.320    24114747.712
  23348839.598   -12602208.43243  -9556480.89442  23348841.660    23348837.480
  24611836.326    20360954.74043  15869671.64942  24611837.849    24611834.448
  24421244.119    -6758721.65743  -5249190.81342  24421246.377    24421240.767
  22029711.616    13481014.26943  10512276.73042  22029713.926    22029708.466
  21230030.167   -20747993.14044 -16154205.03542  21230032.569    21230026.389
  21079581.037   -21268798.53844 -16525773.26042  21079583.083    21079578.120
  22925110.817   -12343280.40043  -9603685.55642  22925113.016    22925109.776
 04  7 24 19  0  0.0000000  0  8G22G20G19G23G14G11G25G 1
  24130109.919    18698552.66143  14563084.14442  24130110.645    24130106.023
  23332378.696   -12688710.83943  -9623885.31842  23332380.707    23332376.486
  24628641.560    20449265.42743  15938485.09442  24628643.088    24628639.535
  24403411.100    -6852434.25043  -5322213.58342  24403413.343    24403407.824
  22044152.963    13556903.91043  10571411.49842  22044155.265    22044149.839
  21226946.631   -20764197.33444 -16166831.68742  21226949.020    21226942.836
  21071728.262   -21310065.12343 -16557929.03842  21071730.302    21071725.347
  22909994.004   -12422719.40643  -9665586.03442  22909996.224    22909992.951
 04  7 24 19  0 30.0000000  0  7G22G20G23G14G11G25G 1
  24145492.625    18779388.56043  14626073.06442  24145493.269    24145488.753
  23315930.021   -12775149.18143  -9691239.83342  23315931.917    23315927.758
  24385604.573    -6946008.43043  -5395128.47842  24385606.790    24385601.254
  22058626.411    13632962.53343  10630677.93942  22058628.716    22058623.331
  21223968.417   -20779847.89444 -16179026.92742  21223970.812    21223964.617
  21063973.573   -21350816.30644 -16589683.19642  21063975.608    21063970.671
  22894922.512   -12501920.30543  -9727300.98442  22894924.748    22894921.473
 04  7 24 19  1  0.0000000  0  7G22G20G23G14G11G25G 1
  24160899.714    18860352.98343  14689162.12242  24160900.350    24160895.904
  23299493.610   -12861522.28243  -9758543.48642  23299495.573    23299491.448
  24367824.130    -7039443.19143  -5467934.74342  24367826.616    24367821.031
  22073131.749    13709188.30243  10690074.64142  22073134.053    22073128.643
  21221095.690   -20794943.92444 -16190790.06842  21221098.118    21221091.934
  21056317.165   -21391050.94144 -16621034.85042  21056319.224    21056314.297
  22879896.413   -12580882.48943  -9788829.90842  22879898.649    22879895.393
 04  7 24 19  1 30.0000000  0  7G22G20G23G14G11G25G 1
  24176329.405    18941436.41443  14752343.89942  24176330.051    24176325.657
  23283068.290   -12947838.33343  -9825802.70142  23283070.206    23283066.003
  24350069.143    -7132746.83643  -5540638.84042  24350071.439    24350066.005
  22087666.780    13785570.54543  10749593.26442  22087669.109    22087663.707
  21218326.864   -20809494.19944 -16202127.94842  21218329.276    21218323.115
  21048757.536   -21430777.00144 -16651990.21142  21048759.621    21048754.678
  22864914.143   -12659614.55543  -9850179.52342  22864916.363    22864913.123
 04  7 24 19  2  0.0000000  0  7G22G20G23G14G11G25G 1
  24191783.080    19022645.43843  14815623.55342  24191783.736    24191779.378
  23266655.213   -13034089.70843  -9893011.54042  23266657.193    23266652.866
  24332340.377    -7225911.74943  -5613234.83442  24332342.817    24332337.306
  22102232.571    13862114.45243  10809237.86042  22102234.910    22102229.524
  21215663.278   -20823491.26444 -16213034.75942  21215665.682    21215659.569
  21041296.290   -21469986.17344 -16682542.80142  21041298.352    21041293.429
  22849976.968   -12738109.22243  -9911344.14642  22849979.274    22849976.066
 04  7 24 19  2 30.0000000  0  7G22G20G23G14G11G25G 1
  24207260.485    19103979.45043  14879000.63342  24207261.218    24207256.854
  23250254.766   -13120275.28243  -9960169.08942  23250256.699    23250252.343
  24314638.131    -7318937.48243  -5685722.36242  24314640.541    24314635.101
  22116828.868    13938818.19843  10869007.00242  22116831.139    22116825.829
  21213105.084   -20836934.74943 -16223510.20742  21213107.480    21213101.400
  21033933.467   -21508677.86544 -16712692.16642  21033935.554    21033930.639
  22835085.135   -12816366.11443  -9972323.49442  22835087.348    22835084.234
 04  7 24 19  3  0.0000000  0  7G22G20G23G14G11G25G 1
  24222761.905    19185439.50943  14942475.89642  24222762.514    24222758.214
  23233867.049   -13206393.10343 -10027273.83942  23233868.998    23233864.678
  24296962.622    -7411822.06043  -5758099.92242  24296965.093    24296959.634
  22131455.368    14015680.94943  10928900.04942  22131457.660    22131452.368
  21210652.524   -20849823.16944 -16233553.13742  21210654.891    21210648.821
  21026669.600   -21546849.73843 -16742436.47342  21026671.677    21026666.779
  22820238.816   -12894383.60943 -10033116.29842  22820241.011    22820237.966
 04  7 24 19  3 30.0000000  0  7G22G20G23G14G11G25G 1
  24238286.252    19267021.14443  15006045.90342  24238286.927    24238282.698
  23217491.555   -13292445.94643 -10094327.96242  23217493.583    23217489.346
  24279313.521    -7504568.82643  -5830370.06142  24279315.851    24279310.551
  22146111.058    14092697.25643  10988912.74342  22146113.409    22146108.105
  21208304.905   -20862159.62043 -16243165.96042  21208307.290    21208301.288
  21019504.031   -21584504.95644 -16771778.18942  21019506.115    21019501.265
  22805437.551   -12972164.96843 -10093725.09342  22805439.647    22805436.648
 04  7 24 19  4  0.0000000  0  7G22G20G23G14G11G25G 1
  24253834.517    19348726.64043  15069712.41442  24253835.155    24253830.813
  23201129.161   -13378430.37343 -10161328.77342  23201131.193    23201127.014
  24261691.304    -7597174.54543  -5902530.32542  24261693.541    24261688.071
  22160796.226    14169868.03943  11049045.81842  22160798.545    22160793.210
  21206062.889   -20873941.49444 -16252346.65042  21206065.268    21206059.317
  21012437.518   -21621639.52344 -16800714.20742  21012439.626    21012434.802
  22790681.693   -13049707.48243 -10154147.80042  22790683.831    22790680.748
 04  7 24 19  4 30.0000000  0  7G22G20G23G14G11G25G 1
  24269406.478    19430557.22743  15133476.42542  24269407.101    24269402.893
  23184780.401   -13464343.62843 -10228274.12742  23184782.396    23184778.249
  24244096.196    -7689636.71743  -5974578.72342  24244098.423    24244093.048
  22175510.684    14247193.28243  11109299.23942  22175513.052    22175507.699
  21203926.867   -20885166.65844 -16261093.53642  21203929.216    21203923.247
  21005470.559   -21658251.16644 -16829242.75042  21005472.660    21005467.827
  22775971.709   -13127008.92743 -10214382.63842  22775973.829    22775970.779
 04  7 24 19  5  0.0000000  0  7G22G20G23G14G11G25G 1
  24285001.488    19512509.04443  15197334.89242  24285002.072    24284997.885
  23168444.796   -13550188.17543 -10295165.95142  23168446.784    23168442.514
  24226528.031    -7781958.18043  -6046517.49642  24226530.291    24226524.786
  22190253.729    14324667.96743  11169669.11842  22190256.049    22190250.586
  21201896.132   -20895838.17443 -16269409.01242  21201898.510    21201892.498
  20998602.677   -21694342.09344 -16857365.53842  20998604.801    20998599.954
  22761307.080   -13204072.27843 -10274431.96342  22761309.144    22761306.083
 04  7 24 19  5 30.0000000  0  7G22G20G23G14G11G25G 1
  24300620.114    19594585.10343  15261290.16042  24300620.704    24300616.640
  23152122.985   -13635959.81143 -10362000.95142  23152124.943    23152120.657
  24208987.389    -7874135.10843  -6118343.63142  24208989.616    24208983.894
  22205025.327    14402293.44243  11230156.49642  22205027.675    22205022.159
  21199971.485   -20905952.39344 -16277290.22842  21199973.852    21199967.838
  20991834.645   -21729908.34644 -16885079.48942  20991836.765    20991831.904
  22746688.438   -13280893.89343 -10334292.91942  22746690.469    22746687.374
 04  7 24 19  6  0.0000000  0  7G22G20G23G14G11G25G 1
  24316261.753    19676782.18043  15325339.73642  24316262.305    24316258.268
  23135814.619   -13721660.37343 -10428780.56142  23135816.636    23135812.380
  24191473.779    -7966169.64943  -6190058.81242  24191476.086    24191470.338
  22219824.787    14480065.14043  11290757.80242  22219827.119    22219821.621
  21198152.433   -20915511.81044 -16284739.13142  21198154.770    21198148.712
  20985166.099   -21764951.84244 -16912386.09842  20985168.204    20985163.355
  22732115.301   -13357476.16843 -10393967.36042  22732117.392    22732114.272
 04  7 24 19  6 30.0000000  0  7G22G20G23G14G11G25G 1
  24331926.926    19759102.06943  15389484.97042  24331927.459    24331923.301
  23119520.491   -13807286.49943 -10495502.20142  23119522.522    23119518.199
  24173987.774    -8058058.93143  -6261660.81942  24173990.121    24173984.389
  22234652.170    14557983.74443  11351473.58442  22234654.511    22234649.038
  21196439.445   -20924513.72244 -16291753.61942  21196441.769    21196435.718
  20978597.608   -21799469.42344 -16939282.90642  20978599.727    20978594.844
  22717588.192   -13433816.34343 -10453453.18442  22717590.311    22717587.109
 04  7 24 19  7  0.0000000  0  7G22G20G23G14G11G25G 1
  24347615.580    19841547.52043  15453728.09942  24347616.274    24347612.067
  23103241.255   -13892834.14743 -10562162.66442  23103243.326    23103239.017
  24156530.166    -8149799.09243  -6333146.61842  24156532.534    24156526.756
  22249507.865    14636050.87243  11412305.09842  22249510.186    22249504.741
  21194833.215   -20932954.65144 -16298330.97542  21194835.546    21194829.452
  20972130.015   -21833456.85944 -16965766.60842  20972132.139    20972127.243
  22703107.865   -13509910.86343 -10512747.57442  22703109.994    22703106.761
 04  7 24 19  7 30.0000000  0  7G22G20G23G14G11G25G 1
  24363327.070    19924110.88043  15518063.09442  24363327.598    24363323.328
  23086975.919   -13978309.17743 -10628766.54742  23086977.873    23086973.596
  24139099.666    -8241396.54043  -6404521.19342  24139102.073    24139096.417
  22264390.133    14714257.56343  11473245.36242  22264392.473    22264387.067
  21193332.348   -20940841.59544 -16304476.65742  21193334.706    21193328.656
  20965762.024   -21866920.86444 -16991842.44542  20965764.135    20965759.243
  22688672.915   -13585766.64143 -10571855.92242  22688675.056    22688671.845
 04  7 24 19  8  0.0000000  0  7G22G20G23G14G11G25G 1
  24379060.824    20006793.15143  15582490.73942  24379061.425    24379057.205
  23070724.608   -14063709.53743 -10695312.24042  23070726.660    23070722.385
  24121696.874    -8332849.33843  -6475783.06742  24121699.203    24121693.589
  22279298.937    14792603.46143  11534294.08642  22279301.218    22279295.836
  21191937.254   -20948173.11144 -16310189.54042  21191939.596    21191933.551
  20959494.106   -21899859.01744 -17017508.52542  20959496.211    20959491.335
  22674283.689   -13661382.05843 -10630776.97642  22674285.863    22674282.667
 04  7 24 19  8 30.0000000  0  7G22G20G23G14G11G25G 1
  24394818.711    20089600.40543  15647015.77642  24394819.223    24394814.967
  23054489.099   -14149027.48143 -10761793.71842  23054491.124    23054486.834
  24104322.885    -8424150.31743  -6546926.63642  24104325.159    24104319.491
  22294235.139    14871093.61343  11595455.21342  22294237.407    22294232.075
  21190649.116   -20954942.30944 -16315464.25242  21190651.497    21190645.428
  20953327.675   -21932263.95044 -17042759.11042  20953329.781    20953324.866
  22659941.580   -13736749.98543 -10689505.17842  22659943.804    22659940.554
 04  7 24 19  9  0.0000000  0  7G22G20G23G14G11G25G 1
  24410599.269    20172527.71343  15711634.36142  24410599.874    24410595.849
  23038268.559   -14234266.65443 -10828213.80542  23038270.605    23038266.364
  24086976.811    -8515303.49243  -6617955.03442  24086979.248    24086973.564
  22309197.467    14949721.45443  11656723.63842  22309199.845    22309194.523
  21189467.092   -20961154.01744 -16320304.55942  21189469.476    21189463.409
  20947261.857   -21964139.90144 -17067597.50342  20947263.971    20947259.049
  22645645.787   -13811874.81343 -10748043.95642  22645648.009    22645644.682
 04  7 24 19  9 30.0000000  0  7G22G20G23G14G11G25G 1
  24426402.132    20255572.03543  15776344.09542  24426402.889    24426398.848
  23022062.838   -14319428.63543 -10894573.74242  23022064.829    23022060.495
  24069658.684    -8606311.05643  -6688869.97942  24069660.995    24069655.350
  22324185.316    15028483.01843  11718096.25542  22324187.681    22324182.370
  21188390.633   -20966810.38243 -16324712.12942  21188393.043    21188387.034
  20941296.433   -21995488.34144 -17092024.84342  20941298.579    20941293.601
  22631395.927   -13886758.84043 -10806395.09342  22631398.067    22631394.675
 04  7 24 19 10  0.0000000  0  7G22G20G23G14G11G25G 1
  24442228.902    20338741.49543  15841151.36142  24442229.624    24442225.679
  23005873.501   -14404503.90543 -10960866.12842  23005875.561    23005871.182
  24052369.875    -8697163.57143  -6759664.08042  24052372.368    24052366.691
  22339199.946    15107384.92843  11779578.22942  22339202.272    22339196.943
  21187421.626   -20971902.65943 -16328680.15342  21187423.995    21187418.017
  20935433.129   -22026300.09544 -17116033.98942  20935435.274    20935430.279
  22617193.448   -13961393.20343 -10864551.69742  22617195.612    22617192.144
 04  7 24 19 10 30.0000000  0  7G22G20G23G14G11G25G 1
  24458077.788    20422026.57243  15906048.69342  24458078.444    24458074.344
  22989699.348   -14489500.35943 -11027097.08742  22989701.290    22989696.837
  24035109.202    -8787869.52943  -6830343.98642  24035111.506    24035105.778
  22354239.208    15186416.85843  11841161.52142  22354241.604    22354236.209
  21186558.224   -20976439.90943 -16332215.68642  21186560.599    21186554.605
  20929670.312   -22056583.69344 -17139631.58442  20929672.474    20929667.433
  22603036.778   -14035786.64043 -10922520.54542  22603038.933    22603035.492
 04  7 24 19 11  0.0000000  0  7G22G20G23G14G11G25G 1
  24473949.332    20505431.32343  15971039.29042  24473950.068    24473945.659
  22973540.874   -14574412.40043 -11093262.26742  22973543.055    22973538.606
  24017877.083    -8878424.12643  -6900905.95642  24017879.525    24017873.687
  22369303.716    15265581.51843  11902848.22742  22369306.135    22369300.784
  21185801.329   -20980417.53344 -16335315.14742  21185803.701    21185797.667
  20924009.060   -22086333.81144 -17162813.48342  20924011.211    20924006.136
  22588926.882   -14109934.32243 -10980297.91642  22588929.045    22588925.572
 04  7 24 19 11 30.0000000  0  7G22G20G23G14G11G25G 1
  24489843.826    20588957.44843  16036124.47942  24489844.625    24489839.973
  22957399.529   -14659236.71343 -11159359.09042  22957401.521    22957397.017
  24000674.413    -8968824.17143  -6971347.48242  24000676.877    24000671.198
  22384393.634    15344879.45043  11964638.79442  22384396.023    22384390.712
  21185151.313   -20983833.26243 -16337976.76542  21185153.704    21185147.666
  20918449.895   -22115547.20044 -17185577.14242  20918452.049    20918446.992
  22574864.296   -14183833.54143 -11037881.65342  22574866.489    22574862.981
 04  7 24 19 12  0.0000000  0  7G22G20G23G14G11G25G 1
  24505760.864    20672601.78143  16101301.77942  24505761.586    24505757.172
  22941274.095   -14743975.16943 -11225389.00842  22941276.240    22941271.834
  23983500.561    -9059072.32743  -7041670.66042  23983503.098    23983497.512
  22399508.031    15424306.15543  12026529.68842  22399510.399    22399505.198
  21184607.761   -20986689.74343 -16340202.60442  21184610.152    21184604.111
  20912992.368   -22144226.53044 -17207924.65242  20912994.534    20912989.461
  22560848.474   -14257486.88543 -11095273.81242  22560850.744    22560847.124
 04  7 24 19 12 30.0000000  0  7G22G20G23G14G11G25G 1
  24521700.097    20756362.59443  16166569.85242  24521700.737    24521696.641
  22925165.292   -14828627.89043 -11291352.12942  22925167.320    22925162.887
  23966355.597    -9149169.15643  -7111875.92742  23966358.041    23966352.574
  22414646.481    15503858.78343  12088518.70542  22414648.770    22414643.546
  21184170.374   -20988988.40544 -16341993.77942  21184172.755    21184166.735
  20907636.344   -22172372.65344 -17229856.67942  20907638.516    20907633.404
  22546879.294   -14330895.36743 -11152475.17342  22546881.554    22546877.938
 04  7 24 19 13  0.0000000  0  7G22G20G23G14G11G25G 1
  24537662.062    20840243.27143  16231931.31842  24537662.669    24537658.969
  22909073.635   -14913189.76843 -11357244.45642  22909075.675    22909071.227
  23949240.528    -9239110.00443  -7181959.64542  23949242.889    23949237.310
  22429809.287    15583539.77443  12150607.74842  22429811.610    22429806.367
  21183839.866   -20990725.26743 -16343347.18642  21183842.237    21183836.269
  20902382.676   -22199980.85644 -17251369.54042  20902384.831    20902379.733
  22532957.397   -14404054.66343 -11209482.35142  22532959.679    22532956.161
 04  7 24 19 13 30.0000000  0  7G22G20G23G14G11G25G 1
  24553646.348    20924240.93143  16297383.94842  24553646.935    24553643.379
  22892998.968   -14997662.30943 -11423067.17542  22893001.029    22892996.605
  23932154.749    -9328896.87743  -7251923.39242  23932157.079    23932151.296
  22444995.834    15663345.08343  12212793.65442  22444998.091    22444992.841
  21183615.800   -20991902.76544 -16344264.72342  21183618.193    21183612.234
  20897231.002   -22227052.99044 -17272464.69142  20897233.150    20897228.046
  22519082.577   -14476967.11543 -11266297.19242  22519084.794    22519081.292
 04  7 24 19 14  0.0000000  0  7G22G20G23G14G11G25G 1
  24569652.526    21008353.80943  16362926.35742  24569653.160    24569649.575
  22876941.375   -15082045.67943 -11488820.40342  22876943.412    22876939.070
  23915097.955    -9418530.47143  -7321767.67742  23915100.367    23915094.614
  22460205.351    15743271.80643  12275074.16942  22460207.661    22460202.354
  21183497.933   -20992522.15944 -16344747.37442  21183500.322    21183494.419
  20892181.200   -22253589.83544 -17293142.73342  20892183.348    20892178.243
  22505254.447   -14549633.71643 -11322920.46442  22505256.675    22505253.285
 04  7 24 19 14 30.0000000  0  7G22G20G23G14G11G25G 1
  24585681.552    21092585.26743  16428561.11542  24585682.068    24585678.288
  22860901.622   -15166334.77743 -11554500.17342  22860903.617    22860899.274
  23898071.449    -9508006.09143  -7391488.89242  23898073.731    23898067.900
  22475438.549    15823322.16843  12337451.02742  22475440.798    22475435.472
  21183486.979   -20992579.83744 -16344792.32642  21183489.359    21183483.452
  20887234.070   -22279587.06144 -17313400.29542  20887236.204    20887231.103
  22491474.070   -14622050.28343 -11379348.90942  22491476.224    22491472.834
 04  7 24 19 15  0.0000000  0  7G22G20G23G14G11G25G 1
  24601732.388    21176932.44643  16494286.08342  24601732.886    24601729.136
  22844879.622   -15250530.95043 -11620107.54142  22844881.616    22844877.305
  23881074.500    -9597325.83043  -7461088.61542  23881076.750    23881070.760
  22490694.457    15903492.29043  12399921.19942  22490696.668    22490691.407
  21183582.461   -20992078.17744 -16344401.43042  21183584.835    21183578.891
  20882389.292   -22305046.35044 -17333238.68442  20882391.427    20882386.356
  22477740.823   -14694218.91643 -11435584.15642  22477742.962    22477739.579
 04  7 24 19 15 30.0000000  0  7G22G20G23G14G11G25G 1
  24617805.761    21261398.72843  16560103.83742  24617806.346    24617802.737
  22828876.162   -15334629.31043 -11685638.69742  22828878.191    22828873.872
  23864108.061    -9686485.51743  -7530563.62742  23864110.351    23864104.094
  22505973.450    15983784.36543  12462486.41242  22505975.749    22505970.559
  21183785.113   -20991013.35943 -16343571.71342  21183787.480    21183781.517
  20877647.666   -22329963.75144 -17352654.82242  20877649.804    20877644.730
  22464055.503   -14766135.65543 -11491623.13542  22464057.669    22464054.221
 04  7 24 19 16  0.0000000  0  7G22G20G23G14G11G25G 1
  24633901.224    21345979.79343  16626011.03142  24633901.710    24633898.299
  22812890.830   -15418632.60543 -11751095.76942  22812892.835    22812888.534
  23847171.218    -9775488.14843  -7599916.24742  23847173.669    23847167.356
  22521274.822    16064193.09243  12525142.51242  22521277.066    22521271.893
  21184094.081   -20989389.67343 -16342306.51142  21184096.433    21184090.499
  20873008.510   -22354342.61244 -17371651.32242  20873010.651    20873005.556
  22450417.494   -14837804.05243 -11547468.58342  22450419.624    22450416.166
 04  7 24 19 16 30.0000000  0  7G22G20G23G14G11G25G 1
  24650018.058    21430674.03143  16692006.43742  24650018.659    24650015.208
  22796923.646   -15502540.62443 -11816478.61942  22796925.643    22796921.317
  23830264.176    -9864334.34043  -7669146.97742  23830266.615    23830260.403
  22536597.730    16144715.86743  12587887.47942  22536600.017    22536594.970
  21184509.207   -20987208.04143 -16340606.54542  21184511.584    21184505.668
  20868471.804   -22378183.26444 -17390228.44342  20868473.921    20868468.813
  22436826.531   -14909224.94843 -11603121.18242  22436828.695    22436825.192
 04  7 24 19 17  0.0000000  0  7G22G20G23G14G11G25G 1
  24666157.017    21515484.43643  16758092.35942  24666157.667    24666154.495
  22780975.542   -15586348.74443 -11881783.61342  22780977.466    22780973.080
  23813387.813    -9953020.19643  -7738252.75342  23813390.089    23813384.006
  22551942.921    16225354.45543  12650722.69442  22551945.103    22551939.980
  21185031.084   -20984465.60743 -16338469.59442  21185033.453    21185027.545
  20864038.136   -22401482.08144 -17408383.35042  20864040.272    20864035.181
  22423283.358   -14980394.60943 -11658578.01042  22423285.518    22423282.045
 04  7 24 19 17 30.0000000  0  7G22G20G23G14G11G25G 1
  24682317.835    21600409.73843  16824267.78742  24682318.497    24682314.976
  22765046.452   -15670056.70043 -11947010.56342  22765048.355    22765043.914
  23796541.874   -10041545.90543  -7807233.73642  23796544.143    23796538.032
  22567309.461    16306106.42143  12713646.25642  22567311.708    22567306.648
  21185659.530   -20981163.19344 -16335896.29742  21185661.903    21185655.982
  20859707.464   -22424239.82344 -17426116.64242  20859709.599    20859704.524
  22409787.877   -15051313.66343 -11713839.56542  22409790.047    22409786.572
 04  7 24 19 18  0.0000000  0  7G22G20G23G14G11G25G 1
  24698500.632    21685451.07743  16890533.61342  24698501.273    24698497.862
  22749137.008   -15753661.38043 -12012157.04642  22749138.888    22749134.447
  23779726.760   -10129909.14943  -7876088.13842  23779729.092    23779722.994
  22582697.749    16386972.24043  12776658.51942  22582700.050    22582694.949
  21186394.858   -20977299.25844 -16332885.44942  21186397.196    21186391.281
  20855480.297   -22446453.82344 -17443426.24442  20855482.437    20855477.345
  22396340.356   -15121980.12843 -11768904.30142  22396342.578    22396339.116
 04  7 24 19 18 30.0000000  0  7G22G20G23G14G11G25G 1
  24714704.657    21770603.22643  16956885.81342  24714705.327    24714701.692
  22733246.459   -15837166.75143 -12077226.14342  22733248.380    22733243.899
  23762941.788   -10218114.53743  -7944819.51542  23762944.164    23762938.028
  22598106.431    16467945.44043  12839754.48442  22598108.744    22598103.629
  21187236.044   -20972878.76743 -16329440.92442  21187238.408    21187232.484
  20851355.661   -22468128.79444 -17460315.82142  20851357.796    20851352.742
  22382940.127   -15192398.60943 -11823775.80042  22382942.289    22382938.840
 04  7 24 19 19  0.0000000  0  6G20G23G14G11G25G 1
  22717380.426   -15920543.29143 -12142194.85142  22717382.333    22717377.802
  23746192.324   -10306133.05943  -8013405.29942  23746194.691    23746188.654
  22613540.801    16549052.86143  12902955.00942  22613543.010    22613538.017
  21188188.442   -20967873.84844 -16325541.00242  21188190.800    21188184.903
  20847339.038   -22489236.13344 -17476763.08842  20847341.179    20847336.143
  22369592.501   -15262540.79043 -11878432.00442  22369594.665    22369591.209
 04  7 24 19 19 30.0000000  0  6G20G23G14G11G25G 1
  22701529.680   -16003839.12843 -12207100.67342  22701531.661    22701527.141
  23729469.229   -10394013.53043  -8081883.50842  23729471.542    23729465.573
  22628990.931    16630243.51743  12966220.40342  22628993.131    22628988.107
  21189242.559   -20962334.38243 -16321224.55042  21189244.927    21189239.053
  20843421.088   -22509825.07544 -17492806.41142  20843423.218    20843418.162
  22356288.078   -15332455.69843 -11932911.10942  22356290.233    22356286.769
 04  7 24 19 20  0.0000000  0  6G20G23G14G11G25G 1
  22685700.133   -16087023.98843 -12271920.03342  22685702.140    22685697.509
  23712777.858   -10481726.41843  -8150231.13642  23712780.225    23712774.384
  22644462.127    16711545.02943  13029572.17642  22644464.343    22644459.338
  21190403.938   -20956231.37943 -16316468.98642  21190406.283    21190400.433
  20839607.415   -22529866.24044 -17508422.89942  20839609.523    20839604.438
  22343032.515   -15402114.03743 -11987190.29542  22343034.653    22343031.178
 04  7 24 19 20 30.0000000  0  6G20G23G14G11G25G 1
  22669890.758   -16170102.43443 -12336656.46042  22669892.851    22669888.214
  23696117.308   -10569276.99443  -8218452.26342  23696119.763    23696114.027
  22659952.977    16792950.16343  13093004.68142  22659955.230    22659950.292
  21191671.392   -20949570.93943 -16311279.05042  21191673.732    21191667.896
  20835896.913   -22549365.22844 -17523616.90942  20835898.990    20835893.877
  22329824.730   -15471521.39043 -12041273.92142  22329826.873    22329823.318
 04  7 24 19 21  0.0000000  0  6G20G23G14G11G25G 1
  22654101.735   -16253074.60543 -12401310.09242  22654103.817    22654099.108
  23679487.499   -10656666.29043  -8286547.73842  23679489.983    23679484.379
  22675463.015    16874455.92843  13156515.60742  22675465.292    22675460.399
  21193044.540   -20942354.99943 -16305656.26242  21193046.893    21193041.048
  20832289.328   -22568323.12344 -17538389.28842  20832291.419    20832286.284
  22316664.470   -15540679.01643 -12095162.95542  22316666.624    22316662.982
 04  7 24 19 21 30.0000000  0  6G20G23G14G11G25G 1
  22638334.848   -16335930.13243 -12465872.83242  22638336.893    22638332.311
  23662890.389   -10743884.52843  -8354509.93042  23662892.713    23662887.160
  22690993.880    16956070.38343  13220111.24942  22690996.092    22690991.049
  21194525.171   -20934574.53644 -16299593.58342  21194527.479    21194521.637
  20828786.589   -22586730.03644 -17552732.33142  20828788.698    20828783.547
  22303553.515   -15609577.42243 -12148849.98942  22303555.690    22303552.033
 04  7 24 19 22  0.0000000  0  6G20G23G14G11G25G 1
  22622587.697   -16418681.56843 -12530354.45842  22622589.797    22622585.249
  23646323.390   -10830945.11743  -8422349.27242  23646325.758    23646319.999
  22706542.296    17037777.85543  13283779.35242  22706544.530    22706539.565
  21196110.456   -20926243.91044 -16293102.21142  21196112.791    21196106.898
  20825386.052   -22604599.99644 -17566656.96842  20825388.152    20825383.004
  22290489.245   -15678230.33243 -12202345.72742  22290491.428    22290487.771
 04  7 24 19 22 30.0000000  0  6G20G23G14G11G25G 1
  22606862.996   -16501315.99743 -12594744.91442  22606864.989    22606860.444
  23629788.590   -10917835.55643  -8490056.03742  23629791.137    23629785.171
  22722110.543    17119588.96543  13347528.21642  22722112.732    22722107.739
  21197802.555   -20917351.87544 -16286173.37242  21197804.929    21197799.008
  20822089.928   -22621921.11844 -17580153.94442  20822092.035    20822086.910
  22277473.992   -15746625.89743 -12255640.94842  22277476.131    22277472.508
 04  7 24 19 23  0.0000000  0  6G20G23G14G11G25G 1
  22591159.974   -16583835.77243 -12659046.02942  22591161.969    22591157.424
  23613285.688   -11004559.13743  -8557632.78442  23613288.209    23613282.142
  22737697.434    17201498.49343  13411353.77942  22737699.651    22737694.656
  21199600.792   -20907902.48144 -16278810.22442  21199603.157    21199597.175
  20818897.601   -22638696.80144 -17593225.90042  20818899.701    20818894.592
  22264507.067   -15814767.74843 -12308738.46842  22264509.135    22264505.468
 04  7 24 19 23 30.0000000  0  6G20G23G14G11G25G 1
  22575478.692   -16666241.44643 -12723258.23442  22575480.664    22575476.078
  23596814.185   -11091117.18843  -8625080.56842  23596816.727    23596810.625
  22753302.570    17283503.22743  13475253.51342  22753304.726    22753299.684
  21201504.658   -20897897.80244 -16271014.38542  21201507.002    21201501.009
  20815808.794   -22654928.69744 -17605874.12542  20815810.900    20815805.783
  22251588.039   -15882657.36843 -12361639.43742  22251590.124    22251586.446
 04  7 24 19 24  0.0000000  0  6G20G23G14G11G25G 1
  22559819.867   -16748528.71143 -12787378.17342  22559821.845    22559817.322
  23580374.949   -11177506.41243  -8692396.79142  23580377.466    23580371.172
  22768925.976    17365604.82843  13539228.75042  22768928.199    22768923.114
  21203514.562   -20887335.73044 -16262784.22042  21203516.911    21203510.967
  20812823.977   -22670613.87244 -17618096.33642  20812826.091    20812820.985
  22238717.683   -15950291.57743 -12414341.39942  22238719.773    22238716.027
 04  7 24 19 24 30.0000000  0  6G20G23G14G11G25G 1
  22544184.170   -16830694.72843 -12851403.63542  22544186.167    22544181.597
  23563968.030   -11263724.79343  -8759579.89242  23563970.639    23563964.306
  22784567.774    17447803.20343  13603279.39042  22784569.972    22784565.023
  21205630.761   -20876215.15944 -16254118.85642  21205633.090    21205627.174
  20809943.516   -22685750.85344 -17629891.38442  20809945.615    20809940.500
  22225896.226   -16017668.87143 -12466843.15642  22225898.304    22225894.580
 04  7 24 19 25  0.0000000  0  6G20G23G14G11G25G 1
  22528570.359   -16912746.27443 -12915339.90042  22528572.310    22528567.688
  23547592.390   -11349779.68843  -8826635.60142  23547594.890    23547588.552
  22800226.240    17530088.83343  13667398.01142  22800228.448    22800223.504
  21207851.593   -20864544.56044 -16245024.90142  21207853.955    21207848.051
  20807165.947   -22700347.29244 -17641265.22542  20807168.010    20807162.884
  22213122.173   -16084796.99143 -12519150.75042  22213124.249    22213120.498
 04  7 24 19 25 30.0000000  0  6G20G23G14G11G25G 1
  22512980.778   -16994670.01443 -12979176.57442  22512982.723    22512978.127
  23531250.151   -11435658.47043  -8893554.09142  23531252.636    23531246.293
  22815903.459    17612472.83343  13731593.29142  22815905.645    22815900.698
  21210179.326   -20852312.49444 -16235493.44142  21210181.674    21210175.784
  20804493.470   -22714391.23944 -17652208.55442  20804495.528    20804490.424
  22200397.773   -16151663.80943 -12571254.73042  22200399.926    22200396.176
 04  7 24 19 26  0.0000000  0  6G20G23G14G11G25G 1
  22497413.797   -17076474.95543 -13042920.67842  22497415.804    22497411.196
  23514939.568   -11521371.06943  -8960343.09242  23514941.977    23514935.719
  22831597.120    17694943.43843  13795856.05042  22831599.394    22831594.362
  21212611.835   -20839529.64444 -16225532.79842  21212614.193    21212608.298
  20801924.219   -22727892.52844 -17662729.03542  20801926.316    20801921.211
  22187721.269   -16218279.35443 -12623162.92242  22187723.376    22187719.639
 04  7 24 19 26 30.0000000  0  6G20G23G14G11G25G 1
  22481871.271   -17158151.65943 -13106564.85442  22481873.257    22481868.576
  23498662.138   -11606909.09443  -9026996.06842  23498664.481    23498658.332
  22847308.436    17777507.02543  13860191.27642  22847310.795    22847305.775
  21215150.561   -20826188.62043 -16215137.21742  21215152.912    21215146.999
  20799459.709   -22740843.58944 -17672820.76442  20799461.781    20799456.686
  22175094.014   -16284635.64143 -12674869.08642  22175096.108    22175092.400
 04  7 24 19 27  0.0000000  0  6G20G23G14G11G25G 1
  22466352.245   -17239704.29543 -13170112.36542  22466354.235    22466349.586
  23482417.060   -11692277.49243  -9093516.84242  23482419.300    23482413.255
  22863036.152    17860156.96343  13924593.79042  22863038.547    22863033.663
  21217794.358   -20812295.40744 -16204311.35642  21217796.716    21217790.820
  20797098.883   -22753249.85944 -17682487.98542  20797100.963    20797095.825
  22162515.119   -16350737.93943 -12726377.33942  22162517.170    22162513.500
 04  7 24 19 27 30.0000000  0  6G20G23G14G11G25G 1
  22450856.915   -17321132.76843 -13233563.12242  22450858.928    22450854.293
  23466204.134   -11777476.84943  -9159905.91742  23466206.326    23466200.297
  22878779.933    17942890.56143  13989061.49642  22878782.210    22878777.436
  21220542.863   -20797851.94544 -16193056.73542  21220545.220    21220539.321
  20794841.444   -22765112.60444 -17691731.67842  20794843.543    20794838.407
  22149984.360   -16416587.36243 -12777688.55342  22149986.384    22149982.717
 04  7 24 19 28  0.0000000  0  6G20G23G14G11G25G 1
  22435386.989   -17402428.10043 -13296910.13642  22435388.925    22435384.288
  23450024.885   -11862499.12643  -9226157.01942  23450027.041    23450021.059
  22894540.756    18025714.41943  14053599.53842  22894542.999    22894538.312
  21223397.376   -20782851.54643 -16181368.13742  21223399.738    21223393.787
  20792688.959   -22776424.11944 -17700545.84142  20792691.038    20792685.909
  22137503.194   -16482176.22043 -12828796.72442  22137505.236    22137501.524
 04  7 24 19 28 30.0000000  0  6G20G23G14G11G25G 1
  22419940.904   -17483597.55943 -13360159.06142  22419942.860    22419938.220
  23433877.761   -11947352.92743  -9292276.82542  23433879.903    23433873.901
  22910316.894    18108618.17443  14118199.83242  22910319.126    22910314.443
  21226356.121   -20767303.39044 -16169252.71442  21226358.454    21226352.520
  20790639.582   -22787193.69544 -17708937.71242  20790641.658    20790636.518
  22125069.996   -16547513.11843 -12879708.56942  22125072.047    22125068.252
 04  7 24 19 29  0.0000000  0  6G20G23G14G11G25G 1
  22404521.228   -17564628.73343 -13423300.24842  22404523.221    22404518.540
  23417764.872   -12032026.24343  -9358256.00442  23417767.116    23417761.142
  22926110.012    18191611.83843  14182870.19342  22926112.258    22926107.558
  21229421.030   -20751197.06044 -16156702.35342  21229423.370    21229417.476
  20788695.484   -22797409.87044 -17716898.36542  20788697.600    20788692.459
  22112686.978   -16612586.62643 -12930415.17242  22112689.034    22112685.176
 04  7 24 19 29 30.0000000  0  6G20G23G14G11G25G 1
  22389125.327   -17645534.62143 -13486343.78842  22389127.317    22389122.734
  23401683.911   -12116532.97243  -9424105.37542  23401686.057    23401679.998
  22941917.310    18274679.71843  14247598.38042  22941919.579    22941914.901
  21232589.343   -20734547.71244 -16143728.86142  21232591.683    21232585.759
  20786854.010   -22807087.04944 -17724439.02142  20786856.100    20786850.932
  22100351.292   -16677411.13943 -12980927.76042  22100353.351    22100349.473
 04  7 24 19 30  0.0000000  0  6G20G23G14G11G25G 1
  22373755.452   -17726303.64743 -13549280.69342  22373757.469    22373752.902
  23385636.409   -12200862.72143  -9489816.83842  23385638.658    23385632.585
  22957740.472    18357830.61243  14312391.25342  22957742.707    22957737.969
  21235862.793   -20717345.80544 -16130324.80742  21235865.133    21235859.236
  20785116.999   -22816215.15744 -17731551.83042  20785119.086    20785113.895
  22088064.943   -16741976.24743 -13031238.21242  22088067.065    22088063.127
 04  7 24 19 30 30.0000000  0  6G20G23G14G11G25G 1
  22358411.892   -17806935.07443 -13612110.39142  22358413.853    22358409.253
  23369622.578   -12285015.82443  -9555390.65142  23369624.846    23369618.698
  22973579.038    18441062.68143  14377247.38942  22973581.310    22973576.498
  21239241.037   -20699592.88144 -16116491.38442  21239243.437    21239237.529
  20783484.244   -22824795.28244 -17738237.64042  20783486.333    20783481.160
  22075827.759   -16806282.63343 -13081347.06742  22075829.898    22075826.036
 04  7 24 19 31  0.0000000  0  6G20G23G14G11G25G 1
  22343094.160   -17887430.45843 -13674834.05442  22343096.116    22343091.478
  23353641.894   -12368994.52843  -9620828.58242  23353644.181    23353638.044
  22989432.239    18524371.46543  14442163.28942  22989434.409    22989429.699
  21242723.493   -20681292.64144 -16102231.49042  21242725.878    21242720.017
  20781955.223   -22832830.40044 -17744498.76842  20781957.289    20781952.119
  22063639.296   -16870333.01943 -13131256.44342  22063641.444    22063637.664
 04  7 24 19 31 30.0000000  0  6G20G23G14G11G25G 1
  22327802.678   -17967787.56543 -13737449.98342  22327804.687    22327800.029
  23337694.687   -12452797.56543  -9686129.63842  23337696.988    23337690.796
  23005299.947    18607756.53543  14507138.64542  23005302.056    23005297.402
  21246310.072   -20662445.05144 -16087545.08442  21246312.456    21246306.612
  20780529.990   -22840319.93844 -17750334.77242  20780532.078    20780526.909
  22051499.804   -16934126.55443 -13180965.66442  22051501.930    22051498.106
 04  7 24 19 32  0.0000000  0  6G20G23G14G11G25G 1
  22312538.188   -18048003.03243 -13799955.54242  22312540.194    22312535.469
  23321781.391   -12536422.66043  -9751292.03042  23321783.673    23321777.384
  23021182.267    18691218.59443  14572173.98042  23021184.463    23021179.735
  21250001.008   -20643049.20644 -16072431.46942  21250003.402    21249997.553
  20779208.944   -22847262.05844 -17755744.21542  20779211.022    20779205.870
  22039409.508   -16997661.45243 -13230473.35242  22039411.638    22039407.796
 04  7 24 19 32 30.0000000  0  6G20G23G14G11G25G 1
  22297300.619   -18128076.97943 -13862350.81942  22297302.616    22297297.927
  23305901.821   -12619870.74543  -9816316.49342  23305904.095    23305897.666
  23037078.758    18774755.08743  14637267.32542  23037081.029    23037076.175
  21253795.905   -20623107.08643 -16056892.18542  21253798.279    21253792.425
  20777991.725   -22853658.59844 -17760728.53342  20777993.812    20777988.625
  22027368.242   -17060939.00243 -13279780.51142  22027370.358    22027366.490
 04  7 24 19 33  0.0000000  0  6G20G23G14G11G25G 1
  22282090.451   -18208006.90143 -13924633.86742  22282092.458    22282087.747
  23290056.141   -12703140.65343  -9881202.12542  23290058.298    23290051.874
  23052989.389    18858365.75743  14702418.47342  23052991.687    23052986.780
  21257694.744   -20602618.78743 -16040927.31042  21257697.065    21257691.257
  20776878.476   -22859508.76444 -17765287.10442  20776880.561    20776875.380
  22015376.098   -17123958.02543 -13328886.22142  22015378.241    22015374.366
 04  7 24 19 33 30.0000000  0  6G20G23G14G11G25G 1
  22266907.687   -18287792.60543 -13986804.52042  22266909.680    22266905.120
  23274244.148   -12786232.94843  -9945949.34242  23274246.312    23274239.871
  23068913.521    18942048.02443  14767625.39542  23068915.847    23068910.951
  21261697.088   -20581586.19143 -16024538.30542  21261699.401    21261693.638
  20775868.906   -22864814.15344 -17769421.16842  20775870.991    20775865.802
  22003432.926   -17186719.74943 -13377791.43642  22003435.081    22003431.173
 04  7 24 19 34  0.0000000  0  6G20G23G14G11G25G 1
  22251752.936   -18367430.93043 -14048860.35442  22251754.956    22251750.377
  23258466.324   -12869145.59743 -10010556.60242  23258468.504    23258462.106
  23084851.477    19025802.22643  14832888.38642  23084853.824    23084848.814
  21265803.117   -20560008.85743 -16007724.82842  21265805.436    21265799.677
  20774963.244   -22869573.46544 -17773129.72042  20774965.307    20774960.117
  21991539.030   -17249222.61143 -13426494.94242  21991541.174    21991537.253
 04  7 24 19 34 30.0000000  0  6G20G23G14G11G25G 1
  22236626.549   -18446920.73843 -14110800.43642  22236628.497    22236624.081
  23242722.770   -12951878.37743 -10075023.68642  23242724.976    23242718.550
  23100802.896    19109626.89143  14898206.27942  23100805.238    23100800.189
  21270012.678   -20537887.66544 -15990487.56042  21270014.978    21270009.193
  20774161.385   -22873786.77444 -17776412.81842  20774163.547    20774158.366
  21979694.389   -17311466.61443 -13474996.74642  21979696.489    21979692.579
 04  7 24 19 35  0.0000000  0  6G20G23G14G11G25G 1
  22221528.261   -18526262.40843 -14172625.09242  22221530.227    22221525.849
  23227013.164   -13034433.12743 -10139352.03242  23227015.293    23227008.995
  23116767.028    19193518.98243  14963576.72342  23116769.399    23116764.322
  21274325.161   -20515225.74644 -15972828.95442  21274327.438    21274321.640
  20773463.029   -22877456.67044 -17779272.47542  20773465.167    20773460.006
  21967898.548   -17373453.79043 -13523298.41642  21967900.680    21967896.833
 04  7 24 19 35 30.0000000  0  6G20G23G14G11G25G 1
  22206459.221   -18605451.10643 -14234330.55042  22206461.130    22206456.733
  23211338.297   -13116805.56643 -10203538.33642  23211340.350    23211334.088
  23132744.424    19277480.82643  15029001.49542  23132746.768    23132741.764
  21278740.943   -20492020.84743 -15954747.24042  21278743.250    21278737.397
  20772868.673   -22880580.06544 -17781706.28042  20772870.819    20772865.637
  21956152.392   -17435180.54243 -13571397.15842  21956154.458    21956150.605
